
Distance (Route):
Temperature : -8.1°C
Humidity : 54.9%
Pressure : 660.7hPa| Receiver | Frames | First received | Last received |
|---|---|---|---|
| DL1XH-west | 347 | 2026-09-05 11:49:32 | 2026-09-05 12:52:30 |
| DM0DOS-11 | 245 | 2026-09-05 11:52:24 | 2026-09-05 12:49:40 |
| BIOWL1-15 | 229 | 2026-09-05 12:00:54 | 2026-09-05 12:46:49 |
| DL1XH-15 | 174 | 2026-09-05 12:06:11 | 2026-09-05 12:45:01 |
| GOEST3-10 | 171 | 2026-09-05 12:09:31 | 2026-09-05 12:46:15 |
| DJ2DS-15 | 93 | 2026-09-05 11:42:37 | 2026-09-05 12:54:43 |
| DF5WG-10 | 55 | 2026-09-05 12:16:16 | 2026-09-05 12:42:23 |
| BIOWL9-15 | 24 | 2026-09-05 12:03:03 | 2026-09-05 12:45:29 |
| BIOWL7-15 | 9 | 2026-09-05 12:17:10 | 2026-09-05 12:45:50 |
| AA1-15 | 2 | 2026-09-05 12:38:47 | 2026-09-05 12:39:20 |
| Receiver | Date | Latitude | Longitude | Direction | Speed | Altitude | Climb | Temperature | Humidity | Pressure | Voltage | Killtimer | Uptime | BKT | XDATA |
|---|---|---|---|---|---|---|---|---|---|---|---|---|---|---|---|
| DJ2DS-15 | 2026-09-05 12:54:43 | 55.73279 | 5.67199 | 118° | 73km/h | 3495m | -16.0m/s | -8.1°C | 54.9% | 660.7hPa | 2.5V | 00:00:00 | 00:00:00 | 00:00:00 | |
| DJ2DS-15 | 2026-09-05 12:54:07 | 55.73620 | 5.66130 | 118° | 77km/h | 4033m | -15.5m/s | -9.8°C | 42.9% | 616.3hPa | 2.5V | 00:00:00 | 00:00:00 | 00:00:00 | |
| DJ2DS-15 | 2026-09-05 12:53:31 | 55.73905 | 5.65254 | 121° | 82km/h | 4468m | -16.7m/s | -12.0°C | 13.9% | 582.4hPa | 2.5V | 00:00:00 | 00:00:00 | 00:00:00 | |
| DJ2DS-15 | 2026-09-05 12:53:24 | 55.73983 | 5.65025 | 120° | 88km/h | 4578m | -16.7m/s | -12.7°C | 14.7% | 573.8hPa | 2.5V | 00:00:00 | 01:57:24 | 00:00:00 | |
| DJ2DS-15 | 2026-09-05 12:53:04 | 55.74217 | 5.64350 | 124° | 93km/h | 4898m | -17.3m/s | -14.8°C | 10.7% | 550.2hPa | 2.5V | 00:00:00 | 01:57:04 | 00:00:00 | |
| DL1XH-west | 2026-09-05 12:52:30 | 55.74659 | 5.63149 | 123° | 93km/h | 5453m | -17.3m/s | -19.9°C | 15.8% | 510.7hPa | 2.6V | 08:18:49 | 01:56:30 | 00:00:00 | |
| DL1XH-west | 2026-09-05 12:52:19 | 55.74803 | 5.62763 | 123° | 95km/h | 5630m | -15.4m/s | -21.5°C | 15.9% | 498.8hPa | 2.6V | 08:19:40 | 01:56:19 | 00:00:00 | |
| DL1XH-west | 2026-09-05 12:52:08 | 55.74941 | 5.62344 | 120° | 104km/h | 5804m | -16.8m/s | -21.8°C | 10% | 487.2hPa | 2.5V | 08:19:40 | 01:56:08 | 00:00:00 | |
| DL1XH-west | 2026-09-05 12:51:57 | 55.75090 | 5.61880 | 121° | 110km/h | 5984m | -16.9m/s | -22.9°C | 9.9% | 475.5hPa | 2.6V | 08:19:40 | 01:55:57 | 00:00:00 | |
| DL1XH-west | 2026-09-05 12:51:47 | 55.75240 | 5.61445 | 123° | 117km/h | 6147m | -17.8m/s | -23.8°C | 10.3% | 464.9hPa | 2.5V | 08:19:40 | 01:55:47 | 00:00:00 | |
| DL1XH-west | 2026-09-05 12:51:36 | 55.75418 | 5.60945 | 124° | 124km/h | 6327m | -17.8m/s | -24.7°C | 7% | 453.5hPa | 2.5V | 08:19:40 | 01:55:36 | 00:00:00 | |
| DL1XH-west | 2026-09-05 12:51:25 | 55.75604 | 5.60411 | 121° | 131km/h | 6513m | -17.1m/s | -25.9°C | 8.6% | 442.2hPa | 2.5V | 08:20:31 | 01:55:25 | 00:00:00 | |
| DL1XH-west | 2026-09-05 12:51:14 | 55.75795 | 5.59856 | 121° | 135km/h | 6695m | -17.1m/s | -27.4°C | 9.6% | 430.9hPa | 2.6V | 08:20:31 | 01:55:14 | 00:00:00 | |
| DL1XH-west | 2026-09-05 12:51:03 | 55.75999 | 5.59270 | 122° | 144km/h | 6886m | -17.5m/s | -28.3°C | 8.7% | 419.7hPa | 2.6V | 08:20:31 | 01:55:03 | 00:00:00 | |
| DL1XH-west | 2026-09-05 12:50:53 | 55.76211 | 5.58695 | 125° | 162km/h | 7059m | -18.6m/s | -28.4°C | 4.9% | 409.7hPa | 2.5V | 08:20:31 | 01:54:53 | 00:00:00 | |
| DL1XH-west | 2026-09-05 12:50:42 | 55.76492 | 5.58031 | 129° | 175km/h | 7258m | -18.7m/s | -29°C | 5.6% | 398.5hPa | 2.5V | 08:21:22 | 01:54:42 | 00:00:00 | |
| DL1XH-west | 2026-09-05 12:50:31 | 55.76809 | 5.57325 | 128° | 192km/h | 7448m | -18.5m/s | -30°C | 7.5% | 388hPa | 2.5V | 08:21:22 | 01:54:31 | 00:00:00 | |
| DL1XH-west | 2026-09-05 12:50:21 | 55.77109 | 5.56637 | 128° | 197km/h | 7624m | -18.3m/s | -30.6°C | 9.3% | 378.4hPa | 2.6V | 08:21:22 | 01:54:21 | 00:00:00 | |
| DL1XH-west | 2026-09-05 12:50:10 | 55.77452 | 5.55846 | 128° | 204km/h | 7837m | -20m/s | -32.1°C | 11.9% | 367.3hPa | 2.6V | 08:21:22 | 01:54:10 | 00:00:00 | |
| DL1XH-west | 2026-09-05 12:50:00 | 55.77774 | 5.55119 | 128° | 206km/h | 8031m | -19.7m/s | -33.2°C | 19.1% | 357.2hPa | 2.5V | 08:21:22 | 01:54:00 | 00:00:00 | |
| DL1XH-west | 2026-09-05 12:49:50 | 55.78097 | 5.54378 | 128° | 212km/h | 8227m | -19.8m/s | -34.5°C | 19.7% | 347.4hPa | 2.6V | 08:22:13 | 01:53:50 | 00:00:00 | |
| DJ2DS-15 | 2026-09-05 12:49:44 | 55.78291 | 5.53925 | 128° | 215km/h | 8343m | -19.3m/s | -35.3°C | 17.3% | 341.7hPa | 2.6V | 00:00:00 | 01:53:44 | 00:00:00 | |
| DM0DOS-11 | 2026-09-05 12:49:40 | 55.78453 | 5.53543 | 126° | 214km/h | 8435m | -18.1m/s | -36.1°C | 18.4% | 337.3hPa | 2.6V | 08:21:37 | 01:53:39 | 00:00:00 | |
| DL1XH-west | 2026-09-05 12:49:40 | 55.78421 | 5.53620 | 127° | 214km/h | 8417m | -18.5m/s | -36°C | 21.3% | 338.2hPa | 2.5V | 08:22:13 | 01:53:40 | 00:00:00 | |
| DL1XH-west | 2026-09-05 12:49:30 | 55.78745 | 5.52847 | 126° | 215km/h | 8596m | -19.1m/s | -37.2°C | 25.2% | 329.4hPa | 2.6V | 08:22:13 | 01:53:30 | 00:00:00 | |
| DM0DOS-11 | 2026-09-05 12:49:28 | 55.78878 | 5.52531 | 127° | 221km/h | 8672m | -19.7m/s | -37.8°C | 23.3% | 325.9hPa | 2.5V | 08:21:50 | 01:53:26 | 00:00:00 | |
| DJ2DS-15 | 2026-09-05 12:49:24 | 55.78946 | 5.52374 | 128° | 224km/h | 8711m | -19.5m/s | -38.0°C | 22.7% | 324.0hPa | 2.5V | 00:00:00 | 01:53:24 | 00:00:00 | |
| DM0DOS-11 | 2026-09-05 12:49:21 | 55.79256 | 5.51662 | 127° | 224km/h | 8881m | -19.5m/s | -38.9°C | 19.5% | 316hPa | 2.5V | 08:22:01 | 01:53:15 | 00:00:00 | |
| DL1XH-west | 2026-09-05 12:49:19 | 55.79117 | 5.51980 | 128° | 221km/h | 8806m | -19.1m/s | -38.5°C | 22.6% | 319.5hPa | 2.5V | 08:22:13 | 01:53:19 | 00:00:00 | |
| DL1XH-west | 2026-09-05 12:49:08 | 55.79497 | 5.51098 | 127° | 224km/h | 9015m | -20.1m/s | -39.5°C | 19% | 309.9hPa | 2.6V | 08:22:13 | 01:53:08 | 00:00:00 | |
| DL1XH-west | 2026-09-05 12:48:57 | 55.79878 | 5.50219 | 128° | 226km/h | 9231m | -20.6m/s | -40.4°C | 21% | 300.2hPa | 2.6V | 08:23:04 | 01:52:57 | 00:00:00 | |
| DM0DOS-11 | 2026-09-05 12:48:55 | 55.80018 | 5.49897 | 127° | 228km/h | 9312m | -21m/s | -41°C | 19% | 296.6hPa | 2.6V | 08:22:23 | 01:52:53 | 00:00:00 | |
| DL1XH-west | 2026-09-05 12:48:47 | 55.80231 | 5.49416 | 128° | 226km/h | 9435m | -21m/s | -42°C | 21.6% | 291.4hPa | 2.6V | 08:23:04 | 01:52:47 | 00:00:00 | |
| DL1XH-west | 2026-09-05 12:48:36 | 55.80624 | 5.48539 | 128° | 228km/h | 9657m | -20.8m/s | -42.9°C | 21.2% | 281.9hPa | 2.6V | 08:23:04 | 01:52:36 | 00:00:00 | |
| DL1XH-west | 2026-09-05 12:48:25 | 55.81027 | 5.47656 | 130° | 230km/h | 9882m | -21.1m/s | -44.9°C | 22.5% | 272.6hPa | 2.6V | 08:23:04 | 01:52:25 | 00:00:00 | |
| DJ2DS-15 | 2026-09-05 12:48:24 | 55.81064 | 5.47577 | 131° | 230km/h | 9903m | -21.3m/s | -45.0°C | 19.6% | 271.8hPa | 2.5V | 00:00:00 | 01:52:24 | 00:00:00 | |
| DM0DOS-11 | 2026-09-05 12:48:18 | 55.81330 | 5.47028 | 130° | 228km/h | 10048m | -20.7m/s | -45.9°C | 20.1% | 265.9hPa | 2.5V | 08:22:59 | 01:52:17 | 00:00:00 | |
| DL1XH-west | 2026-09-05 12:48:14 | 55.81442 | 5.46794 | 130° | 228km/h | 10111m | -21.3m/s | -46.3°C | 23.3% | 263.4hPa | 2.6V | 08:23:04 | 01:52:14 | 00:00:00 | |
| DL1XH-west | 2026-09-05 12:48:03 | 55.81854 | 5.45927 | 130° | 228km/h | 10344m | -21.5m/s | -47.5°C | 22.9% | 254.3hPa | 2.6V | 08:23:55 | 01:52:03 | 00:00:00 | |
| DM0DOS-11 | 2026-09-05 12:47:56 | 55.82186 | 5.45208 | 128° | 230km/h | 10534m | -20.7m/s | -48.6°C | 18.6% | 247.1hPa | 2.6V | 08:23:22 | 01:51:54 | 00:00:00 | |
| DL1XH-west | 2026-09-05 12:47:53 | 55.82222 | 5.45127 | 128° | 232km/h | 10555m | -21.1m/s | -48.8°C | 20.9% | 246.3hPa | 2.6V | 08:23:55 | 01:51:53 | 00:00:00 | |
| DM0DOS-11 | 2026-09-05 12:47:46 | 55.82554 | 5.44385 | 130° | 235km/h | 10744m | -22m/s | -50.2°C | 17.1% | 239.2hPa | 2.5V | 08:23:32 | 01:51:44 | 00:00:00 | |
| DL1XH-west | 2026-09-05 12:47:42 | 55.82632 | 5.44223 | 131° | 235km/h | 10788m | -23m/s | -50.6°C | 17.5% | 237.6hPa | 2.6V | 08:23:55 | 01:51:42 | 00:00:00 | |
| DM0DOS-11 | 2026-09-05 12:47:36 | 55.83011 | 5.43441 | 129° | 221km/h | 11021m | -22m/s | -51.7°C | 15% | 229.2hPa | 2.5V | 08:23:44 | 01:51:32 | 00:00:00 | |
| DL1XH-west | 2026-09-05 12:47:32 | 55.83011 | 5.43441 | 130° | 221km/h | 11021m | -22m/s | -51.7°C | 14.7% | 229.2hPa | 2.5V | 08:23:55 | 01:51:32 | 00:00:00 | |
| DM0DOS-11 | 2026-09-05 12:47:26 | 55.83340 | 5.42714 | 127° | 195km/h | 11249m | -23.8m/s | -51.1°C | 9.3% | 221.4hPa | 2.5V | 08:23:54 | 01:51:22 | 00:00:00 | |
| DL1XH-west | 2026-09-05 12:47:22 | 55.83340 | 5.42714 | 127° | 195km/h | 11249m | -23.8m/s | -51.1°C | 8% | 221.4hPa | 2.5V | 08:23:55 | 01:51:22 | 00:00:00 | |
| DM0DOS-11 | 2026-09-05 12:47:16 | 55.83619 | 5.42005 | 122° | 186km/h | 11480m | -21.5m/s | -52.2°C | 7.7% | 213.5hPa | 2.6V | 08:24:04 | 01:51:12 | 00:00:00 | |
| DL1XH-west | 2026-09-05 12:47:11 | 55.83644 | 5.41934 | 122° | 186km/h | 11502m | -21.3m/s | -52.2°C | 5% | 212.8hPa | 2.6V | 08:24:46 | 01:51:11 | 00:00:00 | |
| DM0DOS-11 | 2026-09-05 12:47:07 | 55.83847 | 5.41300 | 118° | 181km/h | 11705m | -22.9m/s | -50.9°C | 5.6% | 206.3hPa | 2.5V | 08:24:14 | 01:51:02 | 00:00:00 | |
| DL1XH-west | 2026-09-05 12:47:01 | 55.83869 | 5.41228 | 118° | 183km/h | 11727m | -22.5m/s | -51°C | 3% | 205.6hPa | 2.6V | 08:24:46 | 01:51:01 | 00:00:00 | |
| DM0DOS-11 | 2026-09-05 12:46:56 | 55.84064 | 5.40563 | 117° | 186km/h | 11933m | -23.6m/s | -50.2°C | 4.5% | 199.2hPa | 2.5V | 08:24:24 | 01:50:52 | 00:00:00 | |
| DL1XH-west | 2026-09-05 12:46:50 | 55.84108 | 5.40415 | 118° | 184km/h | 11979m | -23.6m/s | -50.4°C | 1.7% | 197.8hPa | 2.5V | 08:24:46 | 01:50:50 | 00:00:00 | |
| BIOWL1-15 | 2026-09-05 12:46:49 | 55.84130 | 5.40342 | 118° | 183km/h | 12003m | -23.1m/s | -50.2°C | 1.6% | 197.1hPa | 2.6V | 08:25:37 | 01:50:49 | 00:00:00 | |
| DM0DOS-11 | 2026-09-05 12:46:46 | 55.84278 | 5.39850 | 119° | 172km/h | 12163m | -23.1m/s | -50°C | 3.9% | 192.3hPa | 2.6V | 08:24:34 | 01:50:42 | 00:00:00 | |
| BIOWL1-15 | 2026-09-05 12:46:40 | 55.84364 | 5.39586 | 121° | 168km/h | 12256m | -24.1m/s | -50.6°C | 1% | 189.5hPa | 2.5V | 08:25:37 | 01:50:38 | 00:00:00 | |
| DL1XH-west | 2026-09-05 12:46:39 | 55.84342 | 5.39651 | 121° | 170km/h | 12233m | -24m/s | -50.4°C | 1.1% | 190.2hPa | 2.5V | 08:24:46 | 01:50:39 | 00:00:00 | |
| DM0DOS-11 | 2026-09-05 12:46:36 | 55.84491 | 5.39205 | 120° | 162km/h | 12399m | -23.8m/s | -51.5°C | 4.1% | 185.4hPa | 2.5V | 08:24:44 | 01:50:32 | 00:00:00 | |
| DL1XH-west | 2026-09-05 12:46:29 | 55.84575 | 5.38954 | 121° | 161km/h | 12492m | -23.4m/s | -51.8°C | 1% | 182.8hPa | 2.5V | 08:25:37 | 01:50:28 | 00:00:00 | |
| BIOWL1-15 | 2026-09-05 12:46:27 | 55.84596 | 5.38891 | 120° | 161km/h | 12515m | -23.9m/s | -51.8°C | 1% | 182.1hPa | 2.5V | 08:25:37 | 01:50:27 | 00:00:00 | |
| DL1XH-west | 2026-09-05 12:46:17 | 55.84795 | 5.38298 | 122° | 148km/h | 12760m | -24m/s | -51.6°C | 0.9% | 175.4hPa | 2.6V | 08:25:37 | 01:50:17 | 00:00:00 | |
| BIOWL1-15 | 2026-09-05 12:46:16 | 55.84854 | 5.38129 | 123° | 148km/h | 12832m | -24.1m/s | -51.4°C | 0.7% | 173.5hPa | 2.5V | 08:25:37 | 01:50:14 | 00:00:00 | |
| GOEST3-10 | 2026-09-05 12:46:15 | 55.84834 | 5.38184 | 123° | 148km/h | 12808m | -24.1m/s | -51.5°C | 4.1% | 174.1hPa | 2.5V | 00:00:00 | 00:00:00 | 00:00:00 | |
| GOEST3-10 | 2026-09-05 12:46:10 | 55.84933 | 5.37907 | 122° | 142km/h | 12930m | -25.2m/s | -51.5°C | 4.0% | 170.7hPa | 2.5V | 00:00:00 | 01:50:10 | 00:00:00 | |
| DM0DOS-11 | 2026-09-05 12:46:07 | 55.85078 | 5.37483 | 120° | 131km/h | 13130m | -25.4m/s | -50.5°C | 3.6% | 165.7hPa | 2.5V | 08:25:14 | 01:50:02 | 00:00:00 | |
| DL1XH-west | 2026-09-05 12:46:06 | 55.85008 | 5.37691 | 121° | 139km/h | 13030m | -24.9m/s | -51.4°C | 0.5% | 168.2hPa | 2.6V | 08:25:37 | 01:50:06 | 00:00:00 | |
| BIOWL1-15 | 2026-09-05 12:46:04 | 55.85044 | 5.37586 | 120° | 133km/h | 13080m | -24.7m/s | -51°C | 0.5% | 166.9hPa | 2.5V | 08:25:37 | 01:50:04 | 00:00:00 | |
| DL1XH-west | 2026-09-05 12:45:56 | 55.85179 | 5.37191 | 123° | 120km/h | 13276m | -25.2m/s | -50.3°C | 0.4% | 162hPa | 2.5V | 08:25:37 | 01:49:56 | 00:00:00 | |
| DM0DOS-11 | 2026-09-05 12:45:56 | 55.85244 | 5.37012 | 121° | 115km/h | 13381m | -27.1m/s | -50.8°C | 3.7% | 159.4hPa | 2.5V | 08:25:24 | 01:49:52 | 00:00:00 | |
| BIOWL1-15 | 2026-09-05 12:45:54 | 55.85212 | 5.37101 | 123° | 119km/h | 13327m | -26.3m/s | -50.6°C | 0.3% | 160.7hPa | 2.6V | 08:25:37 | 01:49:54 | 00:00:00 | |
| GOEST3-10 | 2026-09-05 12:45:54 | 55.85212 | 5.37101 | 124° | 117km/h | 13328m | -26.3m/s | -50.5°C | 3.6% | 160.7hPa | 2.6V | 08:25:00 | 00:00:00 | 00:00:00 | |
| BIOWL7-15 | 2026-09-05 12:45:50 | 55.85275 | 5.36921 | 121° | 115km/h | 13435m | -27.1m/s | -51.1°C | 1.3% | 158.1hPa | 2.6V | 08:25:00 | 00:00:00 | 00:00:00 | |
| GOEST3-10 | 2026-09-05 12:45:49 | 55.85288 | 5.36876 | 119° | 117km/h | 13462m | -26.8m/s | -51.2°C | 3.8% | 157.3hPa | 2.6V | 00:00:00 | 01:49:49 | 00:00:00 | |
| DM0DOS-11 | 2026-09-05 12:45:46 | 55.85391 | 5.36498 | 114° | 119km/h | 13677m | -27.7m/s | -50.5°C | 3.5% | 152.2hPa | 2.6V | 08:25:35 | 01:49:41 | 00:00:00 | |
| DL1XH-west | 2026-09-05 12:45:45 | 55.85342 | 5.36690 | 115° | 115km/h | 13567m | -27m/s | -51°C | 0.4% | 154.8hPa | 2.5V | 08:25:37 | 01:49:45 | 00:00:00 | |
| BIOWL1-15 | 2026-09-05 12:45:43 | 55.85366 | 5.36594 | 114° | 117km/h | 13622m | -28.1m/s | -50.5°C | 0.2% | 153.5hPa | 2.6V | 08:25:37 | 01:49:43 | 00:00:00 | |
| GOEST3-10 | 2026-09-05 12:45:39 | 55.85416 | 5.36403 | 116° | 113km/h | 13733m | -28.1m/s | -50.2°C | 3.5% | 150.9hPa | 2.5V | 00:00:00 | 01:49:39 | 00:00:00 | |
| DM0DOS-11 | 2026-09-05 12:45:36 | 55.85519 | 5.36052 | 118° | 108km/h | 13958m | -28.4m/s | -49.8°C | 3.4% | 145.9hPa | 2.5V | 08:25:45 | 01:49:31 | 00:00:00 | |
| DL1XH-west | 2026-09-05 12:45:35 | 55.85480 | 5.36180 | 117° | 108km/h | 13872m | -29.3m/s | -49.9°C | 0.2% | 147.8hPa | 2.6V | 08:26:28 | 01:49:34 | 00:00:00 | |
| BIOWL1-15 | 2026-09-05 12:45:35 | 55.85506 | 5.36094 | 118° | 108km/h | 13930m | -28.7m/s | -49.8°C | 0.2% | 146.5hPa | 2.5V | 08:26:28 | 01:49:32 | 00:00:00 | |
| GOEST3-10 | 2026-09-05 12:45:34 | 55.85480 | 5.36180 | 117° | 108km/h | 13872m | -29.3m/s | -49.9°C | 3.4% | 147.8hPa | 2.5V | 00:00:00 | 00:00:00 | 00:00:00 | |
| BIOWL9-15 | 2026-09-05 12:45:29 | 55.85557 | 5.35925 | 118° | 106km/h | 14040m | -26.2m/s | -50.5°C | 1.2% | 144.0hPa | 2.5V | 00:00:00 | 00:00:00 | 00:00:00 | |
| GOEST3-10 | 2026-09-05 12:45:27 | 55.85570 | 5.35882 | 117° | 108km/h | 14066m | -25.0m/s | -50.7°C | 3.7% | 143.4hPa | 2.5V | 00:00:00 | 01:49:27 | 00:00:00 | |
| DM0DOS-11 | 2026-09-05 12:45:26 | 55.85637 | 5.35617 | 111° | 108km/h | 14223m | -28.5m/s | -50.7°C | 3.5% | 140hPa | 2.5V | 08:25:55 | 01:49:21 | 00:00:00 | |
| DL1XH-west | 2026-09-05 12:45:24 | 55.85616 | 5.35707 | 112° | 110km/h | 14167m | -26.6m/s | -51°C | 0.4% | 141.2hPa | 2.6V | 08:26:28 | 01:49:23 | 00:00:00 | |
| BIOWL1-15 | 2026-09-05 12:45:21 | 55.85637 | 5.35617 | 112° | 108km/h | 14223m | -28.5m/s | -50.7°C | 0.3% | 140hPa | 2.5V | 08:26:28 | 01:49:21 | 00:00:00 | |
| GOEST3-10 | 2026-09-05 12:45:21 | 55.85637 | 5.35617 | 112° | 110km/h | 14223m | -28.5m/s | -50.6°C | 3.5% | 140.0hPa | 2.5V | 00:00:00 | 00:00:00 | 00:00:00 | |
| DM0DOS-11 | 2026-09-05 12:45:17 | 55.85754 | 5.35191 | 119° | 97km/h | 14514m | -29.2m/s | -49.8°C | 3.3% | 133.9hPa | 2.6V | 08:26:05 | 01:49:11 | 00:00:00 | |
| DL1XH-west | 2026-09-05 12:45:12 | 55.85741 | 5.35229 | 120° | 99km/h | 14485m | -29.8m/s | -49.7°C | 0.2% | 134.5hPa | 2.6V | 08:26:28 | 01:49:12 | 00:00:00 | |
| BIOWL1-15 | 2026-09-05 12:45:10 | 55.85830 | 5.34931 | 115° | 91km/h | 14718m | -29.5m/s | -50.7°C | 0.3% | 129.8hPa | 2.5V | 08:26:28 | 01:49:04 | 00:00:00 | |
| DM0DOS-11 | 2026-09-05 12:45:06 | 55.85867 | 5.34780 | 112° | 93km/h | 14834m | -29.1m/s | -50.4°C | 3.4% | 127.4hPa | 2.5V | 08:26:16 | 01:49:00 | 00:00:00 | |
| DL1XH-west | 2026-09-05 12:45:01 | 55.85858 | 5.34818 | 114° | 91km/h | 14805m | -29.1m/s | -50.5°C | 0.1% | 128hPa | 2.6V | 08:26:28 | 01:49:01 | 00:00:00 | |
| DL1XH-15 | 2026-09-05 12:45:01 | 55.85902 | 5.34624 | 111° | 93km/h | 14953m | -31.3m/s | -50°C | 3.2% | 125.1hPa | 2.6V | 08:26:20 | 01:48:56 | 00:00:00 | |
| BIOWL1-15 | 2026-09-05 12:44:58 | 55.85902 | 5.34624 | 112° | 93km/h | 14953m | -31.3m/s | -50°C | 0% | 125.1hPa | 2.6V | 08:26:28 | 01:48:56 | 00:00:00 | |
| DL1XH-west | 2026-09-05 12:44:51 | 55.85946 | 5.34438 | 116° | 86km/h | 15106m | -31m/s | -50.5°C | 0% | 122.2hPa | 2.6V | 08:26:28 | 01:48:51 | 00:00:00 | |
| DL1XH-15 | 2026-09-05 12:44:50 | 55.85995 | 5.34263 | 117° | 88km/h | 15255m | -30.2m/s | -51°C | 3.5% | 119.5hPa | 2.6V | 08:26:30 | 01:48:46 | 00:00:00 | |
| BIOWL1-15 | 2026-09-05 12:44:48 | 55.85975 | 5.34333 | 117° | 88km/h | 15195m | -29.7m/s | -50.8°C | 0.1% | 120.6hPa | 2.5V | 08:26:28 | 01:48:48 | 00:00:00 | |
| DL1XH-west | 2026-09-05 12:44:41 | 55.86042 | 5.34105 | 117° | 71km/h | 15403m | -30.6m/s | -51.4°C | 0.2% | 116.8hPa | 2.6V | 08:27:19 | 01:48:41 | 00:00:00 | |
| DL1XH-15 | 2026-09-05 12:44:40 | 55.86082 | 5.33970 | 114° | 64km/h | 15545m | -28.9m/s | -52.1°C | 3.9% | 114.2hPa | 2.6V | 08:26:40 | 01:48:36 | 00:00:00 | |
| BIOWL1-15 | 2026-09-05 12:44:37 | 55.86089 | 5.33944 | 114° | 66km/h | 15574m | -29.3m/s | -52.3°C | 0.4% | 113.7hPa | 2.6V | 08:27:19 | 01:48:35 | 00:00:00 | |
| DM0DOS-11 | 2026-09-05 12:44:34 | 55.86122 | 5.33833 | 121° | 73km/h | 15690m | -29.1m/s | -52°C | 3.9% | 111.7hPa | 2.5V | 08:26:45 | 01:48:31 | 00:00:00 | |
| DL1XH-west | 2026-09-05 12:44:30 | 55.86142 | 5.33776 | 125° | 77km/h | 15747m | -28.4m/s | -52.2°C | 0.5% | 110.7hPa | 2.6V | 08:27:19 | 01:48:29 | 00:00:00 | |
| BIOWL1-15 | 2026-09-05 12:44:25 | 55.86187 | 5.33667 | 128° | 73km/h | 15863m | -29.9m/s | -50.3°C | 0.1% | 108.8hPa | 2.6V | 08:27:19 | 01:48:25 | 00:00:00 | |
| GOEST3-10 | 2026-09-05 12:44:24 | 55.86198 | 5.33642 | 130° | 66km/h | 15894m | -30.9m/s | -50.2°C | 3.5% | 108.2hPa | 2.6V | 00:00:00 | 01:48:24 | 00:00:00 | |
| DM0DOS-11 | 2026-09-05 12:44:23 | 55.86230 | 5.33571 | 128° | 64km/h | 15992m | -34m/s | -50.3°C | 3.5% | 106.6hPa | 2.6V | 08:26:55 | 01:48:21 | 00:00:00 | |
| DL1XH-15 | 2026-09-05 12:44:19 | 55.86283 | 5.33409 | 113° | 58km/h | 16221m | -31.7m/s | -51°C | 3.8% | 102.9hPa | 2.6V | 08:27:02 | 01:48:14 | 00:00:00 | |
| DL1XH-west | 2026-09-05 12:44:18 | 55.86256 | 5.33503 | 122° | 58km/h | 16092m | -33.5m/s | -51°C | 0.4% | 105hPa | 2.5V | 08:27:19 | 01:48:18 | 00:00:00 | |
| BIOWL1-15 | 2026-09-05 12:44:14 | 55.86293 | 5.33360 | 111° | 58km/h | 16286m | -32.6m/s | -50.4°C | 0.3% | 101.9hPa | 2.5V | 08:27:19 | 01:48:12 | 00:00:00 | |
| GOEST3-10 | 2026-09-05 12:44:14 | 55.86283 | 5.33409 | 114° | 58km/h | 16222m | -31.7m/s | -50.9°C | 3.8% | 102.9hPa | 2.5V | 00:00:00 | 01:48:14 | 00:00:00 | |
| DM0DOS-11 | 2026-09-05 12:44:13 | 55.86299 | 5.33335 | 110° | 57km/h | 16318m | -32.6m/s | -50°C | 3.5% | 101.4hPa | 2.5V | 08:27:05 | 01:48:11 | 00:00:00 | |
| DL1XH-15 | 2026-09-05 12:44:09 | 55.86336 | 5.33175 | 110° | 51km/h | 16550m | -34.4m/s | -49.4°C | 3.3% | 97.8hPa | 2.6V | 08:27:12 | 01:48:04 | 00:00:00 | |
| DL1XH-west | 2026-09-05 12:44:08 | 55.86315 | 5.33264 | 113° | 57km/h | 16416m | -33m/s | -49.6°C | 0.1% | 99.9hPa | 2.6V | 08:27:19 | 01:48:08 | 00:00:00 | |
| DJ2DS-15 | 2026-09-05 12:44:04 | 55.86336 | 5.33175 | 111° | 55km/h | 16550m | -34.4m/s | -49.4°C | 3.3% | 97.8hPa | 2.6V | 00:00:00 | 01:48:04 | 00:00:00 | |
| DM0DOS-11 | 2026-09-05 12:44:03 | 55.86348 | 5.33108 | 105° | 53km/h | 16651m | -33.1m/s | -49.1°C | 3.2% | 96.3hPa | 2.5V | 08:27:15 | 01:48:01 | 00:00:00 | |
| DL1XH-15 | 2026-09-05 12:43:59 | 55.86365 | 5.32942 | 91° | 51km/h | 16886m | -34.4m/s | -47.9°C | 3% | 93hPa | 2.5V | 08:27:22 | 01:47:54 | 00:00:00 | |
| DL1XH-west | 2026-09-05 12:43:58 | 55.86361 | 5.33012 | 101° | 55km/h | 16785m | -33.6m/s | -49.2°C | 0% | 94.4hPa | 2.6V | 08:27:19 | 01:47:57 | 00:00:00 | |
| BIOWL9-15 | 2026-09-05 12:43:55 | 55.86364 | 5.32966 | 94° | 51km/h | 16852m | -34.2m/s | -48.0°C | 0.9% | 93.4hPa | 2.6V | 00:00:00 | 00:00:00 | 00:00:00 | |
| GOEST3-10 | 2026-09-05 12:43:54 | 55.86365 | 5.32942 | 92° | 53km/h | 16887m | -34.4m/s | -47.9°C | 3.0% | 92.9hPa | 2.6V | 00:00:00 | 01:47:54 | 00:00:00 | |
| DM0DOS-11 | 2026-09-05 12:43:52 | 55.86364 | 5.32870 | 86° | 55km/h | 16990m | -35.2m/s | -47.6°C | 2.8% | 91.5hPa | 2.6V | 08:27:25 | 01:47:51 | 00:00:00 | |
| BIOWL1-15 | 2026-09-05 12:43:52 | 55.86363 | 5.32845 | 88° | 55km/h | 17025m | -36m/s | -47.8°C | 0% | 91hPa | 2.6V | 08:28:10 | 01:47:50 | 00:00:00 | |
| DL1XH-15 | 2026-09-05 12:43:49 | 55.86367 | 5.32689 | 95° | 58km/h | 17238m | -34.8m/s | -48.7°C | 3.1% | 88hPa | 2.6V | 08:27:32 | 01:47:44 | 00:00:00 | |
| DL1XH-west | 2026-09-05 12:43:47 | 55.86363 | 5.32768 | 94° | 58km/h | 17132m | -36.1m/s | -48.2°C | 0% | 89.5hPa | 2.5V | 08:28:10 | 01:47:47 | 00:00:00 | |
| GOEST3-10 | 2026-09-05 12:43:44 | 55.86367 | 5.32689 | 96° | 57km/h | 17238m | -34.8m/s | -48.7°C | 3.1% | 88.0hPa | 2.5V | 00:00:00 | 01:47:44 | 00:00:00 | |
| DM0DOS-11 | 2026-09-05 12:43:42 | 55.86370 | 5.32611 | 93° | 57km/h | 17343m | -36.3m/s | -49.5°C | 3.3% | 86.7hPa | 2.5V | 08:27:35 | 01:47:41 | 00:00:00 | |
| BIOWL1-15 | 2026-09-05 12:43:42 | 55.86371 | 5.32586 | 91° | 55km/h | 17379m | -36.2m/s | -49°C | 0% | 86.2hPa | 2.5V | 08:28:10 | 01:47:40 | 00:00:00 | |
| DL1XH-15 | 2026-09-05 12:43:39 | 55.86369 | 5.32447 | 87° | 51km/h | 17598m | -36m/s | -50°C | 3.4% | 83.4hPa | 2.6V | 08:27:42 | 01:47:34 | 00:00:00 | |
| DL1XH-west | 2026-09-05 12:43:37 | 55.86371 | 5.32515 | 87° | 51km/h | 17489m | -36.8m/s | -49.4°C | 0% | 84.8hPa | 2.6V | 08:28:10 | 01:47:37 | 00:00:00 | |
| GOEST3-10 | 2026-09-05 12:43:34 | 55.86369 | 5.32447 | 88° | 49km/h | 17598m | -36.0m/s | -49.9°C | 3.4% | 83.3hPa | 2.6V | 08:27:00 | 01:47:34 | 00:00:00 | |
| DM0DOS-11 | 2026-09-05 12:43:32 | 55.86368 | 5.32379 | 87° | 47km/h | 17705m | -35.4m/s | -50.1°C | 3.6% | 82hPa | 2.5V | 08:27:45 | 01:47:31 | 00:00:00 | |
| BIOWL1-15 | 2026-09-05 12:43:29 | 55.86369 | 5.32336 | 95° | 47km/h | 17776m | -35.9m/s | -49.1°C | 0% | 81.1hPa | 2.5V | 08:28:10 | 01:47:29 | 00:00:00 | |
| DL1XH-15 | 2026-09-05 12:43:29 | 55.86379 | 5.32230 | 101° | 49km/h | 17951m | -35.9m/s | -49.6°C | 3.4% | 78.9hPa | 2.5V | 08:27:52 | 01:47:24 | 00:00:00 | |
| DL1XH-west | 2026-09-05 12:43:27 | 55.86374 | 5.32273 | 101° | 47km/h | 17880m | -35m/s | -49.4°C | 0.1% | 79.8hPa | 2.6V | 08:28:10 | 01:47:26 | 00:00:00 | |
| BIOWL1-15 | 2026-09-05 12:43:19 | 55.86394 | 5.32130 | 103° | 46km/h | 18138m | -39.3m/s | -48.3°C | 0% | 76.7hPa | 2.6V | 08:28:10 | 01:47:19 | 00:00:00 | |
| DL1XH-west | 2026-09-05 12:43:16 | 55.86402 | 5.32068 | 106° | 49km/h | 18255m | -38.6m/s | -48.7°C | 0% | 75.3hPa | 2.5V | 08:28:10 | 01:47:16 | 00:00:00 | |
| BIOWL1-15 | 2026-09-05 12:43:11 | 55.86428 | 5.31926 | 106° | 46km/h | 18534m | -40.2m/s | -48.7°C | 0% | 72.2hPa | 2.5V | 08:28:10 | 01:47:09 | 00:00:00 | |
| DL1XH-15 | 2026-09-05 12:43:09 | 55.86441 | 5.31829 | 97° | 42km/h | 18732m | -41.2m/s | -49.8°C | 3.3% | 70.1hPa | 2.5V | 08:28:12 | 01:47:04 | 00:00:00 | |
| GOEST3-10 | 2026-09-05 12:43:08 | 55.86431 | 5.31906 | 104° | 44km/h | 18574m | -39.9m/s | -49.0°C | 3.1% | 71.7hPa | 2.6V | 00:00:00 | 00:00:00 | 00:00:00 | |
| DM0DOS-11 | 2026-09-05 12:43:06 | 55.86443 | 5.31773 | 91° | 40km/h | 18853m | -39.5m/s | -49.9°C | 3.4% | 68.8hPa | 2.6V | 08:28:15 | 01:47:01 | 00:00:00 | |
| DL1XH-west | 2026-09-05 12:43:05 | 55.86439 | 5.31848 | 101° | 44km/h | 18692m | -40m/s | -49.9°C | 0.2% | 70.5hPa | 2.5V | 08:29:01 | 01:47:05 | 00:00:00 | |
| BIOWL1-15 | 2026-09-05 12:42:58 | 55.86443 | 5.31718 | 87° | 40km/h | 18974m | -41.2m/s | -50.1°C | 0.1% | 67.5hPa | 2.5V | 08:29:01 | 01:46:58 | 00:00:00 | |
| DL1XH-15 | 2026-09-05 12:42:56 | 55.86440 | 5.31645 | 86° | 40km/h | 19136m | -40.1m/s | -51°C | 3.5% | 65.8hPa | 2.5V | 08:28:22 | 01:46:54 | 00:00:00 | |
| DL1XH-west | 2026-09-05 12:42:55 | 55.86441 | 5.31663 | 90° | 40km/h | 19095m | -40.4m/s | -50.7°C | 0.2% | 66.2hPa | 2.6V | 08:29:01 | 01:46:55 | 00:00:00 | |
| GOEST3-10 | 2026-09-05 12:42:53 | 55.86440 | 5.31627 | 91° | 40km/h | 19176m | -41.0m/s | -51.2°C | 3.6% | 65.4hPa | 2.6V | 00:00:00 | 01:46:53 | 00:00:00 | |
| DL1XH-15 | 2026-09-05 12:42:49 | 55.86439 | 5.31473 | 78° | 35km/h | 19530m | -42.3m/s | -48°C | 2.9% | 61.9hPa | 2.6V | 08:28:32 | 01:46:44 | 00:00:00 | |
| BIOWL1-15 | 2026-09-05 12:42:49 | 55.86441 | 5.31520 | 89° | 37km/h | 19411m | -39.2m/s | -51.1°C | 0.5% | 63.1hPa | 2.5V | 08:29:01 | 01:46:47 | 00:00:00 | |
| DL1XH-west | 2026-09-05 12:42:45 | 55.86439 | 5.31473 | 79° | 35km/h | 19530m | -42.3m/s | -48°C | 0% | 61.9hPa | 2.6V | 08:29:01 | 01:46:44 | 00:00:00 | |
| BIOWL1-15 | 2026-09-05 12:42:38 | 55.86428 | 5.31361 | 94° | 26km/h | 19883m | -44.9m/s | -49.4°C | 0% | 58.7hPa | 2.5V | 08:29:01 | 01:46:36 | 00:00:00 | |
| GOEST3-10 | 2026-09-05 12:42:38 | 55.86428 | 5.31386 | 87° | 26km/h | 19795m | -43.9m/s | -48.9°C | 3.0% | 59.4hPa | 2.6V | 00:00:00 | 00:00:00 | 00:00:00 | |
| DL1XH-15 | 2026-09-05 12:42:36 | 55.86428 | 5.31339 | 92° | 22km/h | 19971m | -44.2m/s | -49.5°C | 3.1% | 57.9hPa | 2.6V | 08:28:42 | 01:46:34 | 00:00:00 | |
| DL1XH-west | 2026-09-05 12:42:35 | 55.86428 | 5.31350 | 92° | 24km/h | 19928m | -44.5m/s | -49.5°C | 0% | 58.3hPa | 2.6V | 08:29:01 | 01:46:35 | 00:00:00 | |
| GOEST3-10 | 2026-09-05 12:42:33 | 55.86429 | 5.31330 | 97° | 16km/h | 20015m | -43.8m/s | -49.4°C | 3.1% | 57.4hPa | 2.6V | 00:00:00 | 01:46:33 | 00:00:00 | |
| DL1XH-15 | 2026-09-05 12:42:29 | 55.86421 | 5.31267 | 53° | 20km/h | 20407m | -45.9m/s | -50.6°C | 3.4% | 54.1hPa | 2.6V | 08:28:52 | 01:46:24 | 00:00:00 | |
| BIOWL1-15 | 2026-09-05 12:42:27 | 55.86424 | 5.31275 | 53° | 20km/h | 20362m | -45.5m/s | -50.5°C | 0.1% | 54.5hPa | 2.5V | 08:29:01 | 01:46:25 | 00:00:00 | |
| DM0DOS-11 | 2026-09-05 12:42:26 | 55.86410 | 5.31233 | 62° | 24km/h | 20592m | -46.2m/s | -51.1°C | 3.5% | 52.6hPa | 2.5V | 08:28:56 | 01:46:20 | 00:00:00 | |
| DL1XH-west | 2026-09-05 12:42:24 | 55.86421 | 5.31267 | 53° | 20km/h | 20408m | -45.9m/s | -50.6°C | 0.1% | 54.1hPa | 2.6V | 08:29:01 | 01:46:24 | 00:00:00 | |
| GOEST3-10 | 2026-09-05 12:42:24 | 55.86418 | 5.31260 | 57° | 22km/h | 20453m | -46.4m/s | -50.6°C | 3.4% | 53.7hPa | 2.6V | 00:00:00 | 01:46:23 | 00:00:00 | |
| DF5WG-10 | 2026-09-05 12:42:23 | 55.86418 | 5.31260 | 57° | 26km/h | 20453m | -46.4m/s | -50.6°C | 3.4% | 53.7hPa | 2.6V | 00:00:00 | 01:46:23 | 00:00:00 | |
| BIOWL9-15 | 2026-09-05 12:42:22 | 55.86415 | 5.31252 | 58° | 20km/h | 20499m | -46.4m/s | -50.8°C | 0.9% | 53.3hPa | 2.6V | 00:00:00 | 00:00:00 | 00:00:00 | |
| GOEST3-10 | 2026-09-05 12:42:18 | 55.86404 | 5.31213 | 68° | 26km/h | 20684m | -45.9m/s | -51.5°C | 3.7% | 51.8hPa | 2.6V | 00:00:00 | 00:00:00 | 00:00:00 | |
| DL1XH-15 | 2026-09-05 12:42:16 | 55.86398 | 5.31166 | 86° | 26km/h | 20864m | -44.8m/s | -51.9°C | 3.8% | 50.4hPa | 2.5V | 08:29:02 | 01:46:14 | 00:00:00 | |
| BIOWL1-15 | 2026-09-05 12:42:14 | 55.86398 | 5.31142 | 97° | 26km/h | 20951m | -44.2m/s | -52°C | 0.4% | 49.8hPa | 2.6V | 08:29:52 | 01:46:12 | 00:00:00 | |
| DL1XH-west | 2026-09-05 12:42:14 | 55.86398 | 5.31166 | 86° | 26km/h | 20864m | -44.8m/s | -51.9°C | 0.4% | 50.4hPa | 2.5V | 08:29:52 | 01:46:14 | 00:00:00 | |
| GOEST3-10 | 2026-09-05 12:42:13 | 55.86398 | 5.31154 | 91° | 27km/h | 20908m | -44.0m/s | -51.9°C | 3.8% | 50.0hPa | 2.5V | 00:00:00 | 01:46:13 | 00:00:00 | |
| DF5WG-10 | 2026-09-05 12:42:12 | 55.86398 | 5.31142 | 98° | 27km/h | 20951m | -44.2m/s | -51.9°C | 3.9% | 49.7hPa | 2.5V | 00:00:00 | 01:46:12 | 00:00:00 | |
| DM0DOS-11 | 2026-09-05 12:42:11 | 55.86401 | 5.31118 | 98° | 27km/h | 21040m | -45.3m/s | -52.2°C | 4% | 49.1hPa | 2.5V | 08:30:00 | 01:46:10 | 00:00:00 | |
| DL1XH-15 | 2026-09-05 12:42:09 | 55.86408 | 5.31044 | 99° | 26km/h | 21317m | -46.5m/s | -51.4°C | 3.7% | 47hPa | 2.6V | 08:29:12 | 01:46:04 | 00:00:00 | |
| GOEST3-10 | 2026-09-05 12:42:08 | 55.86403 | 5.31093 | 104° | 27km/h | 21131m | -46.6m/s | -51.9°C | 3.9% | 48.3hPa | 2.6V | 00:00:00 | 00:00:00 | 00:00:00 | |
| DJ2DS-15 | 2026-09-05 12:42:06 | 55.86406 | 5.31068 | 101° | 26km/h | 21224m | -47.3m/s | -51.3°C | 0.9% | 47.7hPa | 2.6V | 00:00:00 | 00:00:00 | 00:00:00 | |
| DM0DOS-11 | 2026-09-05 12:42:05 | 55.86409 | 5.31002 | 81° | 22km/h | 21502m | -46.6m/s | -51.3°C | 3.7% | 45.6hPa | 2.6V | 08:30:00 | 01:46:00 | 00:00:00 | |
| DL1XH-west | 2026-09-05 12:42:03 | 55.86409 | 5.31033 | 96° | 24km/h | 21364m | -46.2m/s | -51.6°C | 0.4% | 46.7hPa | 2.5V | 08:29:52 | 01:46:03 | 00:00:00 | |
| BIOWL1-15 | 2026-09-05 12:42:01 | 55.86404 | 5.30930 | 95° | 27km/h | 21832m | -48.2m/s | -50.9°C | 0.3% | 43.4hPa | 2.6V | 08:29:52 | 01:45:53 | 00:00:00 | |
| DL1XH-15 | 2026-09-05 12:41:59 | 55.86404 | 5.30942 | 88° | 26km/h | 21784m | -48.1m/s | -51.2°C | 3.8% | 43.7hPa | 2.6V | 08:29:22 | 01:45:54 | 00:00:00 | |
| GOEST3-10 | 2026-09-05 12:41:58 | 55.86407 | 5.30982 | 74° | 22km/h | 21594m | -46.4m/s | -50.8°C | 3.6% | 45.0hPa | 2.6V | 00:00:00 | 00:00:00 | 00:00:00 | |
| DF5WG-10 | 2026-09-05 12:41:55 | 55.86404 | 5.30953 | 85° | 26km/h | 21737m | -48.5m/s | -51.4°C | 3.8% | 44.0hPa | 2.6V | 00:00:00 | 01:45:55 | 00:00:00 | |
| DM0DOS-11 | 2026-09-05 12:41:54 | 55.86408 | 5.30893 | 108° | 27km/h | 21973m | -46.6m/s | -50.6°C | 3.6% | 42.5hPa | 2.5V | 08:30:00 | 01:45:50 | 00:00:00 | |
| DL1XH-west | 2026-09-05 12:41:52 | 55.86405 | 5.30918 | 100° | 27km/h | 21880m | -47.3m/s | -50.4°C | 0.2% | 43.1hPa | 2.5V | 08:29:52 | 01:45:52 | 00:00:00 | |
| BIOWL1-15 | 2026-09-05 12:41:50 | 55.86419 | 5.30851 | 120° | 24km/h | 22159m | -48.4m/s | -50.7°C | 0.3% | 41.2hPa | 2.5V | 08:29:52 | 01:45:46 | 00:00:00 | |
| DL1XH-15 | 2026-09-05 12:41:49 | 55.86424 | 5.30834 | 117° | 18km/h | 22254m | -47.6m/s | -50°C | 3.4% | 40.6hPa | 2.6V | 08:29:32 | 01:45:44 | 00:00:00 | |
| GOEST3-10 | 2026-09-05 12:41:48 | 55.86413 | 5.30870 | 118° | 22km/h | 22065m | -46.3m/s | -50.6°C | 3.6% | 41.8hPa | 2.6V | 00:00:00 | 00:00:00 | 00:00:00 | |
| DM0DOS-11 | 2026-09-05 12:41:46 | 55.86433 | 5.30805 | 119° | 20km/h | 22453m | -51.2m/s | -50.1°C | 3.4% | 39.4hPa | 2.5V | 08:30:00 | 01:45:40 | 00:00:00 | |
| DL1XH-west | 2026-09-05 12:41:41 | 55.86431 | 5.30812 | 116° | 18km/h | 22402m | -51.2m/s | -50.2°C | 0.1% | 39.7hPa | 2.5V | 08:29:52 | 01:45:41 | 00:00:00 | |
| DL1XH-15 | 2026-09-05 12:41:39 | 55.86456 | 5.30756 | 136° | 24km/h | 22762m | -50.8m/s | -50.1°C | 3.4% | 37.5hPa | 2.5V | 08:29:42 | 01:45:34 | 00:00:00 | |
| BIOWL1-15 | 2026-09-05 12:41:37 | 55.86451 | 5.30763 | 134° | 24km/h | 22711m | -51m/s | -49.9°C | 0.1% | 37.9hPa | 2.5V | 08:29:52 | 01:45:35 | 00:00:00 | |
| DL1XH-west | 2026-09-05 12:41:30 | 55.86472 | 5.30732 | 144° | 18km/h | 22961m | -51.1m/s | -50.3°C | 0.2% | 36.4hPa | 2.5V | 08:29:52 | 01:45:30 | 00:00:00 | |
| BIOWL1-15 | 2026-09-05 12:41:25 | 55.86485 | 5.30722 | 187° | 5km/h | 23215m | -52.5m/s | -49.9°C | 0.1% | 35hPa | 2.6V | 08:29:52 | 01:45:25 | 00:00:00 | |
| DL1XH-west | 2026-09-05 12:41:19 | 55.86489 | 5.30718 | 80° | 9km/h | 23532m | -53.6m/s | -50.4°C | 0.3% | 33.3hPa | 2.6V | 18:12:15 | 01:45:19 | 00:00:00 | |
| GOEST3-10 | 2026-09-05 12:41:18 | 55.86488 | 5.30713 | 96° | 16km/h | 23585m | -53.5m/s | -50.5°C | 3.7% | 33.0hPa | 2.6V | 00:00:00 | 00:00:00 | 08:30:00 | |
| DM0DOS-11 | 2026-09-05 12:41:17 | 55.86498 | 5.30665 | 122° | 22km/h | 23911m | -56.6m/s | -50°C | 3.6% | 31.4hPa | 2.5V | 08:30:00 | 01:45:12 | 00:00:00 | |
| BIOWL1-15 | 2026-09-05 12:41:14 | 55.86493 | 5.30683 | 115° | 22km/h | 23799m | -56.4m/s | -50.5°C | 0.3% | 31.9hPa | 2.6V | 18:12:15 | 01:45:14 | 00:00:00 | |
| DL1XH-west | 2026-09-05 12:41:08 | 55.86512 | 5.30636 | 131° | 18km/h | 24135m | -54.4m/s | -48.8°C | 0% | 30.4hPa | 2.6V | 18:12:15 | 01:45:08 | 00:00:00 | |
| BIOWL1-15 | 2026-09-05 12:41:03 | 55.86522 | 5.30612 | 109° | 9km/h | 24391m | -48m/s | -49.2°C | 0.1% | 29.2hPa | 2.6V | 18:12:15 | 01:45:03 | 00:00:00 | |
| DL1XH-west | 2026-09-05 12:40:58 | 55.86520 | 5.30584 | 83° | 15km/h | 24631m | -46.1m/s | -49°C | 0% | 28.1hPa | 2.6V | 18:12:15 | 01:44:58 | 00:00:00 | |
| GOEST3-10 | 2026-09-05 12:40:58 | 55.86519 | 5.30584 | 83° | 15km/h | 24631m | -46.1m/s | -49.0°C | 3.1% | 28.1hPa | 2.5V | 00:00:00 | 00:00:00 | 00:00:00 | |
| DM0DOS-11 | 2026-09-05 12:40:55 | 55.86519 | 5.30556 | 101° | 15km/h | 24808m | -44.2m/s | -48.9°C | 3.1% | 27.3hPa | 2.5V | 08:30:00 | 01:44:54 | 00:00:00 | |
| BIOWL1-15 | 2026-09-05 12:40:52 | 55.86521 | 5.30544 | 112° | 15km/h | 24888m | -35.4m/s | -48.9°C | 0% | 27hPa | 2.6V | 18:12:15 | 01:44:52 | 00:00:00 | |
| DL1XH-west | 2026-09-05 12:40:48 | 55.86527 | 5.30517 | 104° | 20km/h | 24995m | -17.4m/s | -48.7°C | 0% | 26.5hPa | 2.6V | 18:12:15 | 01:44:48 | 00:00:00 | |
| DM0DOS-11 | 2026-09-05 12:40:45 | 55.86533 | 5.30479 | 109° | 24km/h | 25008m | 4.5m/s | -48.7°C | 3.2% | 26.5hPa | 2.6V | 08:30:00 | 01:44:44 | 00:00:00 | |
| DL1XH-west | 2026-09-05 12:40:37 | 55.86544 | 5.30413 | 98° | 20km/h | 24972m | 5.8m/s | -48.8°C | 0% | 26.6hPa | 2.6V | 18:12:15 | 01:44:37 | 00:00:00 | |
| GOEST3-10 | 2026-09-05 12:40:37 | 55.86544 | 5.30413 | 99° | 20km/h | 24973m | 5.8m/s | -48.7°C | 3.2% | 26.6hPa | 2.6V | 00:00:00 | 00:00:00 | 00:00:00 | |
| DL1XH-15 | 2026-09-05 12:40:36 | 55.86546 | 5.30387 | 94° | 20km/h | 24957m | 5.7m/s | -48.8°C | 3.2% | 26.7hPa | 2.6V | 08:30:00 | 01:44:34 | 00:00:00 | |
| BIOWL1-15 | 2026-09-05 12:40:33 | 55.86547 | 5.30359 | 100° | 20km/h | 24942m | 5.6m/s | -48.9°C | 0% | 26.8hPa | 2.6V | 18:12:15 | 01:44:31 | 00:00:00 | |
| DF5WG-10 | 2026-09-05 12:40:32 | 55.86546 | 5.30368 | 96° | 24km/h | 24948m | 4.2m/s | -48.8°C | 3.2% | 26.7hPa | 2.7V | 00:00:00 | 01:44:32 | 00:00:00 | |
| DL1XH-15 | 2026-09-05 12:40:29 | 55.86562 | 5.30286 | 117° | 27km/h | 24907m | 4.1m/s | -49°C | 3.2% | 26.9hPa | 2.7V | 08:30:00 | 01:44:24 | 00:00:00 | |
| DL1XH-west | 2026-09-05 12:40:27 | 55.86553 | 5.30321 | 110° | 27km/h | 24922m | 4.4m/s | -49.1°C | 0.1% | 26.8hPa | 2.6V | 18:12:15 | 01:44:27 | 00:00:00 | |
| DL1XH-west | 2026-09-05 12:40:16 | 55.86573 | 5.30194 | 93° | 22km/h | 24868m | 4.9m/s | -49.1°C | 0% | 27.1hPa | 2.6V | 18:12:15 | 01:44:16 | 00:00:00 | |
| DL1XH-15 | 2026-09-05 12:40:16 | 55.86574 | 5.30173 | 97° | 27km/h | 24857m | 4.2m/s | -49.2°C | 3.2% | 27.1hPa | 2.6V | 08:30:00 | 01:44:14 | 00:00:00 | |
| GOEST3-10 | 2026-09-05 12:40:12 | 55.86576 | 5.30149 | 101° | 24km/h | 24848m | 5.8m/s | -49.3°C | 3.3% | 27.1hPa | 2.6V | 00:00:00 | 01:44:12 | 00:00:00 | |
| DF5WG-10 | 2026-09-05 12:40:11 | 55.86577 | 5.30138 | 101° | 24km/h | 24843m | 5.1m/s | -49.3°C | 3.2% | 27.1hPa | 2.6V | 00:00:00 | 01:44:11 | 00:00:00 | |
| DL1XH-15 | 2026-09-05 12:40:09 | 55.86574 | 5.30059 | 76° | 24km/h | 24808m | 4.6m/s | -49.5°C | 3.3% | 27.3hPa | 2.6V | 08:30:00 | 01:44:04 | 00:00:00 | |
| BIOWL1-15 | 2026-09-05 12:40:06 | 55.86577 | 5.30082 | 79° | 29km/h | 24819m | 4.8m/s | -49.5°C | 0.1% | 27.3hPa | 2.7V | 18:12:15 | 01:44:06 | 00:00:00 | |
| DM0DOS-11 | 2026-09-05 12:40:06 | 55.86568 | 5.30030 | 64° | 24km/h | 24793m | 4.9m/s | -49.5°C | 3.3% | 27.4hPa | 2.6V | 08:30:00 | 01:44:01 | 00:00:00 | |
| DL1XH-west | 2026-09-05 12:40:05 | 55.86574 | 5.30059 | 76° | 24km/h | 24808m | 4.6m/s | -49.5°C | 0.1% | 27.3hPa | 2.6V | 18:12:15 | 01:44:04 | 00:00:00 | |
| DJ2DS-15 | 2026-09-05 12:40:03 | 55.86572 | 5.30049 | 74° | 20km/h | 24803m | 4.2m/s | -49.5°C | 3.4% | 27.3hPa | 2.6V | 00:00:00 | 01:44:03 | 00:00:00 | |
| GOEST3-10 | 2026-09-05 12:40:02 | 55.86571 | 5.30040 | 69° | 22km/h | 24798m | 5.6m/s | -49.5°C | 3.3% | 27.3hPa | 2.7V | 00:00:00 | 01:44:02 | 00:00:00 | |
| DF5WG-10 | 2026-09-05 12:40:01 | 55.86568 | 5.30030 | 65° | 22km/h | 24793m | 4.8m/s | -49.4°C | 3.3% | 27.3hPa | 2.6V | 00:00:00 | 01:44:01 | 00:00:00 | |
| DL1XH-15 | 2026-09-05 12:39:59 | 55.86550 | 5.29967 | 59° | 24km/h | 24756m | 4.9m/s | -49.6°C | 3.3% | 27.5hPa | 2.6V | 08:30:00 | 01:43:54 | 00:00:00 | |
| BIOWL1-15 | 2026-09-05 12:39:57 | 55.86553 | 5.29976 | 61° | 24km/h | 24762m | 4.9m/s | -49.6°C | 0.1% | 27.5hPa | 2.7V | 18:12:15 | 01:43:55 | 00:00:00 | |
| DL1XH-west | 2026-09-05 12:39:54 | 55.86550 | 5.29967 | 59° | 24km/h | 24756m | 4.9m/s | -49.6°C | 0.1% | 27.5hPa | 2.6V | 18:12:15 | 01:43:54 | 00:00:00 | |
| DM0DOS-11 | 2026-09-05 12:39:53 | 55.86541 | 5.29944 | 49° | 22km/h | 24742m | 5.4m/s | -49.6°C | 3.3% | 27.6hPa | 2.7V | 08:30:00 | 01:43:51 | 00:00:00 | |
| GOEST3-10 | 2026-09-05 12:39:52 | 55.86544 | 5.29951 | 55° | 22km/h | 24747m | 3.8m/s | -49.6°C | 3.3% | 27.5hPa | 2.6V | 00:00:00 | 01:43:52 | 00:00:00 | |
| DF5WG-10 | 2026-09-05 12:39:50 | 55.86537 | 5.29936 | 50° | 16km/h | 24737m | 5.0m/s | -49.6°C | 3.3% | 27.6hPa | 2.6V | 00:00:00 | 01:43:50 | 08:30:00 | |
| DL1XH-15 | 2026-09-05 12:39:49 | 55.86519 | 5.29906 | 43° | 13km/h | 24708m | 5.6m/s | -49.7°C | 3.4% | 27.7hPa | 2.7V | 08:30:00 | 01:43:44 | 00:00:00 | |
| DM0DOS-11 | 2026-09-05 12:39:47 | 55.86512 | 5.29890 | 57° | 15km/h | 24695m | 5.5m/s | -49.7°C | 3.4% | 27.8hPa | 2.6V | 08:30:00 | 01:43:41 | 00:00:00 | |
| BIOWL1-15 | 2026-09-05 12:39:44 | 55.86519 | 5.29906 | 43° | 13km/h | 24708m | 5.6m/s | -49.7°C | 0.1% | 27.8hPa | 2.7V | 18:12:15 | 01:43:44 | 00:00:00 | |
| DL1XH-west | 2026-09-05 12:39:43 | 55.86517 | 5.29901 | 49° | 15km/h | 24703m | 4.3m/s | -49.7°C | 0.2% | 27.7hPa | 2.6V | 18:12:15 | 01:43:43 | 00:00:00 | |
| DJ2DS-15 | 2026-09-05 12:39:43 | 55.86517 | 5.29901 | 50° | 11km/h | 24704m | 4.2m/s | -49.6°C | 3.4% | 27.7hPa | 2.7V | 00:00:00 | 01:43:43 | 00:00:00 | |
| DJ2DS-15 | 2026-09-05 12:39:42 | 55.86512 | 5.29890 | 57° | 13km/h | 24695m | 5.5m/s | -49.7°C | 0.8% | 27.8hPa | 2.7V | 00:00:00 | 00:00:00 | 00:00:00 | |
| DF5WG-10 | 2026-09-05 12:39:40 | 55.86510 | 5.29885 | 62° | 13km/h | 24689m | 4.7m/s | -49.6°C | 3.4% | 27.8hPa | 2.7V | 00:00:00 | 01:43:40 | 00:00:00 | |
| DL1XH-15 | 2026-09-05 12:39:39 | 55.86501 | 5.29853 | 49° | 11km/h | 24660m | 4.6m/s | -49.6°C | 3.4% | 27.9hPa | 2.7V | 08:30:00 | 01:43:34 | 00:00:00 | |
| GOEST3-10 | 2026-09-05 12:39:37 | 55.86506 | 5.29869 | 65° | 13km/h | 24675m | 4.7m/s | -49.6°C | 3.4% | 27.8hPa | 2.6V | 00:00:00 | 00:00:00 | 00:00:00 | |
| DM0DOS-11 | 2026-09-05 12:39:36 | 55.86495 | 5.29845 | 40° | 11km/h | 24646m | 5.3m/s | -49.5°C | 3.3% | 28hPa | 2.6V | 08:30:00 | 01:43:31 | 00:00:00 | |
| BIOWL1-15 | 2026-09-05 12:39:34 | 55.86495 | 5.29845 | 41° | 11km/h | 24646m | 5.3m/s | -49.6°C | 0.1% | 28hPa | 2.6V | 18:12:15 | 01:43:31 | 00:00:00 | |
| DL1XH-west | 2026-09-05 12:39:32 | 55.86497 | 5.29848 | 36° | 9km/h | 24651m | 4.9m/s | -49.6°C | 0.1% | 28hPa | 2.6V | 18:12:15 | 01:43:32 | 00:00:00 | |
| GOEST3-10 | 2026-09-05 12:39:32 | 55.86497 | 5.29848 | 37° | 11km/h | 24651m | 4.8m/s | -49.5°C | 3.3% | 27.9hPa | 2.6V | 00:00:00 | 01:43:32 | 00:00:00 | |
| DF5WG-10 | 2026-09-05 12:39:30 | 55.86492 | 5.29841 | 44° | 7km/h | 24641m | 4.1m/s | -49.5°C | 3.2% | 28.0hPa | 2.6V | 00:00:00 | 01:43:30 | 00:00:00 | |
| GOEST3-10 | 2026-09-05 12:39:27 | 55.86487 | 5.29832 | 57° | 7km/h | 24626m | 4.5m/s | -49.5°C | 3.3% | 28.0hPa | 2.6V | 00:00:00 | 00:00:00 | 00:00:00 | |
| DM0DOS-11 | 2026-09-05 12:39:26 | 55.86485 | 5.29816 | 70° | 4km/h | 24597m | 4.4m/s | -49.6°C | 3.3% | 28.2hPa | 2.6V | 08:30:00 | 01:43:21 | 00:00:00 | |
| BIOWL1-15 | 2026-09-05 12:39:21 | 55.86484 | 5.29816 | 70° | 4km/h | 24597m | 4.4m/s | -49.6°C | 0.1% | 28.2hPa | 2.6V | 18:12:15 | 01:43:21 | 00:00:00 | |
| AA1-15 | 2026-09-05 12:39:20 | 55.86484 | 5.29814 | 80° | 4km/h | 24592m | 4.9m/s | 0°C | 0% | 0hPa | 2.6V | 18:12:15 | 01:43:20 | 00:00:00 | |
| DF5WG-10 | 2026-09-05 12:39:20 | 55.86484 | 5.29814 | 80° | 5km/h | 24593m | 4.8m/s | -49.6°C | 3.4% | 28.2hPa | 2.6V | 00:00:00 | 01:43:20 | 00:00:00 | |
| DL1XH-15 | 2026-09-05 12:39:19 | 55.86484 | 5.29803 | 117° | 4km/h | 24563m | 4.8m/s | -49.9°C | 3.4% | 28.4hPa | 2.6V | 08:30:00 | 01:43:14 | 00:00:00 | |
| GOEST3-10 | 2026-09-05 12:39:17 | 55.86483 | 5.29807 | 87° | 4km/h | 24578m | 5.8m/s | -49.7°C | 3.4% | 28.3hPa | 2.6V | 00:00:00 | 00:00:00 | 00:00:00 | |
| DM0DOS-11 | 2026-09-05 12:39:16 | 55.86486 | 5.29795 | 124° | 9km/h | 24550m | 3.5m/s | -49.9°C | 3.4% | 28.4hPa | 2.6V | 08:30:00 | 01:43:11 | 00:00:00 | |
| BIOWL1-15 | 2026-09-05 12:39:12 | 55.86491 | 5.29793 | 197° | 9km/h | 24535m | 3.8m/s | -49.8°C | 0.1% | 28.5hPa | 2.6V | 18:12:15 | 01:43:08 | 00:00:00 | |
| DL1XH-west | 2026-09-05 12:39:11 | 55.86487 | 5.29793 | 144° | 7km/h | 24545m | 5.8m/s | -49.9°C | 0.1% | 28.5hPa | 2.6V | 18:12:15 | 01:43:10 | 00:00:00 | |
| DL1XH-15 | 2026-09-05 12:39:09 | 55.86502 | 5.29791 | 155° | 13km/h | 24516m | 4.4m/s | -50°C | 3.4% | 28.6hPa | 2.6V | 08:30:00 | 01:43:04 | 00:00:00 | |
| DF5WG-10 | 2026-09-05 12:39:09 | 55.86489 | 5.29792 | 181° | 11km/h | 24540m | 4.4m/s | -49.8°C | 3.3% | 28.4hPa | 2.7V | 00:00:00 | 01:43:09 | 00:00:00 | |
| GOEST3-10 | 2026-09-05 12:39:07 | 55.86493 | 5.29794 | 193° | 11km/h | 24531m | 5.1m/s | -49.8°C | 3.3% | 28.5hPa | 2.7V | 00:00:00 | 00:00:00 | 00:00:00 | |
| DJ2DS-15 | 2026-09-05 12:39:05 | 55.86499 | 5.29793 | 158° | 11km/h | 24521m | 4.5m/s | -49.9°C | 0.8% | 28.6hPa | 2.7V | 00:00:00 | 00:00:00 | 00:00:00 | |
| DM0DOS-11 | 2026-09-05 12:39:04 | 55.86509 | 5.29784 | 138° | 9km/h | 24502m | 4.4m/s | -50.1°C | 3.5% | 28.6hPa | 2.7V | 08:30:00 | 01:43:01 | 00:00:00 | |
| DL1XH-west | 2026-09-05 12:38:59 | 55.86512 | 5.29777 | 118° | 11km/h | 24493m | 3.8m/s | -50.2°C | 0.2% | 28.7hPa | 2.6V | 18:12:15 | 01:42:59 | 00:00:00 | |
| DL1XH-15 | 2026-09-05 12:38:59 | 55.86512 | 5.29768 | 12° | 4km/h | 24469m | 5.8m/s | -50.1°C | 3.4% | 28.8hPa | 2.6V | 08:30:00 | 01:42:54 | 00:00:00 | |
| BIOWL1-15 | 2026-09-05 12:38:58 | 55.86513 | 5.29770 | 104° | 5km/h | 24484m | 5.1m/s | -50.2°C | 0.3% | 28.7hPa | 2.6V | 18:12:15 | 01:42:57 | 00:00:00 | |
| GOEST3-10 | 2026-09-05 12:38:57 | 55.86513 | 5.29769 | 104° | 4km/h | 24484m | 5.1m/s | -50.1°C | 3.5% | 28.7hPa | 2.6V | 00:00:00 | 00:00:00 | 00:00:00 | |
| DM0DOS-11 | 2026-09-05 12:38:53 | 55.86509 | 5.29764 | 57° | 2km/h | 24454m | 5.5m/s | -50°C | 3.4% | 28.9hPa | 2.6V | 08:30:00 | 01:42:51 | 00:00:00 | |
| DL1XH-west | 2026-09-05 12:38:49 | 55.86510 | 5.29762 | 130° | 7km/h | 24445m | 4.1m/s | -50.1°C | 0.2% | 28.9hPa | 2.7V | 18:12:15 | 01:42:49 | 00:00:00 | |
| DL1XH-15 | 2026-09-05 12:38:49 | 55.86523 | 5.29734 | 149° | 18km/h | 24419m | 5.3m/s | -50.1°C | 3.5% | 29hPa | 2.7V | 08:30:00 | 01:42:44 | 00:00:00 | |
| AA1-15 | 2026-09-05 12:38:47 | 55.86513 | 5.29753 | 124° | 16km/h | 24435m | 5m/s | 0°C | 0% | 0hPa | 2.6V | 18:12:15 | 01:42:47 | 00:00:00 | |
| BIOWL1-15 | 2026-09-05 12:38:46 | 55.86516 | 5.29746 | 127° | 20km/h | 24430m | 4.7m/s | -50.1°C | 0.2% | 28.9hPa | 2.6V | 18:12:15 | 01:42:46 | 00:00:00 | |
| DM0DOS-11 | 2026-09-05 12:38:46 | 55.86534 | 5.29727 | 165° | 13km/h | 24404m | 5.1m/s | -50.1°C | 3.4% | 29.1hPa | 2.6V | 08:30:00 | 01:42:41 | 00:00:00 | |
| BIOWL9-15 | 2026-09-05 12:38:45 | 55.86519 | 5.29739 | 135° | 18km/h | 24425m | 5.5m/s | -50.1°C | 0.8% | 29.0hPa | 2.7V | 00:00:00 | 00:00:00 | 00:00:00 | |
| DL1XH-west | 2026-09-05 12:38:39 | 55.86540 | 5.29726 | 182° | 11km/h | 24393m | 5m/s | -50.1°C | 0.2% | 29.1hPa | 2.7V | 18:12:15 | 01:42:39 | 00:00:00 | |
| DF5WG-10 | 2026-09-05 12:38:38 | 55.86543 | 5.29726 | 174° | 22km/h | 24388m | 4.7m/s | -50.0°C | 3.4% | 29.1hPa | 2.6V | 00:00:00 | 01:42:38 | 00:00:00 | |
| GOEST3-10 | 2026-09-05 12:38:37 | 55.86547 | 5.29724 | 159° | 22km/h | 24383m | 5.9m/s | -50.0°C | 3.4% | 29.1hPa | 2.6V | 00:00:00 | 00:00:00 | 00:00:00 | |
| DM0DOS-11 | 2026-09-05 12:38:34 | 55.86575 | 5.29683 | 140° | 27km/h | 24352m | 5.8m/s | -50°C | 3.5% | 29.3hPa | 2.6V | 08:30:00 | 01:42:31 | 00:00:00 | |
| DL1XH-west | 2026-09-05 12:38:29 | 55.86584 | 5.29668 | 138° | 24km/h | 24342m | 4.3m/s | -50°C | 0.2% | 29.3hPa | 2.6V | 18:12:15 | 01:42:29 | 00:00:00 | |
| BIOWL1-15 | 2026-09-05 12:38:23 | 55.86627 | 5.29606 | 132° | 26km/h | 24293m | 4.6m/s | -50°C | 0.2% | 29.6hPa | 2.6V | 18:12:15 | 01:42:19 | 00:00:00 | |
| DM0DOS-11 | 2026-09-05 12:38:23 | 55.86618 | 5.29623 | 134° | 27km/h | 24302m | 5.3m/s | -50°C | 3.4% | 29.6hPa | 2.6V | 08:30:00 | 01:42:21 | 00:00:00 | |
| DJ2DS-15 | 2026-09-05 12:38:23 | 55.86609 | 5.29640 | 134° | 26km/h | 24313m | 4.5m/s | -49.9°C | 3.4% | 29.4hPa | 2.7V | 00:00:00 | 01:42:23 | 00:00:00 | |
| GOEST3-10 | 2026-09-05 12:38:22 | 55.86613 | 5.29632 | 131° | 27km/h | 24308m | 5.0m/s | -50.0°C | 3.4% | 29.5hPa | 2.7V | 00:00:00 | 01:42:22 | 00:00:00 | |
| DL1XH-15 | 2026-09-05 12:38:20 | 55.86647 | 5.29568 | 147° | 22km/h | 24268m | 4.1m/s | -49.9°C | 3.4% | 29.7hPa | 2.7V | 08:30:00 | 01:42:14 | 00:00:00 | |
| DL1XH-west | 2026-09-05 12:38:19 | 55.86631 | 5.29597 | 128° | 26km/h | 24287m | 5.6m/s | -50°C | 0.2% | 29.6hPa | 2.7V | 18:12:15 | 01:42:18 | 00:00:00 | |
| DF5WG-10 | 2026-09-05 12:38:18 | 55.86631 | 5.29597 | 129° | 24km/h | 24288m | 5.6m/s | -49.9°C | 3.4% | 29.6hPa | 2.7V | 00:00:00 | 01:42:18 | 08:30:00 | |
| BIOWL9-15 | 2026-09-05 12:38:14 | 55.86652 | 5.29562 | 145° | 22km/h | 24263m | 5.6m/s | -49.9°C | 0.8% | 29.7hPa | 2.7V | 00:00:00 | 00:00:00 | 00:00:00 | |
| GOEST3-10 | 2026-09-05 12:38:12 | 55.86656 | 5.29556 | 139° | 27km/h | 24258m | 5.1m/s | -49.8°C | 3.5% | 29.7hPa | 2.7V | 00:00:00 | 01:42:12 | 00:00:00 | |
| DL1XH-15 | 2026-09-05 12:38:09 | 55.86697 | 5.29485 | 130° | 29km/h | 24217m | 5.2m/s | -49.8°C | 3.3% | 29.9hPa | 2.7V | 08:30:00 | 01:42:04 | 00:00:00 | |
| BIOWL1-15 | 2026-09-05 12:38:08 | 55.86677 | 5.29523 | 140° | 29km/h | 24237m | 5m/s | -49.8°C | 0.2% | 29.9hPa | 2.6V | 18:12:15 | 01:42:08 | 00:00:00 | |
| DL1XH-west | 2026-09-05 12:38:07 | 55.86683 | 5.29515 | 137° | 29km/h | 24232m | 4.6m/s | -49.8°C | 0.1% | 29.9hPa | 2.6V | 18:12:15 | 01:42:07 | 00:00:00 | |
| BIOWL1-15 | 2026-09-05 12:37:57 | 55.86746 | 5.29407 | 140° | 31km/h | 24171m | 6.2m/s | -49.8°C | 0.1% | 30.1hPa | 2.6V | 18:12:15 | 01:41:55 | 00:00:00 | |
| DL1XH-west | 2026-09-05 12:37:56 | 55.86740 | 5.29416 | 144° | 33km/h | 24176m | 4.5m/s | -49.8°C | 0.1% | 30.1hPa | 2.6V | 18:12:15 | 01:41:56 | 00:00:00 | |
| DL1XH-15 | 2026-09-05 12:37:55 | 55.86752 | 5.29397 | 134° | 33km/h | 24166m | 4.5m/s | -49.8°C | 3.3% | 30.2hPa | 2.6V | 08:30:00 | 01:41:54 | 00:00:00 | |
| DJ2DS-15 | 2026-09-05 12:37:54 | 55.86758 | 5.29386 | 132° | 31km/h | 24161m | 4.2m/s | -49.7°C | 0.8% | 30.2hPa | 2.7V | 00:00:00 | 00:00:00 | 00:00:00 | |
| GOEST3-10 | 2026-09-05 12:37:52 | 55.86763 | 5.29376 | 135° | 33km/h | 24157m | 4.6m/s | -49.7°C | 3.3% | 30.2hPa | 2.7V | 00:00:00 | 01:41:52 | 00:00:00 | |
| DL1XH-15 | 2026-09-05 12:37:49 | 55.86810 | 5.29293 | 132° | 33km/h | 24116m | 4.6m/s | -50.4°C | 3.5% | 30.4hPa | 2.7V | 08:30:00 | 01:41:44 | 00:00:00 | |
| BIOWL1-15 | 2026-09-05 12:37:47 | 55.86805 | 5.29304 | 135° | 35km/h | 24121m | 4.7m/s | -50.3°C | 0.2% | 30.4hPa | 2.6V | 18:12:15 | 01:41:45 | 00:00:00 | |
| DL1XH-west | 2026-09-05 12:37:46 | 55.86810 | 5.29293 | 132° | 33km/h | 24116m | 4.6m/s | -50.4°C | 0.2% | 30.4hPa | 2.7V | 18:12:15 | 01:41:44 | 00:00:00 | |
| DJ2DS-15 | 2026-09-05 12:37:43 | 55.86816 | 5.29282 | 128° | 29km/h | 24112m | 5.8m/s | -50.3°C | 3.5% | 30.4hPa | 2.6V | 00:00:00 | 01:41:43 | 00:00:00 | |
| DM0DOS-11 | 2026-09-05 12:37:42 | 55.86825 | 5.29260 | 126° | 29km/h | 24101m | 4.1m/s | -50.4°C | 3.5% | 30.5hPa | 2.6V | 08:30:00 | 01:41:41 | 00:00:00 | |
| GOEST3-10 | 2026-09-05 12:37:42 | 55.86820 | 5.29271 | 126° | 29km/h | 24106m | 4.4m/s | -50.3°C | 3.5% | 30.4hPa | 2.6V | 00:00:00 | 01:41:42 | 00:00:00 | |
| DL1XH-15 | 2026-09-05 12:37:39 | 55.86861 | 5.29184 | 131° | 27km/h | 24062m | 4.8m/s | -50.1°C | 3.4% | 30.7hPa | 2.6V | 08:30:00 | 01:41:33 | 00:00:00 | |
| BIOWL1-15 | 2026-09-05 12:37:36 | 55.86853 | 5.29202 | 123° | 26km/h | 24072m | 4.6m/s | -50.2°C | 0.2% | 30.6hPa | 2.7V | 18:12:15 | 01:41:35 | 00:00:00 | |
| DL1XH-west | 2026-09-05 12:37:35 | 55.86861 | 5.29184 | 131° | 27km/h | 24062m | 4.8m/s | -50.2°C | 0.2% | 30.7hPa | 2.6V | 18:12:15 | 01:41:33 | 00:00:00 | |
| DM0DOS-11 | 2026-09-05 12:37:32 | 55.86870 | 5.29164 | 127° | 29km/h | 24053m | 5.9m/s | -50.1°C | 3.4% | 30.7hPa | 2.6V | 08:30:00 | 01:41:31 | 00:00:00 | |
| GOEST3-10 | 2026-09-05 12:37:32 | 55.86865 | 5.29174 | 132° | 31km/h | 24058m | 4.4m/s | -50.1°C | 3.4% | 30.7hPa | 2.6V | 00:00:00 | 01:41:32 | 08:30:00 | |
| DL1XH-15 | 2026-09-05 12:37:28 | 55.86904 | 5.29070 | 114° | 27km/h | 24014m | 4.8m/s | -50.2°C | 3.3% | 30.9hPa | 2.7V | 08:30:00 | 01:41:23 | 00:00:00 | |
| BIOWL1-15 | 2026-09-05 12:37:25 | 55.86911 | 5.29042 | 119° | 20km/h | 23998m | 4.8m/s | -50.4°C | 0.1% | 31hPa | 2.6V | 18:12:15 | 01:41:20 | 00:00:00 | |
| DM0DOS-11 | 2026-09-05 12:37:25 | 55.86908 | 5.29050 | 115° | 22km/h | 24003m | 6.1m/s | -50.3°C | 3.3% | 31hPa | 2.6V | 08:30:00 | 01:41:21 | 00:00:00 | |
| DL1XH-west | 2026-09-05 12:37:24 | 55.86904 | 5.29070 | 114° | 27km/h | 24014m | 4.8m/s | -50.2°C | 0% | 30.9hPa | 2.7V | 18:12:15 | 01:41:23 | 00:00:00 | |
| DJ2DS-15 | 2026-09-05 12:37:23 | 55.86903 | 5.29070 | 115° | 26km/h | 24014m | 4.7m/s | -50.1°C | 3.3% | 30.9hPa | 2.7V | 00:00:00 | 01:41:23 | 00:00:00 | |
| GOEST3-10 | 2026-09-05 12:37:22 | 55.86906 | 5.29060 | 111° | 20km/h | 24009m | 4.9m/s | -50.2°C | 3.3% | 30.9hPa | 2.7V | 00:00:00 | 01:41:22 | 00:00:00 | |
| DL1XH-15 | 2026-09-05 12:37:18 | 55.86924 | 5.28973 | 109° | 33km/h | 23961m | 5.6m/s | -51.1°C | 3.5% | 31.1hPa | 2.7V | 08:30:00 | 01:41:13 | 00:00:00 | |
| BIOWL1-15 | 2026-09-05 12:37:14 | 55.86927 | 5.28958 | 108° | 37km/h | 23955m | 5.6m/s | -51.1°C | 0.2% | 31.2hPa | 2.6V | 18:12:15 | 01:41:12 | 00:00:00 | |
| DL1XH-west | 2026-09-05 12:37:13 | 55.86925 | 5.28973 | 109° | 33km/h | 23961m | 5.6m/s | -51.1°C | 0.3% | 31.1hPa | 2.7V | 18:12:15 | 01:41:13 | 00:00:00 | |
| DM0DOS-11 | 2026-09-05 12:37:12 | 55.86930 | 5.28942 | 107° | 38km/h | 23950m | 5.1m/s | -51.1°C | 3.6% | 31.2hPa | 2.6V | 08:30:00 | 01:41:11 | 00:00:00 | |
| BIOWL9-15 | 2026-09-05 12:37:12 | 55.86930 | 5.28942 | 107° | 37km/h | 23950m | 5.1m/s | -51.1°C | 0.9% | 31.2hPa | 2.7V | 00:00:00 | 00:00:00 | 00:00:00 | |
| DL1XH-15 | 2026-09-05 12:37:08 | 55.86939 | 5.28837 | 92° | 26km/h | 23904m | 4.8m/s | -51.5°C | 3.7% | 31.4hPa | 2.7V | 08:30:00 | 01:41:02 | 00:00:00 | |
| DF5WG-10 | 2026-09-05 12:37:08 | 55.86938 | 5.28900 | 108° | 26km/h | 23936m | 4.2m/s | -51.1°C | 3.5% | 31.2hPa | 2.6V | 00:00:00 | 01:41:08 | 00:00:00 | |
| GOEST3-10 | 2026-09-05 12:37:07 | 55.86940 | 5.28889 | 100° | 24km/h | 23930m | 5.5m/s | -51.1°C | 3.5% | 31.2hPa | 2.6V | 00:00:00 | 00:00:00 | 00:00:00 | |
| DM0DOS-11 | 2026-09-05 12:37:04 | 55.86939 | 5.28811 | 89° | 33km/h | 23893m | 5m/s | -51.4°C | 3.7% | 31.5hPa | 2.6V | 08:30:00 | 01:41:00 | 00:00:00 | |
| DL1XH-west | 2026-09-05 12:37:03 | 55.86939 | 5.28825 | 92° | 29km/h | 23898m | 6m/s | -51.5°C | 0.4% | 31.4hPa | 2.6V | 18:12:15 | 01:41:01 | 00:00:00 | |
| BIOWL1-15 | 2026-09-05 12:37:01 | 55.86939 | 5.28811 | 90° | 33km/h | 23893m | 5m/s | -51.4°C | 0.3% | 31.5hPa | 2.6V | 18:12:15 | 01:41:00 | 00:00:00 | |
| DF5WG-10 | 2026-09-05 12:36:58 | 55.86939 | 5.28781 | 92° | 26km/h | 23884m | 5.6m/s | -51.3°C | 3.7% | 31.5hPa | 2.6V | 00:00:00 | 01:40:58 | 00:00:00 | |
| DL1XH-15 | 2026-09-05 12:36:57 | 55.86935 | 5.28710 | 82° | 20km/h | 23853m | 5.3m/s | -51.2°C | 3.6% | 31.7hPa | 2.6V | 08:30:00 | 01:40:52 | 00:00:00 | |
| DL1XH-west | 2026-09-05 12:36:52 | 55.86935 | 5.28710 | 83° | 20km/h | 23853m | 5.3m/s | -51.2°C | 0.3% | 31.7hPa | 2.6V | 18:12:15 | 01:40:52 | 00:00:00 | |
| DM0DOS-11 | 2026-09-05 12:36:52 | 55.86934 | 5.28691 | 82° | 22km/h | 23843m | 5m/s | -51.2°C | 3.6% | 31.7hPa | 2.6V | 08:30:00 | 01:40:50 | 00:00:00 | |
| BIOWL1-15 | 2026-09-05 12:36:51 | 55.86932 | 5.28681 | 79° | 26km/h | 23838m | 5.7m/s | -51.2°C | 0.3% | 31.8hPa | 2.6V | 18:12:15 | 01:40:49 | 00:00:00 | |
| DF5WG-10 | 2026-09-05 12:36:48 | 55.86931 | 5.28669 | 76° | 18km/h | 23833m | 4.1m/s | -51.3°C | 3.6% | 31.7hPa | 2.6V | 00:00:00 | 01:40:48 | 08:30:00 | |
| DL1XH-15 | 2026-09-05 12:36:47 | 55.86924 | 5.28612 | 84° | 18km/h | 23802m | 5.3m/s | -51.4°C | 3.7% | 31.9hPa | 2.6V | 08:30:00 | 01:40:42 | 00:00:00 | |
| GOEST3-10 | 2026-09-05 12:36:47 | 55.86929 | 5.28657 | 73° | 22km/h | 23829m | 4.3m/s | -51.3°C | 3.6% | 31.8hPa | 2.6V | 00:00:00 | 00:00:00 | 08:30:00 | |
| DM0DOS-11 | 2026-09-05 12:36:44 | 55.86923 | 5.28596 | 87° | 16km/h | 23792m | 5.8m/s | -51.5°C | 3.7% | 32hPa | 2.7V | 08:30:00 | 01:40:40 | 00:00:00 | |
| DL1XH-west | 2026-09-05 12:36:42 | 55.86924 | 5.28612 | 85° | 18km/h | 23802m | 5.3m/s | -51.4°C | 0.3% | 31.9hPa | 2.6V | 18:12:15 | 01:40:42 | 00:00:00 | |
| BIOWL1-15 | 2026-09-05 12:36:39 | 55.86923 | 5.28589 | 87° | 15km/h | 23787m | 5m/s | -51.4°C | 0.4% | 32hPa | 2.6V | 18:12:15 | 01:40:39 | 00:00:00 | |
| DL1XH-15 | 2026-09-05 12:36:37 | 55.86916 | 5.28539 | 70° | 13km/h | 23751m | 4.4m/s | -51.2°C | 3.6% | 32.2hPa | 2.6V | 08:30:00 | 01:40:32 | 00:00:00 | |
| DF5WG-10 | 2026-09-05 12:36:37 | 55.86921 | 5.28575 | 78° | 16km/h | 23777m | 5.6m/s | -51.3°C | 3.6% | 32.0hPa | 2.7V | 00:00:00 | 01:40:37 | 00:00:00 | |
| DM0DOS-11 | 2026-09-05 12:36:32 | 55.86912 | 5.28526 | 61° | 18km/h | 23740m | 5m/s | -51.2°C | 3.6% | 32.2hPa | 2.7V | 08:30:00 | 01:40:30 | 00:00:00 | |
| DL1XH-west | 2026-09-05 12:36:32 | 55.86914 | 5.28533 | 64° | 16km/h | 23746m | 6.1m/s | -51.2°C | 0.2% | 32.2hPa | 2.6V | 18:12:15 | 01:40:31 | 00:00:00 | |
| BIOWL1-15 | 2026-09-05 12:36:31 | 55.86910 | 5.28519 | 61° | 18km/h | 23735m | 4.9m/s | -51.2°C | 0.4% | 32.3hPa | 2.7V | 18:12:15 | 01:40:29 | 00:00:00 | |
| DL1XH-15 | 2026-09-05 12:36:27 | 55.86900 | 5.28484 | 80° | 9km/h | 23699m | 6.1m/s | -51.2°C | 3.6% | 32.5hPa | 2.6V | 08:30:00 | 01:40:22 | 00:00:00 | |
| GOEST3-10 | 2026-09-05 12:36:27 | 55.86906 | 5.28506 | 61° | 11km/h | 23725m | 5.0m/s | -51.1°C | 3.6% | 32.3hPa | 2.6V | 00:00:00 | 00:00:00 | 00:00:00 | |
| BIOWL7-15 | 2026-09-05 12:36:24 | 55.86903 | 5.28497 | 63° | 11km/h | 23714m | 6.2m/s | -51.1°C | 0.8% | 32.4hPa | 2.6V | 00:00:00 | 00:00:00 | 00:00:00 | |
| DM0DOS-11 | 2026-09-05 12:36:22 | 55.86900 | 5.28477 | 93° | 7km/h | 23688m | 4.5m/s | -51.4°C | 3.7% | 32.5hPa | 2.6V | 08:30:00 | 01:40:20 | 00:00:00 | |
| DL1XH-west | 2026-09-05 12:36:20 | 55.86900 | 5.28477 | 93° | 7km/h | 23689m | 4.6m/s | -51.4°C | 0.4% | 32.5hPa | 2.6V | 18:12:15 | 01:40:20 | 00:00:00 | |
| BIOWL1-15 | 2026-09-05 12:36:18 | 55.86899 | 5.28469 | 72° | 11km/h | 23678m | 5m/s | -51.4°C | 0.3% | 32.6hPa | 2.7V | 18:12:15 | 01:40:18 | 00:00:00 | |
| DL1XH-15 | 2026-09-05 12:36:17 | 55.86889 | 5.28448 | 27° | 11km/h | 23645m | 4.9m/s | -51.4°C | 3.7% | 32.7hPa | 2.6V | 08:30:00 | 01:40:12 | 00:00:00 | |
| DF5WG-10 | 2026-09-05 12:36:17 | 55.86898 | 5.28464 | 65° | 9km/h | 23673m | 5.0m/s | -51.4°C | 3.7% | 32.5hPa | 2.6V | 00:00:00 | 01:40:17 | 00:00:00 | |
| DM0DOS-11 | 2026-09-05 12:36:12 | 55.86885 | 5.28446 | 345° | 5km/h | 23634m | 4.8m/s | -51.3°C | 3.7% | 32.8hPa | 2.6V | 08:30:00 | 01:40:10 | 00:00:00 | |
| DL1XH-west | 2026-09-05 12:36:09 | 55.86884 | 5.28447 | 327° | 5km/h | 23630m | 4.3m/s | -51.2°C | 0.3% | 32.8hPa | 2.6V | 18:12:15 | 01:40:09 | 00:00:00 | |
| BIOWL1-15 | 2026-09-05 12:36:07 | 55.86881 | 5.28448 | 9° | 5km/h | 23619m | 4.9m/s | -51.2°C | 0.3% | 32.8hPa | 2.6V | 18:12:15 | 01:40:07 | 00:00:00 | |
| DF5WG-10 | 2026-09-05 12:36:07 | 55.86881 | 5.28448 | 9° | 5km/h | 23619m | 4.9m/s | -51.1°C | 3.7% | 32.8hPa | 2.6V | 00:00:00 | 01:40:07 | 00:00:00 | |
| DM0DOS-11 | 2026-09-05 12:36:05 | 55.86874 | 5.28451 | 340° | 5km/h | 23581m | 5.7m/s | -51°C | 3.6% | 33hPa | 2.6V | 08:30:00 | 01:40:00 | 00:00:00 | |
| BIOWL1-15 | 2026-09-05 12:35:59 | 55.86871 | 5.28455 | 337° | 5km/h | 23565m | 5.8m/s | -50.9°C | 0.3% | 33.1hPa | 2.6V | 18:12:15 | 01:39:57 | 00:00:00 | |
| DL1XH-west | 2026-09-05 12:35:58 | 55.86872 | 5.28454 | 312° | 5km/h | 23570m | 4.8m/s | -50.9°C | 0.3% | 33.1hPa | 2.6V | 18:12:15 | 01:39:58 | 00:00:00 | |
| DL1XH-15 | 2026-09-05 12:35:57 | 55.86866 | 5.28460 | 264° | 5km/h | 23539m | 4.5m/s | -50.8°C | 3.5% | 33.2hPa | 2.7V | 08:30:00 | 01:39:52 | 00:00:00 | |
| DF5WG-10 | 2026-09-05 12:35:57 | 55.86871 | 5.28455 | 337° | 5km/h | 23565m | 5.7m/s | -50.8°C | 3.6% | 33.1hPa | 2.6V | 00:00:00 | 01:39:57 | 00:00:00 | |
| GOEST3-10 | 2026-09-05 12:35:52 | 55.86866 | 5.28460 | 265° | 7km/h | 23539m | 4.5m/s | -50.7°C | 3.5% | 33.2hPa | 2.6V | 00:00:00 | 01:39:52 | 00:00:00 | |
| DM0DOS-11 | 2026-09-05 12:35:51 | 55.86866 | 5.28465 | 279° | 7km/h | 23528m | 5.4m/s | -50.8°C | 3.5% | 33.3hPa | 2.6V | 08:30:00 | 01:39:50 | 00:00:00 | |
| DL1XH-west | 2026-09-05 12:35:47 | 55.86865 | 5.28477 | 262° | 11km/h | 23511m | 5.8m/s | -50.7°C | 0.3% | 33.4hPa | 2.6V | 18:12:15 | 01:39:47 | 00:00:00 | |
| BIOWL1-15 | 2026-09-05 12:35:46 | 55.86865 | 5.28482 | 262° | 13km/h | 23506m | 4.8m/s | -50.8°C | 0.3% | 33.4hPa | 2.6V | 18:12:15 | 01:39:46 | 00:00:00 | |
| DM0DOS-11 | 2026-09-05 12:35:45 | 55.86867 | 5.28512 | 244° | 9km/h | 23474m | 4.3m/s | -50.8°C | 3.6% | 33.6hPa | 2.6V | 08:30:00 | 01:39:40 | 00:00:00 | |
| BIOWL1-15 | 2026-09-05 12:35:37 | 55.86869 | 5.28534 | 248° | 15km/h | 23448m | 5.4m/s | -50.8°C | 0.2% | 33.7hPa | 2.6V | 18:12:15 | 01:39:35 | 00:00:00 | |
| DF5WG-10 | 2026-09-05 12:35:37 | 55.86868 | 5.28524 | 271° | 16km/h | 23459m | 4.1m/s | -50.8°C | 3.6% | 33.6hPa | 2.6V | 00:00:00 | 01:39:37 | 00:00:00 | |
| DL1XH-west | 2026-09-05 12:35:37 | 55.86868 | 5.28524 | 270° | 9km/h | 23458m | 4.2m/s | -50.8°C | 0.3% | 33.7hPa | 2.7V | 18:12:15 | 01:39:37 | 00:00:00 | |
| DM0DOS-11 | 2026-09-05 12:35:32 | 55.86878 | 5.28572 | 244° | 20km/h | 23422m | 6m/s | -50.6°C | 3.5% | 33.9hPa | 2.6V | 08:30:00 | 01:39:30 | 00:00:00 | |
| GOEST3-10 | 2026-09-05 12:35:31 | 55.86876 | 5.28564 | 251° | 16km/h | 23427m | 4.3m/s | -50.6°C | 3.5% | 33.8hPa | 2.7V | 00:00:00 | 01:39:31 | 00:00:00 | |
| DJ2DS-15 | 2026-09-05 12:35:29 | 55.86880 | 5.28579 | 236° | 16km/h | 23416m | 4.9m/s | -50.5°C | 0.8% | 33.9hPa | 2.6V | 00:00:00 | 00:00:00 | 00:00:00 | |
| DL1XH-15 | 2026-09-05 12:35:27 | 55.86885 | 5.28601 | 219° | 5km/h | 23381m | 4.4m/s | -50.3°C | 3.4% | 34.1hPa | 2.6V | 08:30:00 | 01:39:22 | 00:00:00 | |
| DL1XH-west | 2026-09-05 12:35:26 | 55.86884 | 5.28593 | 271° | 7km/h | 23401m | 4.9m/s | -50.4°C | 0.2% | 34hPa | 2.7V | 18:12:15 | 01:39:26 | 00:00:00 | |
| BIOWL1-15 | 2026-09-05 12:35:24 | 55.86887 | 5.28605 | 258° | 7km/h | 23370m | 5.6m/s | -50.3°C | 0.1% | 34.1hPa | 2.6V | 18:12:15 | 01:39:20 | 00:00:00 | |
| DJ2DS-15 | 2026-09-05 12:35:23 | 55.86884 | 5.28599 | 233° | 5km/h | 23385m | 4.6m/s | -50.3°C | 3.5% | 34.0hPa | 2.6V | 00:00:00 | 01:39:23 | 00:00:00 | |
| DM0DOS-11 | 2026-09-05 12:35:22 | 55.86887 | 5.28605 | 258° | 5km/h | 23370m | 5.6m/s | -50.3°C | 3.4% | 34.1hPa | 2.6V | 08:30:00 | 01:39:20 | 00:00:00 | |
| GOEST3-10 | 2026-09-05 12:35:21 | 55.86886 | 5.28602 | 237° | 9km/h | 23376m | 5.5m/s | -50.3°C | 3.5% | 34.1hPa | 2.6V | 00:00:00 | 01:39:21 | 00:00:00 | |
| DL1XH-15 | 2026-09-05 12:35:17 | 55.86892 | 5.28635 | 302° | 2km/h | 23329m | 5.8m/s | -50.4°C | 3.5% | 34.3hPa | 2.6V | 08:30:00 | 01:39:12 | 00:00:00 | |
| DL1XH-west | 2026-09-05 12:35:16 | 55.86891 | 5.28621 | 238° | 13km/h | 23350m | 4.8m/s | -50.2°C | 0.2% | 34.2hPa | 2.7V | 18:12:15 | 01:39:16 | 00:00:00 | |
| BIOWL1-15 | 2026-09-05 12:35:13 | 55.86892 | 5.28632 | 46° | 2km/h | 23313m | 5.7m/s | -50.5°C | 0.2% | 34.4hPa | 2.6V | 18:12:15 | 01:39:09 | 00:00:00 | |
| GOEST3-10 | 2026-09-05 12:35:11 | 55.86892 | 5.28634 | 110° | 2km/h | 23324m | 4.9m/s | -50.3°C | 3.5% | 34.3hPa | 2.6V | 00:00:00 | 01:39:11 | 00:00:00 | |
| BIOWL9-15 | 2026-09-05 12:35:08 | 55.86891 | 5.28632 | 339° | 0km/h | 23303m | 5.0m/s | -50.5°C | 0.8% | 34.5hPa | 2.6V | 00:00:00 | 00:00:00 | 00:00:00 | |
| DL1XH-15 | 2026-09-05 12:35:07 | 55.86893 | 5.28634 | 316° | 2km/h | 23277m | 4.3m/s | -50.5°C | 3.5% | 34.6hPa | 2.6V | 08:30:00 | 01:39:02 | 00:00:00 | |
| DL1XH-west | 2026-09-05 12:35:05 | 55.86892 | 5.28632 | 189° | 4km/h | 23292m | 4.8m/s | -50.5°C | 0.2% | 34.6hPa | 2.7V | 18:12:15 | 01:39:05 | 00:00:00 | |
| DM0DOS-11 | 2026-09-05 12:35:05 | 55.86893 | 5.28634 | 157° | 2km/h | 23266m | 4.8m/s | -50.5°C | 3.5% | 34.7hPa | 2.7V | 08:30:00 | 01:39:00 | 00:00:00 | |
| BIOWL1-15 | 2026-09-05 12:35:01 | 55.86893 | 5.28634 | 223° | 0km/h | 23271m | 5.8m/s | -50.5°C | 0.2% | 34.7hPa | 2.6V | 18:12:15 | 01:39:01 | 00:00:00 | |
| DL1XH-15 | 2026-09-05 12:34:57 | 55.86900 | 5.28617 | 128° | 9km/h | 23224m | 5m/s | -50.4°C | 3.4% | 34.9hPa | 2.6V | 08:30:00 | 01:38:52 | 00:00:00 | |
| DF5WG-10 | 2026-09-05 12:34:57 | 55.86894 | 5.28631 | 88° | 9km/h | 23251m | 4.6m/s | -50.4°C | 3.5% | 34.7hPa | 2.7V | 00:00:00 | 01:38:57 | 00:00:00 | |
| GOEST3-10 | 2026-09-05 12:34:56 | 55.86894 | 5.28629 | 100° | 9km/h | 23246m | 4.7m/s | -50.4°C | 3.5% | 34.7hPa | 2.7V | 00:00:00 | 00:00:00 | 00:00:00 | |
| DM0DOS-11 | 2026-09-05 12:34:55 | 55.86903 | 5.28610 | 136° | 11km/h | 23213m | 6m/s | -50.4°C | 3.4% | 35hPa | 2.7V | 08:30:00 | 01:38:50 | 00:00:00 | |
| DL1XH-west | 2026-09-05 12:34:54 | 55.86896 | 5.28624 | 131° | 11km/h | 23235m | 5.2m/s | -50.4°C | 0.2% | 34.9hPa | 2.6V | 18:12:15 | 01:38:54 | 00:00:00 | |
| BIOWL1-15 | 2026-09-05 12:34:50 | 55.86903 | 5.28610 | 136° | 11km/h | 23213m | 6m/s | -50.4°C | 0.2% | 35hPa | 2.7V | 18:12:15 | 01:38:50 | 00:00:00 | |
| GOEST3-10 | 2026-09-05 12:34:50 | 55.86903 | 5.28610 | 137° | 9km/h | 23214m | 6.0m/s | -50.4°C | 3.4% | 34.9hPa | 2.6V | 00:00:00 | 01:38:50 | 00:00:00 | |
| DL1XH-15 | 2026-09-05 12:34:47 | 55.86916 | 5.28587 | 161° | 13km/h | 23173m | 4.3m/s | -50.7°C | 3.5% | 35.2hPa | 2.6V | 08:30:00 | 01:38:42 | 00:00:00 | |
| DF5WG-10 | 2026-09-05 12:34:47 | 55.86909 | 5.28599 | 130° | 11km/h | 23199m | 5.5m/s | -50.4°C | 3.4% | 35.0hPa | 2.6V | 00:00:00 | 01:38:47 | 00:00:00 | |
| DM0DOS-11 | 2026-09-05 12:34:45 | 55.86923 | 5.28585 | 180° | 15km/h | 23163m | 4.9m/s | -50.8°C | 3.5% | 35.2hPa | 2.6V | 08:30:00 | 01:38:40 | 00:00:00 | |
| DL1XH-west | 2026-09-05 12:34:43 | 55.86913 | 5.28589 | 149° | 11km/h | 23178m | 4.8m/s | -50.6°C | 0.2% | 35.2hPa | 2.6V | 18:12:15 | 01:38:43 | 00:00:00 | |
| BIOWL1-15 | 2026-09-05 12:34:40 | 55.86923 | 5.28585 | 181° | 15km/h | 23163m | 4.9m/s | -50.8°C | 0.2% | 35.2hPa | 2.6V | 18:12:15 | 01:38:40 | 00:00:00 | |
| DL1XH-15 | 2026-09-05 12:34:37 | 55.86955 | 5.28567 | 152° | 22km/h | 23120m | 4.9m/s | -51.1°C | 3.6% | 35.5hPa | 2.6V | 08:30:00 | 01:38:32 | 00:00:00 | |
| DL1XH-west | 2026-09-05 12:34:33 | 55.86951 | 5.28571 | 153° | 20km/h | 23126m | 5.7m/s | -51°C | 0.2% | 35.5hPa | 2.6V | 18:12:15 | 01:38:33 | 00:00:00 | |
| DM0DOS-11 | 2026-09-05 12:34:31 | 55.86966 | 5.28559 | 160° | 20km/h | 23110m | 5.8m/s | -51.1°C | 3.6% | 35.5hPa | 2.7V | 08:30:00 | 01:38:30 | 00:00:00 | |
| BIOWL1-15 | 2026-09-05 12:34:29 | 55.86970 | 5.28557 | 167° | 18km/h | 23104m | 4.6m/s | -51.2°C | 0.4% | 35.6hPa | 2.7V | 18:12:15 | 01:38:29 | 00:00:00 | |
| DL1XH-15 | 2026-09-05 12:34:27 | 55.87005 | 5.28528 | 148° | 26km/h | 23068m | 5m/s | -51°C | 3.6% | 35.8hPa | 2.6V | 08:30:00 | 01:38:22 | 00:00:00 | |
| DF5WG-10 | 2026-09-05 12:34:27 | 55.86979 | 5.28552 | 161° | 24km/h | 23095m | 6.1m/s | -51.1°C | 3.6% | 35.6hPa | 2.6V | 00:00:00 | 01:38:27 | 00:00:00 | |
| DM0DOS-11 | 2026-09-05 12:34:25 | 55.87017 | 5.28516 | 149° | 29km/h | 23058m | 3.8m/s | -50.9°C | 3.6% | 35.8hPa | 2.6V | 08:30:00 | 01:38:20 | 00:00:00 | |
| DL1XH-west | 2026-09-05 12:34:23 | 55.87000 | 5.28534 | 151° | 24km/h | 23074m | 4.6m/s | -51.1°C | 0.4% | 35.7hPa | 2.7V | 18:12:15 | 01:38:23 | 00:00:00 | |
| BIOWL1-15 | 2026-09-05 12:34:21 | 55.87023 | 5.28509 | 153° | 29km/h | 23054m | 4.9m/s | -50.9°C | 0.3% | 35.9hPa | 2.7V | 18:12:15 | 01:38:19 | 00:00:00 | |
| GOEST3-10 | 2026-09-05 12:34:20 | 55.87017 | 5.28516 | 150° | 26km/h | 23059m | 3.7m/s | -50.9°C | 3.6% | 35.8hPa | 2.6V | 00:00:00 | 01:38:20 | 00:00:00 | |
| DL1XH-15 | 2026-09-05 12:34:17 | 55.87062 | 5.28465 | 141° | 29km/h | 23018m | 5.5m/s | -50.7°C | 3.6% | 36hPa | 2.6V | 08:30:00 | 01:38:12 | 00:00:00 | |
| DF5WG-10 | 2026-09-05 12:34:17 | 55.87035 | 5.28499 | 153° | 27km/h | 23044m | 4.6m/s | -50.8°C | 3.6% | 35.9hPa | 2.6V | 00:00:00 | 01:38:17 | 00:00:00 | |
| DM0DOS-11 | 2026-09-05 12:34:15 | 55.87074 | 5.28449 | 140° | 29km/h | 23009m | 4.4m/s | -50.7°C | 3.5% | 36.1hPa | 2.6V | 08:30:00 | 01:38:10 | 00:00:00 | |
| DL1XH-west | 2026-09-05 12:34:12 | 55.87063 | 5.28465 | 141° | 29km/h | 23018m | 5.5m/s | -50.7°C | 0.3% | 36hPa | 2.6V | 18:12:15 | 01:38:12 | 00:00:00 | |
| BIOWL1-15 | 2026-09-05 12:34:10 | 55.87087 | 5.28431 | 145° | 35km/h | 22998m | 5.1m/s | -50.7°C | 0.2% | 36.2hPa | 2.7V | 18:12:15 | 01:38:08 | 00:00:00 | |
| GOEST3-10 | 2026-09-05 12:34:10 | 55.87073 | 5.28449 | 141° | 31km/h | 23009m | 4.4m/s | -50.7°C | 3.5% | 36.1hPa | 2.6V | 00:00:00 | 01:38:10 | 00:00:00 | |
| DL1XH-15 | 2026-09-05 12:34:07 | 55.87120 | 5.28390 | 143° | 26km/h | 22968m | 5.3m/s | -50.5°C | 3.5% | 36.3hPa | 2.6V | 08:30:00 | 01:38:02 | 00:00:00 | |
| DF5WG-10 | 2026-09-05 12:34:07 | 55.87093 | 5.28423 | 147° | 26km/h | 22994m | 4.2m/s | -50.6°C | 3.5% | 36.1hPa | 2.6V | 00:00:00 | 01:38:07 | 00:00:00 | |
| BIOWL9-15 | 2026-09-05 12:34:06 | 55.87106 | 5.28408 | 144° | 24km/h | 22983m | 4.7m/s | -50.6°C | 0.8% | 36.2hPa | 2.6V | 00:00:00 | 00:00:00 | 00:00:00 | |
| GOEST3-10 | 2026-09-05 12:34:05 | 55.87106 | 5.28408 | 145° | 24km/h | 22983m | 4.6m/s | -50.6°C | 3.5% | 36.2hPa | 2.6V | 00:00:00 | 00:00:00 | 00:00:00 | |
| DM0DOS-11 | 2026-09-05 12:34:03 | 55.87130 | 5.28375 | 133° | 24km/h | 22958m | 5.2m/s | -50.5°C | 3.5% | 36.4hPa | 2.6V | 08:30:00 | 01:38:00 | 00:00:00 | |
| DL1XH-west | 2026-09-05 12:34:02 | 55.87121 | 5.28390 | 143° | 26km/h | 22968m | 5.3m/s | -50.6°C | 0.2% | 36.3hPa | 2.6V | 18:12:15 | 01:38:02 | 00:00:00 | |
| BIOWL1-15 | 2026-09-05 12:33:58 | 55.87139 | 5.28357 | 131° | 31km/h | 22948m | 5.7m/s | -50.6°C | 0.2% | 36.5hPa | 2.7V | 18:12:15 | 01:37:58 | 00:00:00 | |
| DL1XH-west | 2026-09-05 12:33:51 | 55.87180 | 5.28280 | 139° | 29km/h | 22911m | 4.8m/s | -50.9°C | 0.2% | 36.7hPa | 2.6V | 18:12:15 | 01:37:51 | 00:00:00 | |
| DM0DOS-11 | 2026-09-05 12:33:51 | 55.87186 | 5.28271 | 136° | 27km/h | 22906m | 4.9m/s | -51°C | 3.6% | 36.7hPa | 2.6V | 08:30:00 | 01:37:50 | 00:00:00 | |
| GOEST3-10 | 2026-09-05 12:33:50 | 55.87185 | 5.28271 | 137° | 27km/h | 22907m | 4.8m/s | -50.9°C | 3.6% | 36.6hPa | 2.6V | 00:00:00 | 01:37:50 | 00:00:00 | |
| DL1XH-15 | 2026-09-05 12:33:47 | 55.87224 | 5.28187 | 122° | 35km/h | 22867m | 4.8m/s | -51°C | 3.7% | 36.9hPa | 2.6V | 08:30:00 | 01:37:42 | 00:00:00 | |
| BIOWL1-15 | 2026-09-05 12:33:47 | 55.87198 | 5.28244 | 126° | 27km/h | 22892m | 4.4m/s | -51.2°C | 0.3% | 36.8hPa | 2.7V | 18:12:15 | 01:37:47 | 00:00:00 | |
| DF5WG-10 | 2026-09-05 12:33:47 | 55.87198 | 5.28244 | 127° | 33km/h | 22892m | 4.4m/s | -51.1°C | 3.7% | 36.7hPa | 2.7V | 00:00:00 | 01:37:47 | 08:30:00 | |
| DM0DOS-11 | 2026-09-05 12:33:45 | 55.87232 | 5.28161 | 118° | 33km/h | 22858m | 5.5m/s | -51°C | 3.7% | 37hPa | 2.7V | 08:30:00 | 01:37:40 | 00:00:00 | |
| DL1XH-west | 2026-09-05 12:33:40 | 55.87232 | 5.28161 | 118° | 33km/h | 22858m | 5.6m/s | -51°C | 0.4% | 37hPa | 2.7V | 18:12:15 | 01:37:40 | 00:00:00 | |
| GOEST3-10 | 2026-09-05 12:33:40 | 55.87232 | 5.28161 | 119° | 31km/h | 22858m | 5.5m/s | -50.9°C | 3.7% | 36.9hPa | 2.6V | 00:00:00 | 01:37:40 | 00:00:00 | |
| DL1XH-15 | 2026-09-05 12:33:37 | 55.87258 | 5.28064 | 117° | 31km/h | 22815m | 6m/s | -50.8°C | 3.5% | 37.2hPa | 2.6V | 08:30:00 | 01:37:32 | 00:00:00 | |
| BIOWL1-15 | 2026-09-05 12:33:36 | 55.87246 | 5.28112 | 110° | 27km/h | 22836m | 4.6m/s | -50.9°C | 0.3% | 37.1hPa | 2.6V | 18:12:15 | 01:37:36 | 00:00:00 | |
| DL1XH-west | 2026-09-05 12:33:30 | 55.87266 | 5.28041 | 118° | 31km/h | 22805m | 4.5m/s | -50.7°C | 0.3% | 37.3hPa | 2.6V | 18:12:15 | 01:37:30 | 00:00:00 | |
| BIOWL7-15 | 2026-09-05 12:33:28 | 55.87274 | 5.28017 | 126° | 31km/h | 22794m | 4.4m/s | -50.6°C | 0.9% | 37.3hPa | 2.6V | 00:00:00 | 00:00:00 | 00:00:00 | |
| DL1XH-15 | 2026-09-05 12:33:27 | 55.87296 | 5.27962 | 128° | 27km/h | 22765m | 4.3m/s | -50.6°C | 3.6% | 37.5hPa | 2.6V | 08:30:00 | 01:37:22 | 00:00:00 | |
| BIOWL1-15 | 2026-09-05 12:33:25 | 55.87285 | 5.27987 | 121° | 22km/h | 22780m | 3.9m/s | -50.6°C | 0.3% | 37.4hPa | 2.6V | 18:12:15 | 01:37:25 | 00:00:00 | |
| GOEST3-10 | 2026-09-05 12:33:25 | 55.87285 | 5.27987 | 122° | 24km/h | 22780m | 3.9m/s | -50.5°C | 3.6% | 37.4hPa | 2.6V | 00:00:00 | 00:00:00 | 00:00:00 | |
| DJ2DS-15 | 2026-09-05 12:33:23 | 55.87292 | 5.27971 | 129° | 27km/h | 22771m | 5.3m/s | -50.6°C | 3.6% | 37.4hPa | 2.6V | 00:00:00 | 01:37:23 | 00:00:00 | |
| GOEST3-10 | 2026-09-05 12:33:20 | 55.87304 | 5.27941 | 120° | 35km/h | 22755m | 6.1m/s | -50.5°C | 3.6% | 37.5hPa | 2.6V | 00:00:00 | 01:37:20 | 00:00:00 | |
| DL1XH-west | 2026-09-05 12:33:20 | 55.87304 | 5.27941 | 120° | 29km/h | 22755m | 6.1m/s | -50.6°C | 0.3% | 37.5hPa | 2.7V | 18:12:15 | 01:37:20 | 00:00:00 | |
| DL1XH-15 | 2026-09-05 12:33:17 | 55.87328 | 5.27836 | 114° | 20km/h | 22716m | 4.7m/s | -50.4°C | 3.4% | 37.8hPa | 2.6V | 08:30:00 | 01:37:12 | 00:00:00 | |
| DF5WG-10 | 2026-09-05 12:33:17 | 55.87313 | 5.27900 | 111° | 27km/h | 22740m | 5.2m/s | -50.5°C | 3.5% | 37.6hPa | 2.6V | 00:00:00 | 01:37:17 | 00:00:00 | |
| DM0DOS-11 | 2026-09-05 12:33:15 | 55.87333 | 5.27820 | 126° | 22km/h | 22706m | 4.5m/s | -50.3°C | 3.4% | 37.8hPa | 2.6V | 08:30:00 | 01:37:10 | 00:00:00 | |
| BIOWL1-15 | 2026-09-05 12:33:14 | 55.87323 | 5.27857 | 111° | 29km/h | 22726m | 5.5m/s | -50.4°C | 0.2% | 37.7hPa | 2.7V | 18:12:15 | 01:37:14 | 00:00:00 | |
| DL1XH-west | 2026-09-05 12:33:09 | 55.87336 | 5.27812 | 126° | 22km/h | 22702m | 4.2m/s | -50.3°C | 0.1% | 37.9hPa | 2.6V | 18:12:15 | 01:37:09 | 00:00:00 | |
| DL1XH-15 | 2026-09-05 12:33:07 | 55.87356 | 5.27735 | 107° | 33km/h | 22666m | 5.1m/s | -50.5°C | 3.5% | 38.1hPa | 2.7V | 08:30:00 | 01:37:02 | 00:00:00 | |
| BIOWL1-15 | 2026-09-05 12:33:04 | 55.87350 | 5.27762 | 115° | 31km/h | 22677m | 4.6m/s | -50.3°C | 0.2% | 38hPa | 2.6V | 18:12:15 | 01:37:04 | 00:00:00 | |
| DM0DOS-11 | 2026-09-05 12:33:03 | 55.87360 | 5.27708 | 110° | 29km/h | 22656m | 5.8m/s | -50.5°C | 3.5% | 38.1hPa | 2.7V | 08:30:00 | 01:37:00 | 00:00:00 | |
| DL1XH-west | 2026-09-05 12:32:58 | 55.87366 | 5.27686 | 117° | 24km/h | 22647m | 4m/s | -50.5°C | 0.2% | 38.2hPa | 2.5V | 18:12:15 | 01:36:58 | 00:00:00 | |
| DL1XH-15 | 2026-09-05 12:32:57 | 55.87379 | 5.27639 | 116° | 24km/h | 22616m | 5.8m/s | -50.6°C | 3.5% | 38.4hPa | 2.6V | 08:30:00 | 01:36:52 | 00:00:00 | |
| DF5WG-10 | 2026-09-05 12:32:57 | 55.87369 | 5.27677 | 115° | 24km/h | 22642m | 5.6m/s | -50.5°C | 3.5% | 38.2hPa | 2.6V | 00:00:00 | 01:36:57 | 00:00:00 | |
| GOEST3-10 | 2026-09-05 12:32:55 | 55.87372 | 5.27663 | 116° | 22km/h | 22632m | 5.1m/s | -50.6°C | 3.5% | 38.2hPa | 2.6V | 00:00:00 | 00:00:00 | 00:00:00 | |
| DM0DOS-11 | 2026-09-05 12:32:53 | 55.87385 | 5.27618 | 114° | 29km/h | 22607m | 4.9m/s | -50.6°C | 3.5% | 38.4hPa | 2.6V | 08:30:00 | 01:36:50 | 00:00:00 | |
| BIOWL1-15 | 2026-09-05 12:32:53 | 55.87377 | 5.27648 | 120° | 22km/h | 22621m | 5m/s | -50.6°C | 0.2% | 38.3hPa | 2.6V | 18:12:15 | 01:36:53 | 00:00:00 | |
| DL1XH-west | 2026-09-05 12:32:47 | 55.87397 | 5.27581 | 121° | 29km/h | 22592m | 4.1m/s | -50.6°C | 0.2% | 38.5hPa | 2.6V | 18:12:15 | 01:36:47 | 00:00:00 | |
| DF5WG-10 | 2026-09-05 12:32:47 | 55.87397 | 5.27581 | 122° | 18km/h | 22592m | 4.0m/s | -50.5°C | 3.5% | 38.5hPa | 2.6V | 00:00:00 | 01:36:47 | 00:00:00 | |
| GOEST3-10 | 2026-09-05 12:32:45 | 55.87402 | 5.27560 | 106° | 16km/h | 22583m | 4.2m/s | -50.6°C | 3.6% | 38.5hPa | 2.5V | 00:00:00 | 00:00:00 | 00:00:00 | |
| DM0DOS-11 | 2026-09-05 12:32:43 | 55.87407 | 5.27524 | 104° | 15km/h | 22559m | 5.3m/s | -50.9°C | 3.5% | 38.7hPa | 2.6V | 08:30:00 | 01:36:40 | 00:00:00 | |
| BIOWL1-15 | 2026-09-05 12:32:43 | 55.87404 | 5.27544 | 98° | 16km/h | 22573m | 5.8m/s | -50.9°C | 0.3% | 38.6hPa | 2.6V | 18:12:15 | 01:36:43 | 00:00:00 | |
| DL1XH-15 | 2026-09-05 12:32:42 | 55.87406 | 5.27530 | 109° | 15km/h | 22563m | 4.3m/s | -50.9°C | 3.5% | 38.7hPa | 2.5V | 08:30:00 | 01:36:41 | 00:00:00 | |
| DL1XH-west | 2026-09-05 12:32:37 | 55.87410 | 5.27502 | 114° | 20km/h | 22543m | 5.4m/s | -51°C | 0.3% | 38.8hPa | 2.7V | 18:12:15 | 01:36:37 | 00:00:00 | |
| DF5WG-10 | 2026-09-05 12:32:37 | 55.87410 | 5.27502 | 115° | 22km/h | 22544m | 5.3m/s | -51.0°C | 3.5% | 38.8hPa | 2.6V | 00:00:00 | 01:36:37 | 00:00:00 | |
| DL1XH-15 | 2026-09-05 12:32:35 | 55.87423 | 5.27444 | 102° | 22km/h | 22514m | 4.3m/s | -51.1°C | 3.6% | 39hPa | 2.6V | 08:30:00 | 01:36:31 | 00:00:00 | |
| BIOWL1-15 | 2026-09-05 12:32:32 | 55.87421 | 5.27453 | 106° | 24km/h | 22519m | 5.4m/s | -51.2°C | 0.3% | 38.9hPa | 2.6V | 18:12:15 | 01:36:32 | 00:00:00 | |
| DM0DOS-11 | 2026-09-05 12:32:31 | 55.87423 | 5.27435 | 88° | 18km/h | 22509m | 4.8m/s | -51.1°C | 3.6% | 39hPa | 2.6V | 08:30:00 | 01:36:30 | 00:00:00 | |
| DL1XH-west | 2026-09-05 12:32:26 | 55.87419 | 5.27410 | 80° | 9km/h | 22489m | 5.1m/s | -51.1°C | 0.3% | 39.1hPa | 2.6V | 18:12:15 | 01:36:26 | 00:00:00 | |
| DM0DOS-11 | 2026-09-05 12:32:25 | 55.87421 | 5.27378 | 94° | 15km/h | 22462m | 5.1m/s | -51.2°C | 3.6% | 39.3hPa | 2.6V | 08:30:00 | 01:36:20 | 00:00:00 | |
| BIOWL1-15 | 2026-09-05 12:32:21 | 55.87420 | 5.27361 | 64° | 13km/h | 22448m | 5.4m/s | -51.2°C | 0.3% | 39.4hPa | 2.6V | 18:12:15 | 01:36:17 | 00:00:00 | |
| DL1XH-west | 2026-09-05 12:32:16 | 55.87418 | 5.27356 | 46° | 13km/h | 22443m | 4.1m/s | -51.3°C | 0.3% | 39.4hPa | 2.6V | 18:12:15 | 01:36:16 | 00:00:00 | |
| DL1XH-15 | 2026-09-05 12:32:15 | 55.87411 | 5.27338 | 88° | 7km/h | 22420m | 6m/s | -51.4°C | 3.7% | 39.6hPa | 2.6V | 08:30:00 | 01:36:11 | 00:00:00 | |
| BIOWL1-15 | 2026-09-05 12:32:13 | 55.87411 | 5.27338 | 89° | 7km/h | 22420m | 6m/s | -51.4°C | 0.4% | 39.6hPa | 2.6V | 18:12:15 | 01:36:11 | 00:00:00 | |
| DL1XH-west | 2026-09-05 12:32:05 | 55.87420 | 5.27310 | 107° | 11km/h | 22389m | 4.1m/s | -51.3°C | 0.3% | 39.7hPa | 2.5V | 18:12:15 | 01:36:05 | 00:00:00 | |
| DM0DOS-11 | 2026-09-05 12:32:05 | 55.87425 | 5.27285 | 110° | 13km/h | 22364m | 5m/s | -51.1°C | 3.5% | 39.9hPa | 2.6V | 08:30:00 | 01:36:00 | 00:00:00 | |
| BIOWL1-15 | 2026-09-05 12:32:03 | 55.87424 | 5.27290 | 113° | 13km/h | 22369m | 5m/s | -51.2°C | 0.3% | 39.8hPa | 2.6V | 18:12:15 | 01:36:01 | 00:00:00 | |
| DJ2DS-15 | 2026-09-05 12:32:03 | 55.87421 | 5.27301 | 107° | 20km/h | 22380m | 5.8m/s | -51.2°C | 3.6% | 39.7hPa | 2.7V | 00:00:00 | 01:36:03 | 00:00:00 | |
| DL1XH-15 | 2026-09-05 12:32:02 | 55.87424 | 5.27290 | 113° | 13km/h | 22369m | 5m/s | -51.2°C | 3.6% | 39.8hPa | 2.6V | 08:30:00 | 01:36:01 | 00:00:00 | |
| BIOWL9-15 | 2026-09-05 12:32:01 | 55.87424 | 5.27290 | 113° | 13km/h | 22369m | 5.0m/s | -51.2°C | 0.9% | 39.8hPa | 2.6V | 00:00:00 | 00:00:00 | 00:00:00 | |
| GOEST3-10 | 2026-09-05 12:32:00 | 55.87425 | 5.27284 | 111° | 18km/h | 22364m | 4.9m/s | -51.1°C | 3.5% | 39.8hPa | 2.6V | 00:00:00 | 01:36:00 | 00:00:00 | |
| DF5WG-10 | 2026-09-05 12:31:57 | 55.87431 | 5.27266 | 127° | 20km/h | 22349m | 4.6m/s | -51.0°C | 3.6% | 39.9hPa | 2.7V | 00:00:00 | 01:35:57 | 00:00:00 | |
| DM0DOS-11 | 2026-09-05 12:31:55 | 55.87453 | 5.27219 | 133° | 22km/h | 22316m | 5.2m/s | -50.9°C | 3.6% | 40.2hPa | 2.7V | 08:30:00 | 01:35:50 | 00:00:00 | |
| DL1XH-west | 2026-09-05 12:31:54 | 55.87440 | 5.27244 | 129° | 18km/h | 22335m | 5.2m/s | -51°C | 0.2% | 40.1hPa | 2.6V | 18:12:15 | 01:35:54 | 00:00:00 | |
| BIOWL1-15 | 2026-09-05 12:31:51 | 55.87449 | 5.27226 | 132° | 20km/h | 22321m | 4.8m/s | -50.9°C | 0.3% | 40.2hPa | 2.7V | 18:12:15 | 01:35:51 | 00:00:00 | |
| GOEST3-10 | 2026-09-05 12:31:50 | 55.87453 | 5.27219 | 134° | 22km/h | 22317m | 5.1m/s | -50.9°C | 3.6% | 40.2hPa | 2.6V | 00:00:00 | 01:35:50 | 00:00:00 | |
| DF5WG-10 | 2026-09-05 12:31:46 | 55.87466 | 5.27189 | 117° | 27km/h | 22296m | 5.7m/s | -50.9°C | 3.5% | 40.3hPa | 2.6V | 00:00:00 | 01:35:46 | 00:00:00 | |
| DM0DOS-11 | 2026-09-05 12:31:45 | 55.87478 | 5.27120 | 111° | 26km/h | 22267m | 5.8m/s | -51.1°C | 3.5% | 40.5hPa | 2.6V | 08:30:00 | 01:35:40 | 00:00:00 | |
| DL1XH-west | 2026-09-05 12:31:43 | 55.87473 | 5.27153 | 103° | 27km/h | 22281m | 5.9m/s | -51°C | 0.2% | 40.4hPa | 2.7V | 18:12:15 | 01:35:43 | 00:00:00 | |
| DJ2DS-15 | 2026-09-05 12:31:43 | 55.87473 | 5.27153 | 104° | 27km/h | 22282m | 5.9m/s | -50.9°C | 3.5% | 40.4hPa | 2.6V | 00:00:00 | 01:35:43 | 00:00:00 | |
| DL1XH-15 | 2026-09-05 12:31:42 | 55.87476 | 5.27131 | 105° | 26km/h | 22272m | 4.4m/s | -51°C | 3.4% | 40.5hPa | 2.6V | 08:30:00 | 01:35:41 | 00:00:00 | |
| BIOWL1-15 | 2026-09-05 12:31:41 | 55.87499 | 5.27073 | 138° | 29km/h | 22241m | 6m/s | -51.2°C | 0.2% | 40.7hPa | 2.6V | 18:12:15 | 01:35:35 | 00:00:00 | |
| GOEST3-10 | 2026-09-05 12:31:40 | 55.87478 | 5.27120 | 112° | 27km/h | 22267m | 5.7m/s | -51.1°C | 3.5% | 40.5hPa | 2.7V | 00:00:00 | 01:35:40 | 00:00:00 | |
| DF5WG-10 | 2026-09-05 12:31:36 | 55.87494 | 5.27082 | 139° | 31km/h | 22247m | 4.6m/s | -51.1°C | 3.6% | 40.6hPa | 2.7V | 00:00:00 | 01:35:36 | 00:00:00 | |
| DL1XH-15 | 2026-09-05 12:31:35 | 55.87520 | 5.27032 | 121° | 29km/h | 22221m | 5m/s | -51.5°C | 3.7% | 40.8hPa | 2.7V | 08:30:00 | 01:35:31 | 00:00:00 | |
| DM0DOS-11 | 2026-09-05 12:31:35 | 55.87523 | 5.27021 | 116° | 29km/h | 22216m | 5.2m/s | -51.7°C | 3.7% | 40.9hPa | 2.6V | 08:30:00 | 01:35:30 | 00:00:00 | |
| DL1XH-west | 2026-09-05 12:31:33 | 55.87510 | 5.27054 | 133° | 33km/h | 22232m | 4.1m/s | -51.3°C | 0.3% | 40.7hPa | 2.6V | 18:12:15 | 01:35:33 | 00:00:00 | |
| BIOWL1-15 | 2026-09-05 12:31:30 | 55.87530 | 5.26997 | 117° | 31km/h | 22206m | 4m/s | -51.8°C | 0.4% | 40.9hPa | 2.5V | 18:12:15 | 01:35:28 | 00:00:00 | |
| DL1XH-west | 2026-09-05 12:31:23 | 55.87557 | 5.26935 | 132° | 37km/h | 22177m | 4.3m/s | -51.8°C | 0.3% | 41hPa | 2.6V | 18:12:15 | 01:35:22 | 00:00:00 | |
| DL1XH-15 | 2026-09-05 12:31:22 | 55.87563 | 5.26923 | 128° | 38km/h | 22173m | 3.9m/s | -51.8°C | 3.8% | 41.1hPa | 2.6V | 08:30:00 | 01:35:21 | 00:00:00 | |
| DM0DOS-11 | 2026-09-05 12:31:22 | 55.87574 | 5.26896 | 122° | 37km/h | 22163m | 4.4m/s | -51.7°C | 3.8% | 41.1hPa | 2.7V | 08:30:00 | 01:35:19 | 00:00:00 | |
| BIOWL1-15 | 2026-09-05 12:31:17 | 55.87583 | 5.26866 | 116° | 38km/h | 22154m | 5.7m/s | -51.7°C | 0.4% | 41.2hPa | 2.5V | 18:12:15 | 01:35:17 | 00:00:00 | |
| DF5WG-10 | 2026-09-05 12:31:16 | 55.87587 | 5.26851 | 113° | 33km/h | 22149m | 4.6m/s | -51.6°C | 3.7% | 41.2hPa | 2.6V | 00:00:00 | 01:35:16 | 00:00:00 | |
| DL1XH-15 | 2026-09-05 12:31:15 | 55.87597 | 5.26782 | 101° | 31km/h | 22122m | 4.8m/s | -51.5°C | 3.7% | 41.4hPa | 2.6V | 08:30:00 | 01:35:11 | 00:00:00 | |
| DL1XH-west | 2026-09-05 12:31:12 | 55.87597 | 5.26782 | 102° | 31km/h | 22122m | 4.8m/s | -51.5°C | 0.3% | 41.4hPa | 2.6V | 18:12:15 | 01:35:11 | 00:00:00 | |
| DM0DOS-11 | 2026-09-05 12:31:10 | 55.87600 | 5.26754 | 101° | 31km/h | 22112m | 5.8m/s | -51.6°C | 3.7% | 41.5hPa | 2.7V | 08:30:00 | 01:35:09 | 00:00:00 | |
| BIOWL1-15 | 2026-09-05 12:31:09 | 55.87603 | 5.26725 | 102° | 33km/h | 22102m | 5.1m/s | -51.7°C | 0.4% | 41.5hPa | 2.6V | 18:12:15 | 01:35:07 | 00:00:00 | |
| BIOWL7-15 | 2026-09-05 12:31:06 | 55.87603 | 5.26725 | 103° | 33km/h | 22102m | 5.1m/s | -51.7°C | 1.0% | 41.6hPa | 2.7V | 00:00:00 | 00:00:00 | 00:00:00 | |
| GOEST3-10 | 2026-09-05 12:31:05 | 55.87608 | 5.26693 | 104° | 37km/h | 22092m | 3.4m/s | -51.6°C | 3.8% | 41.6hPa | 2.7V | 00:00:00 | 00:00:00 | 00:00:00 | |
| DM0DOS-11 | 2026-09-05 12:31:04 | 55.87614 | 5.26596 | 96° | 35km/h | 22062m | 4.3m/s | -51.5°C | 3.7% | 41.8hPa | 2.7V | 08:30:00 | 01:34:59 | 00:00:00 | |
| DF5WG-10 | 2026-09-05 12:31:04 | 55.87610 | 5.26676 | 102° | 35km/h | 22088m | 4.9m/s | -51.6°C | 3.8% | 41.6hPa | 2.6V | 00:00:00 | 01:35:04 | 00:00:00 | |
| DJ2DS-15 | 2026-09-05 12:31:03 | 55.87611 | 5.26659 | 98° | 35km/h | 22082m | 6.0m/s | -51.6°C | 3.7% | 41.6hPa | 2.6V | 00:00:00 | 01:35:03 | 00:00:00 | |
| DL1XH-15 | 2026-09-05 12:31:02 | 55.87613 | 5.26627 | 91° | 35km/h | 22072m | 4.8m/s | -51.6°C | 3.8% | 41.8hPa | 2.6V | 08:30:00 | 01:35:01 | 00:00:00 | |
| DL1XH-west | 2026-09-05 12:31:01 | 55.87613 | 5.26627 | 92° | 35km/h | 22072m | 4.8m/s | -51.6°C | 0.4% | 41.8hPa | 2.6V | 18:12:15 | 01:35:01 | 00:00:00 | |
| BIOWL1-15 | 2026-09-05 12:30:57 | 55.87615 | 5.26565 | 91° | 33km/h | 22052m | 5.6m/s | -51.5°C | 0.3% | 41.9hPa | 2.6V | 18:12:15 | 01:34:57 | 00:00:00 | |
| DL1XH-west | 2026-09-05 12:30:50 | 55.87617 | 5.26452 | 89° | 37km/h | 22016m | 4.9m/s | -51.3°C | 0.3% | 42.1hPa | 2.6V | 18:12:15 | 01:34:50 | 00:00:00 | |
| DM0DOS-11 | 2026-09-05 12:30:50 | 55.87617 | 5.26435 | 91° | 37km/h | 22011m | 5.2m/s | -51.3°C | 3.7% | 42.1hPa | 2.6V | 08:30:00 | 01:34:49 | 00:00:00 | |
| BIOWL1-15 | 2026-09-05 12:30:46 | 55.87616 | 5.26391 | 83° | 29km/h | 21995m | 5.3m/s | -51.2°C | 0.4% | 42.3hPa | 2.6V | 18:12:15 | 01:34:46 | 00:00:00 | |
| GOEST3-10 | 2026-09-05 12:30:45 | 55.87616 | 5.26378 | 87° | 26km/h | 21989m | 5.8m/s | -51.2°C | 3.6% | 42.2hPa | 2.5V | 00:00:00 | 00:00:00 | 08:30:00 | |
| DM0DOS-11 | 2026-09-05 12:30:44 | 55.87611 | 5.26295 | 87° | 31km/h | 21954m | 5.1m/s | -51.1°C | 3.6% | 42.5hPa | 2.5V | 08:30:00 | 01:34:38 | 00:00:00 | |
| DJ2DS-15 | 2026-09-05 12:30:43 | 55.87616 | 5.26355 | 90° | 29km/h | 21979m | 4.1m/s | -51.1°C | 3.6% | 42.3hPa | 2.6V | 00:00:00 | 01:34:43 | 00:00:00 | |
| DL1XH-15 | 2026-09-05 12:30:42 | 55.87613 | 5.26322 | 78° | 27km/h | 21964m | 4.2m/s | -51.1°C | 3.6% | 42.4hPa | 2.6V | 08:30:00 | 01:34:40 | 00:00:00 | |
| DL1XH-west | 2026-09-05 12:30:39 | 55.87611 | 5.26309 | 81° | 29km/h | 21959m | 5.5m/s | -51.1°C | 0.3% | 42.5hPa | 2.6V | 18:12:15 | 01:34:39 | 00:00:00 | |
| BIOWL1-15 | 2026-09-05 12:30:37 | 55.87610 | 5.26253 | 82° | 31km/h | 21938m | 4.9m/s | -51°C | 0.3% | 42.6hPa | 2.7V | 18:12:15 | 01:34:35 | 00:00:00 | |
| GOEST3-10 | 2026-09-05 12:30:35 | 55.87610 | 5.26253 | 83° | 31km/h | 21939m | 4.9m/s | -51.0°C | 3.6% | 42.6hPa | 2.6V | 00:00:00 | 00:00:00 | 00:00:00 | |
| DL1XH-15 | 2026-09-05 12:30:34 | 55.87603 | 5.26185 | 72° | 29km/h | 21913m | 5.4m/s | -51°C | 3.5% | 42.8hPa | 2.6V | 08:30:00 | 01:34:30 | 00:00:00 | |
| DF5WG-10 | 2026-09-05 12:30:33 | 55.87607 | 5.26225 | 84° | 29km/h | 21929m | 5.8m/s | -51.0°C | 3.5% | 42.6hPa | 2.7V | 00:00:00 | 01:34:33 | 00:00:00 | |
| DM0DOS-11 | 2026-09-05 12:30:30 | 55.87600 | 5.26172 | 66° | 29km/h | 21908m | 5m/s | -51°C | 3.4% | 42.8hPa | 2.7V | 08:30:00 | 01:34:29 | 00:00:00 | |
| DL1XH-west | 2026-09-05 12:30:29 | 55.87600 | 5.26172 | 67° | 29km/h | 21908m | 5m/s | -51°C | 0.2% | 42.8hPa | 2.7V | 18:12:15 | 01:34:29 | 00:00:00 | |
| BIOWL1-15 | 2026-09-05 12:30:25 | 55.87591 | 5.26129 | 71° | 26km/h | 21886m | 5.5m/s | -51.3°C | 0.2% | 43hPa | 2.6V | 18:12:15 | 01:34:25 | 00:00:00 | |
| DM0DOS-11 | 2026-09-05 12:30:24 | 55.87577 | 5.26042 | 67° | 29km/h | 21850m | 5.6m/s | -51.9°C | 3.8% | 43.2hPa | 2.6V | 08:30:00 | 01:34:18 | 00:00:00 | |
| DF5WG-10 | 2026-09-05 12:30:23 | 55.87587 | 5.26106 | 78° | 29km/h | 21876m | 5.7m/s | -51.5°C | 3.6% | 43.0hPa | 2.6V | 00:00:00 | 01:34:23 | 00:00:00 | |
| DL1XH-15 | 2026-09-05 12:30:22 | 55.87582 | 5.26067 | 73° | 31km/h | 21860m | 5.4m/s | -51.8°C | 3.7% | 43.2hPa | 2.6V | 08:30:00 | 01:34:20 | 00:00:00 | |
| DL1XH-west | 2026-09-05 12:30:19 | 55.87577 | 5.26042 | 68° | 29km/h | 21850m | 5.6m/s | -51.9°C | 0.4% | 43.2hPa | 2.6V | 18:12:15 | 01:34:18 | 00:00:00 | |
| BIOWL1-15 | 2026-09-05 12:30:17 | 55.87548 | 5.25962 | 43° | 26km/h | 21809m | 4.8m/s | -51.9°C | 0.4% | 43.5hPa | 2.6V | 18:12:15 | 01:34:10 | 00:00:00 | |
| GOEST3-10 | 2026-09-05 12:30:17 | 55.87569 | 5.26008 | 62° | 27km/h | 21836m | 5.1m/s | -51.9°C | 3.8% | 43.3hPa | 2.7V | 00:00:00 | 00:00:00 | 00:00:00 | |
| DL1XH-15 | 2026-09-05 12:30:17 | 55.87548 | 5.25962 | 43° | 26km/h | 21808m | 4.8m/s | -51.9°C | 3.8% | 43.5hPa | 2.6V | 08:30:00 | 01:34:10 | 00:00:00 | |
| DF5WG-10 | 2026-09-05 12:30:12 | 55.87557 | 5.25978 | 48° | 26km/h | 21819m | 5.4m/s | -51.8°C | 3.8% | 43.4hPa | 2.6V | 00:00:00 | 01:34:12 | 00:00:00 | |
| DM0DOS-11 | 2026-09-05 12:30:11 | 55.87537 | 5.25947 | 35° | 27km/h | 21798m | 4.4m/s | -51.9°C | 3.8% | 43.6hPa | 2.6V | 08:30:00 | 01:34:08 | 00:00:00 | |
| DL1XH-west | 2026-09-05 12:30:08 | 55.87537 | 5.25947 | 36° | 27km/h | 21798m | 4.4m/s | -51.9°C | 0.5% | 43.6hPa | 2.6V | 18:12:15 | 01:34:08 | 00:00:00 | |
| BIOWL1-15 | 2026-09-05 12:30:03 | 55.87507 | 5.25893 | 49° | 26km/h | 21763m | 5.5m/s | -51.9°C | 0.4% | 43.8hPa | 2.6V | 18:12:15 | 01:34:01 | 00:00:00 | |
| DL1XH-15 | 2026-09-05 12:30:02 | 55.87503 | 5.25886 | 49° | 22km/h | 21757m | 5.6m/s | -52°C | 3.8% | 43.8hPa | 2.6V | 08:30:00 | 01:34:00 | 00:00:00 | |
| DL1XH-west | 2026-09-05 12:29:58 | 55.87496 | 5.25873 | 35° | 20km/h | 21747m | 6.2m/s | -52°C | 0.4% | 43.9hPa | 2.6V | 18:12:15 | 01:33:58 | 00:00:00 | |
| BIOWL9-15 | 2026-09-05 12:29:57 | 55.87492 | 5.25868 | 25° | 18km/h | 21741m | 4.8m/s | -52.0°C | 1.0% | 44.0hPa | 2.6V | 00:00:00 | 00:00:00 | 00:00:00 | |
| DM0DOS-11 | 2026-09-05 12:29:56 | 55.87483 | 5.25862 | 23° | 16km/h | 21731m | 5.9m/s | -52°C | 3.9% | 44hPa | 2.6V | 08:30:00 | 01:33:55 | 00:00:00 | |
| DL1XH-15 | 2026-09-05 12:29:55 | 55.87467 | 5.25839 | 53° | 18km/h | 21704m | 5.9m/s | -51.8°C | 3.9% | 44.2hPa | 2.7V | 08:30:00 | 01:33:50 | 00:00:00 | |
| GOEST3-10 | 2026-09-05 12:29:55 | 55.87483 | 5.25862 | 24° | 16km/h | 21731m | 5.8m/s | -52.0°C | 3.9% | 44.0hPa | 2.7V | 00:00:00 | 00:00:00 | 00:00:00 | |
| BIOWL7-15 | 2026-09-05 12:29:53 | 55.87476 | 5.25855 | 39° | 15km/h | 21721m | 5.2m/s | -51.9°C | 0% | 44.1hPa | 2.7V | 00:00:00 | 00:00:00 | 00:00:00 | |
| DF5WG-10 | 2026-09-05 12:29:52 | 55.87473 | 5.25850 | 41° | 16km/h | 21715m | 5.6m/s | -51.9°C | 3.9% | 44.1hPa | 2.7V | 00:00:00 | 01:33:52 | 00:00:00 | |
| DM0DOS-11 | 2026-09-05 12:29:50 | 55.87453 | 5.25811 | 25° | 16km/h | 21679m | 4.4m/s | -51.6°C | 3.7% | 44.4hPa | 2.7V | 08:30:00 | 01:33:45 | 00:00:00 | |
| BIOWL1-15 | 2026-09-05 12:29:50 | 55.87467 | 5.25839 | 54° | 18km/h | 21704m | 5.9m/s | -51.8°C | 0.5% | 44.2hPa | 2.7V | 18:12:15 | 01:33:50 | 00:00:00 | |
| DL1XH-west | 2026-09-05 12:29:48 | 55.87463 | 5.25826 | 58° | 16km/h | 21694m | 4.3m/s | -51.7°C | 0.4% | 44.3hPa | 2.6V | 18:12:15 | 01:33:48 | 00:00:00 | |
| BIOWL1-15 | 2026-09-05 12:29:40 | 55.87438 | 5.25800 | 34° | 16km/h | 21653m | 5m/s | -51.5°C | 0.4% | 44.5hPa | 2.6V | 18:12:15 | 01:33:40 | 00:00:00 | |
| GOEST3-10 | 2026-09-05 12:29:40 | 55.87438 | 5.25800 | 35° | 18km/h | 21653m | 5.0m/s | -51.4°C | 3.7% | 44.5hPa | 2.6V | 00:00:00 | 01:33:40 | 00:00:00 | |
| DL1XH-15 | 2026-09-05 12:29:39 | 55.87429 | 5.25783 | 55° | 18km/h | 21637m | 5m/s | -51.4°C | 3.7% | 44.6hPa | 2.6V | 08:30:00 | 01:33:37 | 00:00:00 | |
| DM0DOS-11 | 2026-09-05 12:29:38 | 55.87423 | 5.25767 | 60° | 24km/h | 21627m | 5m/s | -51.3°C | 3.7% | 44.7hPa | 2.6V | 08:30:00 | 01:33:35 | 00:00:00 | |
| DL1XH-west | 2026-09-05 12:29:38 | 55.87431 | 5.25790 | 49° | 18km/h | 21643m | 5.6m/s | -51.4°C | 0.4% | 44.6hPa | 2.7V | 18:12:15 | 01:33:38 | 00:00:00 | |
| BIOWL1-15 | 2026-09-05 12:29:30 | 55.87411 | 5.25726 | 58° | 18km/h | 21601m | 6.2m/s | -51.2°C | 0.3% | 44.9hPa | 2.6V | 18:12:15 | 01:33:30 | 00:00:00 | |
| DL1XH-west | 2026-09-05 12:29:28 | 55.87406 | 5.25711 | 54° | 20km/h | 21591m | 4.3m/s | -51.2°C | 0.3% | 45hPa | 2.6V | 18:12:15 | 01:33:28 | 00:00:00 | |
| DM0DOS-11 | 2026-09-05 12:29:26 | 55.87399 | 5.25688 | 74° | 20km/h | 21575m | 4.8m/s | -51.1°C | 3.6% | 45.1hPa | 2.7V | 08:30:00 | 01:33:25 | 00:00:00 | |
| DL1XH-west | 2026-09-05 12:29:17 | 55.87385 | 5.25601 | 67° | 31km/h | 21533m | 5.1m/s | -51.3°C | 0.3% | 45.4hPa | 2.6V | 18:12:15 | 01:33:17 | 00:00:00 | |
| DM0DOS-11 | 2026-09-05 12:29:16 | 55.87380 | 5.25576 | 69° | 27km/h | 21523m | 4.7m/s | -51.3°C | 3.6% | 45.5hPa | 2.7V | 08:30:00 | 01:33:15 | 00:00:00 | |
| GOEST3-10 | 2026-09-05 12:29:15 | 55.87380 | 5.25576 | 70° | 29km/h | 21523m | 4.6m/s | -51.2°C | 3.6% | 45.4hPa | 2.7V | 00:00:00 | 00:00:00 | 08:30:00 | |
| BIOWL7-15 | 2026-09-05 12:29:12 | 55.87371 | 5.25540 | 69° | 31km/h | 21507m | 4.2m/s | -51.4°C | 0% | 45.6hPa | 2.6V | 00:00:00 | 00:00:00 | 00:00:00 | |
| DF5WG-10 | 2026-09-05 12:29:11 | 55.87369 | 5.25527 | 74° | 27km/h | 21502m | 5.5m/s | -51.5°C | 3.7% | 45.6hPa | 2.6V | 00:00:00 | 01:33:11 | 08:30:00 | |
| GOEST3-10 | 2026-09-05 12:29:10 | 55.87368 | 5.25513 | 85° | 29km/h | 21497m | 5.5m/s | -51.5°C | 3.7% | 45.6hPa | 2.6V | 00:00:00 | 01:33:10 | 00:00:00 | |
| DM0DOS-11 | 2026-09-05 12:29:08 | 55.87369 | 5.25447 | 87° | 26km/h | 21472m | 4.8m/s | -51.7°C | 3.7% | 45.9hPa | 2.6V | 08:30:00 | 01:33:05 | 00:00:00 | |
| BIOWL1-15 | 2026-09-05 12:29:07 | 55.87369 | 5.25473 | 94° | 31km/h | 21481m | 5.4m/s | -51.7°C | 0.4% | 45.8hPa | 2.6V | 18:12:15 | 01:33:07 | 00:00:00 | |
| DL1XH-west | 2026-09-05 12:29:07 | 55.87369 | 5.25460 | 88° | 29km/h | 21477m | 4.8m/s | -51.7°C | 0.4% | 45.8hPa | 2.6V | 18:12:15 | 01:33:06 | 00:00:00 | |
| BIOWL1-15 | 2026-09-05 12:28:57 | 55.87369 | 5.25373 | 107° | 24km/h | 21430m | 5.5m/s | -51.6°C | 0.4% | 46.1hPa | 2.5V | 18:12:15 | 01:32:57 | 00:00:00 | |
| DM0DOS-11 | 2026-09-05 12:28:56 | 55.87377 | 5.25324 | 107° | 29km/h | 21410m | 4.3m/s | -51.6°C | 3.7% | 46.3hPa | 2.7V | 08:30:00 | 01:32:53 | 00:00:00 | |
| DL1XH-west | 2026-09-05 12:28:56 | 55.87370 | 5.25362 | 106° | 27km/h | 21425m | 4.7m/s | -51.6°C | 0.3% | 46.1hPa | 2.6V | 18:12:15 | 01:32:56 | 00:00:00 | |
| BIOWL9-15 | 2026-09-05 12:28:55 | 55.87372 | 5.25350 | 106° | 29km/h | 21420m | 4.4m/s | -51.6°C | 1.0% | 46.2hPa | 2.7V | 00:00:00 | 00:00:00 | 00:00:00 | |
| DJ2DS-15 | 2026-09-05 12:28:53 | 55.87379 | 5.25312 | 102° | 27km/h | 21405m | 4.8m/s | -51.6°C | 1.0% | 46.3hPa | 2.7V | 00:00:00 | 00:00:00 | 00:00:00 | |
| DF5WG-10 | 2026-09-05 12:28:51 | 55.87380 | 5.25299 | 96° | 22km/h | 21401m | 5.0m/s | -51.6°C | 3.7% | 46.3hPa | 2.7V | 00:00:00 | 01:32:51 | 00:00:00 | |
| GOEST3-10 | 2026-09-05 12:28:50 | 55.87380 | 5.25287 | 90° | 22km/h | 21396m | 4.0m/s | -51.7°C | 3.7% | 46.3hPa | 2.7V | 00:00:00 | 01:32:50 | 00:00:00 | |
| DM0DOS-11 | 2026-09-05 12:28:48 | 55.87380 | 5.25225 | 111° | 20km/h | 21361m | 5.5m/s | -51.9°C | 3.8% | 46.6hPa | 2.7V | 08:30:00 | 01:32:43 | 00:00:00 | |
| BIOWL1-15 | 2026-09-05 12:28:46 | 55.87379 | 5.25250 | 81° | 18km/h | 21375m | 5.4m/s | -51.9°C | 0.4% | 46.5hPa | 2.6V | 18:12:15 | 01:32:46 | 00:00:00 | |
| DL1XH-west | 2026-09-05 12:28:45 | 55.87378 | 5.25241 | 87° | 18km/h | 21371m | 3.6m/s | -51.9°C | 0.5% | 46.5hPa | 2.6V | 18:12:15 | 01:32:45 | 00:00:00 | |
| GOEST3-10 | 2026-09-05 12:28:45 | 55.87378 | 5.25241 | 88° | 22km/h | 21371m | 3.6m/s | -51.8°C | 3.8% | 46.5hPa | 2.6V | 00:00:00 | 00:00:00 | 00:00:00 | |
| DJ2DS-15 | 2026-09-05 12:28:43 | 55.87380 | 5.25225 | 112° | 31km/h | 21362m | 5.4m/s | -51.9°C | 3.8% | 46.6hPa | 2.6V | 00:00:00 | 01:32:43 | 00:00:00 | |
| DF5WG-10 | 2026-09-05 12:28:41 | 55.87386 | 5.25206 | 120° | 31km/h | 21352m | 5.6m/s | -51.8°C | 3.8% | 46.7hPa | 2.6V | 00:00:00 | 01:32:41 | 00:00:00 | |
| GOEST3-10 | 2026-09-05 12:28:40 | 55.87389 | 5.25194 | 116° | 33km/h | 21347m | 5.0m/s | -51.7°C | 3.8% | 46.7hPa | 2.6V | 00:00:00 | 01:32:40 | 00:00:00 | |
| DM0DOS-11 | 2026-09-05 12:28:36 | 55.87405 | 5.25097 | 97° | 29km/h | 21312m | 6m/s | -51.7°C | 3.7% | 47hPa | 2.6V | 08:30:00 | 01:32:33 | 00:00:00 | |
| DL1XH-west | 2026-09-05 12:28:34 | 55.87405 | 5.25097 | 97° | 29km/h | 21312m | 6m/s | -51.7°C | 0.4% | 47hPa | 2.6V | 18:12:15 | 01:32:33 | 00:00:00 | |
| DF5WG-10 | 2026-09-05 12:28:30 | 55.87410 | 5.25061 | 107° | 35km/h | 21297m | 5.4m/s | -51.7°C | 3.7% | 47.0hPa | 2.6V | 00:00:00 | 01:32:30 | 00:00:00 | |
| DL1XH-15 | 2026-09-05 12:28:29 | 55.87414 | 5.25035 | 102° | 33km/h | 21287m | 4.5m/s | -51.7°C | 3.6% | 47.2hPa | 2.6V | 08:30:00 | 01:32:28 | 00:00:00 | |
| DM0DOS-11 | 2026-09-05 12:28:28 | 55.87426 | 5.24958 | 101° | 38km/h | 21261m | 3.9m/s | -51.8°C | 3.7% | 47.4hPa | 2.7V | 08:30:00 | 01:32:23 | 00:00:00 | |
| BIOWL1-15 | 2026-09-05 12:28:25 | 55.87421 | 5.24991 | 106° | 37km/h | 21271m | 5.2m/s | -51.8°C | 0.4% | 47.3hPa | 2.6V | 18:12:15 | 01:32:25 | 00:00:00 | |
| DL1XH-west | 2026-09-05 12:28:24 | 55.87426 | 5.24958 | 102° | 38km/h | 21261m | 3.9m/s | -51.8°C | 0.4% | 47.4hPa | 2.7V | 18:12:15 | 01:32:23 | 00:00:00 | |
| BIOWL1-15 | 2026-09-05 12:28:17 | 55.87438 | 5.24835 | 101° | 33km/h | 21220m | 4.9m/s | -51.7°C | 0.4% | 47.6hPa | 2.6V | 18:12:15 | 01:32:15 | 00:00:00 | |
| DM0DOS-11 | 2026-09-05 12:28:16 | 55.87441 | 5.24805 | 96° | 37km/h | 21210m | 4.3m/s | -51.8°C | 3.6% | 47.7hPa | 2.6V | 08:30:00 | 01:32:13 | 00:00:00 | |
| DL1XH-west | 2026-09-05 12:28:13 | 55.87441 | 5.24805 | 96° | 37km/h | 21210m | 4.3m/s | -51.8°C | 0.3% | 47.7hPa | 2.6V | 18:12:15 | 01:32:13 | 00:00:00 | |
| DL1XH-15 | 2026-09-05 12:28:12 | 55.87452 | 5.24709 | 99° | 31km/h | 21181m | 4.4m/s | -52.1°C | 3.7% | 48hPa | 2.6V | 08:30:00 | 01:32:07 | 00:00:00 | |
| GOEST3-10 | 2026-09-05 12:28:05 | 55.87454 | 5.24684 | 104° | 26km/h | 21170m | 5.6m/s | -52.1°C | 3.7% | 48.0hPa | 2.6V | 00:00:00 | 00:00:00 | 00:00:00 | |
| DM0DOS-11 | 2026-09-05 12:28:04 | 55.87457 | 5.24662 | 98° | 26km/h | 21160m | 5.7m/s | -52.3°C | 3.7% | 48.1hPa | 2.6V | 08:30:00 | 01:32:03 | 00:00:00 | |
| BIOWL1-15 | 2026-09-05 12:28:04 | 55.87456 | 5.24673 | 102° | 26km/h | 21165m | 4.8m/s | -52.3°C | 0.4% | 48.1hPa | 2.6V | 18:12:15 | 01:32:04 | 00:00:00 | |
| DL1XH-west | 2026-09-05 12:28:03 | 55.87457 | 5.24651 | 95° | 26km/h | 21155m | 4.1m/s | -52.4°C | 0.5% | 48.1hPa | 2.6V | 18:12:15 | 01:32:02 | 00:00:00 | |
| DJ2DS-15 | 2026-09-05 12:28:03 | 55.87457 | 5.24662 | 99° | 26km/h | 21160m | 5.7m/s | -52.3°C | 3.7% | 48.0hPa | 2.6V | 00:00:00 | 01:32:03 | 00:00:00 | |
| DF5WG-10 | 2026-09-05 12:28:00 | 55.87459 | 5.24627 | 102° | 27km/h | 21145m | 5.8m/s | -52.4°C | 3.9% | 48.2hPa | 2.6V | 00:00:00 | 01:32:00 | 00:00:00 | |
| DL1XH-15 | 2026-09-05 12:27:59 | 55.87464 | 5.24592 | 102° | 27km/h | 21130m | 5.7m/s | -52.5°C | 3.9% | 48.3hPa | 2.6V | 08:30:00 | 01:31:57 | 00:00:00 | |
| DM0DOS-11 | 2026-09-05 12:27:58 | 55.87470 | 5.24544 | 108° | 27km/h | 21110m | 4.1m/s | -52.5°C | 3.9% | 48.5hPa | 2.6V | 08:30:00 | 01:31:53 | 00:00:00 | |
| BIOWL1-15 | 2026-09-05 12:27:55 | 55.87470 | 5.24544 | 109° | 27km/h | 21110m | 4.1m/s | -52.5°C | 0.5% | 48.5hPa | 2.6V | 18:12:15 | 01:31:53 | 00:00:00 | |
| DL1XH-west | 2026-09-05 12:27:53 | 55.87472 | 5.24532 | 106° | 27km/h | 21106m | 5.4m/s | -52.6°C | 0.5% | 48.5hPa | 2.6V | 18:12:15 | 01:31:52 | 00:00:00 | |
| DL1XH-15 | 2026-09-05 12:27:52 | 55.87483 | 5.24480 | 118° | 24km/h | 21081m | 4.8m/s | -52.7°C | 4% | 48.7hPa | 2.6V | 08:30:00 | 01:31:47 | 00:00:00 | |
| DF5WG-10 | 2026-09-05 12:27:50 | 55.87475 | 5.24510 | 108° | 26km/h | 21096m | 4.2m/s | -52.7°C | 4.0% | 48.5hPa | 2.6V | 00:00:00 | 01:31:50 | 00:00:00 | |
| DM0DOS-11 | 2026-09-05 12:27:45 | 55.87490 | 5.24438 | 105° | 26km/h | 21061m | 4.9m/s | -52.6°C | 4% | 48.9hPa | 2.6V | 08:30:00 | 01:31:43 | 00:00:00 | |
| BIOWL1-15 | 2026-09-05 12:27:43 | 55.87491 | 5.24438 | 105° | 26km/h | 21061m | 4.9m/s | -52.6°C | 0.6% | 48.9hPa | 2.6V | 18:12:15 | 01:31:43 | 00:00:00 | |
| DL1XH-west | 2026-09-05 12:27:42 | 55.87492 | 5.24426 | 103° | 27km/h | 21056m | 3.7m/s | -52.6°C | 0.5% | 48.9hPa | 2.6V | 18:12:15 | 01:31:42 | 00:00:00 | |
| DF5WG-10 | 2026-09-05 12:27:40 | 55.87493 | 5.24402 | 89° | 26km/h | 21046m | 4.8m/s | -52.5°C | 3.9% | 48.9hPa | 2.7V | 00:00:00 | 01:31:40 | 08:30:00 | |
| DL1XH-15 | 2026-09-05 12:27:39 | 55.87494 | 5.24368 | 94° | 24km/h | 21032m | 3.8m/s | -52.4°C | 3.9% | 49.1hPa | 2.6V | 08:30:00 | 01:31:37 | 00:00:00 | |
| DM0DOS-11 | 2026-09-05 12:27:35 | 55.87494 | 5.24325 | 91° | 26km/h | 21011m | 5.7m/s | -52.3°C | 3.9% | 49.2hPa | 2.5V | 08:30:00 | 01:31:33 | 00:00:00 | |
| GOEST3-10 | 2026-09-05 12:27:35 | 55.87494 | 5.24347 | 89° | 26km/h | 21022m | 5.6m/s | -52.3°C | 3.9% | 49.1hPa | 2.6V | 00:00:00 | 00:00:00 | 00:00:00 | |
| DL1XH-15 | 2026-09-05 12:27:32 | 55.87495 | 5.24250 | 93° | 29km/h | 20982m | 4.1m/s | -52.2°C | 3.8% | 49.5hPa | 2.6V | 08:30:00 | 01:31:27 | 00:00:00 | |
| DL1XH-west | 2026-09-05 12:27:32 | 55.87494 | 5.24314 | 95° | 27km/h | 21006m | 4.2m/s | -52.3°C | 0.4% | 49.3hPa | 2.6V | 18:12:15 | 01:31:32 | 00:00:00 | |
| GOEST3-10 | 2026-09-05 12:27:30 | 55.87495 | 5.24289 | 88° | 29km/h | 20997m | 4.3m/s | -52.2°C | 3.8% | 49.3hPa | 2.7V | 00:00:00 | 01:31:30 | 00:00:00 | |
| DF5WG-10 | 2026-09-05 12:27:29 | 55.87494 | 5.24276 | 88° | 27km/h | 20992m | 4.3m/s | -52.2°C | 3.9% | 49.3hPa | 2.6V | 00:00:00 | 01:31:29 | 00:00:00 | |
| GOEST3-10 | 2026-09-05 12:27:25 | 55.87494 | 5.24224 | 82° | 27km/h | 20973m | 5.4m/s | -52.2°C | 3.8% | 49.5hPa | 2.6V | 00:00:00 | 00:00:00 | 00:00:00 | |
| DM0DOS-11 | 2026-09-05 12:27:24 | 55.87491 | 5.24202 | 75° | 26km/h | 20962m | 5.8m/s | -52.3°C | 3.9% | 49.6hPa | 2.6V | 08:30:00 | 01:31:23 | 00:00:00 | |
| DL1XH-west | 2026-09-05 12:27:22 | 55.87489 | 5.24190 | 75° | 26km/h | 20957m | 5.1m/s | -52.3°C | 0.5% | 49.6hPa | 2.5V | 18:12:15 | 01:31:22 | 00:00:00 | |
| GOEST3-10 | 2026-09-05 12:27:20 | 55.87485 | 5.24166 | 72° | 31km/h | 20948m | 4.8m/s | -52.2°C | 3.9% | 49.7hPa | 2.6V | 00:00:00 | 01:31:20 | 00:00:00 | |
| DL1XH-15 | 2026-09-05 12:27:19 | 55.87479 | 5.24111 | 81° | 33km/h | 20928m | 3.9m/s | -52.2°C | 3.9% | 49.9hPa | 2.6V | 08:30:00 | 01:31:16 | 00:00:00 | |
| DF5WG-10 | 2026-09-05 12:27:18 | 55.87481 | 5.24140 | 78° | 31km/h | 20937m | 6.1m/s | -52.2°C | 3.9% | 49.8hPa | 2.7V | 00:00:00 | 01:31:18 | 00:00:00 | |
| DM0DOS-11 | 2026-09-05 12:27:15 | 55.87473 | 5.24070 | 70° | 31km/h | 20914m | 3.8m/s | -52.3°C | 3.8% | 50hPa | 2.7V | 08:30:00 | 01:31:13 | 00:00:00 | |
| BIOWL1-15 | 2026-09-05 12:27:12 | 55.87470 | 5.24057 | 73° | 31km/h | 20909m | 5.2m/s | -52.4°C | 0.5% | 50hPa | 2.7V | 18:12:15 | 01:31:12 | 00:00:00 | |
| GOEST3-10 | 2026-09-05 12:27:10 | 55.87467 | 5.24031 | 77° | 26km/h | 20899m | 4.6m/s | -52.3°C | 3.9% | 50.0hPa | 2.6V | 00:00:00 | 01:31:10 | 00:00:00 | |
| DM0DOS-11 | 2026-09-05 12:27:08 | 55.87458 | 5.23951 | 71° | 29km/h | 20865m | 5m/s | -52.1°C | 3.8% | 50.3hPa | 2.6V | 08:30:00 | 01:31:03 | 00:00:00 | |
| DF5WG-10 | 2026-09-05 12:27:08 | 55.87464 | 5.24009 | 79° | 29km/h | 20889m | 3.8m/s | -52.2°C | 3.9% | 50.1hPa | 2.5V | 00:00:00 | 01:31:08 | 00:00:00 | |
| DL1XH-15 | 2026-09-05 12:27:06 | 55.87453 | 5.23926 | 72° | 31km/h | 20856m | 4.8m/s | -52.1°C | 3.8% | 50.4hPa | 2.6V | 08:30:00 | 01:31:01 | 00:00:00 | |
| DL1XH-west | 2026-09-05 12:27:02 | 55.87456 | 5.23939 | 71° | 29km/h | 20861m | 4.6m/s | -52.1°C | 0.4% | 50.4hPa | 2.6V | 18:12:15 | 01:31:02 | 00:00:00 | |
| BIOWL1-15 | 2026-09-05 12:27:01 | 55.87453 | 5.23926 | 73° | 31km/h | 20856m | 4.9m/s | -52.1°C | 0.5% | 50.4hPa | 2.6V | 18:12:15 | 01:31:01 | 00:00:00 | |
| GOEST3-10 | 2026-09-05 12:27:00 | 55.87451 | 5.23912 | 72° | 35km/h | 20851m | 3.7m/s | -52.0°C | 3.8% | 50.4hPa | 2.7V | 00:00:00 | 01:31:00 | 08:30:00 | |
| DM0DOS-11 | 2026-09-05 12:26:58 | 55.87429 | 5.23816 | 69° | 29km/h | 20818m | 5.4m/s | -52°C | 3.8% | 50.7hPa | 2.7V | 08:30:00 | 01:30:53 | 00:00:00 | |
| DL1XH-west | 2026-09-05 12:26:51 | 55.87423 | 5.23792 | 64° | 27km/h | 20809m | 4.6m/s | -51.9°C | 0.4% | 50.8hPa | 2.6V | 18:12:15 | 01:30:51 | 00:00:00 | |
| DL1XH-west | 2026-09-05 12:26:40 | 55.87381 | 5.23661 | 59° | 33km/h | 20754m | 5.2m/s | -52°C | 0.4% | 51.2hPa | 2.6V | 18:12:15 | 01:30:40 | 00:00:00 | |
| GOEST3-10 | 2026-09-05 12:26:40 | 55.87381 | 5.23661 | 60° | 33km/h | 20755m | 5.2m/s | -52.0°C | 3.8% | 51.2hPa | 2.6V | 00:00:00 | 01:30:40 | 00:00:00 | |
| DM0DOS-11 | 2026-09-05 12:26:38 | 55.87353 | 5.23576 | 59° | 27km/h | 20722m | 5.2m/s | -52°C | 3.9% | 51.5hPa | 2.6V | 08:30:00 | 01:30:33 | 00:00:00 | |
| BIOWL1-15 | 2026-09-05 12:26:29 | 55.87333 | 5.23516 | 55° | 22km/h | 20693m | 5.1m/s | -51.8°C | 0.5% | 51.8hPa | 2.6V | 18:12:15 | 01:30:27 | 00:00:00 | |
| DL1XH-west | 2026-09-05 12:26:29 | 55.87340 | 5.23535 | 58° | 27km/h | 20703m | 3.9m/s | -51.8°C | 0.5% | 51.6hPa | 2.5V | 18:12:15 | 01:30:29 | 00:00:00 | |
| DM0DOS-11 | 2026-09-05 12:26:28 | 55.87317 | 5.23488 | 38° | 22km/h | 20672m | 5.7m/s | -51.8°C | 3.8% | 51.9hPa | 2.6V | 08:30:00 | 01:30:23 | 00:00:00 | |
| DL1XH-west | 2026-09-05 12:26:19 | 55.87297 | 5.23456 | 56° | 20km/h | 20647m | 5.6m/s | -51.7°C | 0.4% | 52.1hPa | 2.6V | 18:12:15 | 01:30:18 | 00:00:00 | |
| BIOWL1-15 | 2026-09-05 12:26:18 | 55.87292 | 5.23440 | 69° | 20km/h | 20637m | 5m/s | -51.6°C | 0.4% | 52.2hPa | 2.7V | 18:12:15 | 01:30:16 | 00:00:00 | |
| DL1XH-west | 2026-09-05 12:26:08 | 55.87273 | 5.23378 | 49° | 20km/h | 20597m | 5.4m/s | -51.3°C | 0.4% | 52.5hPa | 2.6V | 18:12:15 | 01:30:08 | 00:00:00 | |
| BIOWL1-15 | 2026-09-05 12:26:05 | 55.87249 | 5.23326 | 58° | 18km/h | 20564m | 4.3m/s | -51.3°C | 0.4% | 52.8hPa | 2.7V | 18:12:15 | 01:30:01 | 00:00:00 | |
| DL1XH-west | 2026-09-05 12:25:57 | 55.87238 | 5.23299 | 52° | 16km/h | 20543m | 4m/s | -51.4°C | 0.4% | 52.9hPa | 2.5V | 18:12:15 | 01:29:57 | 00:00:00 | |
| BIOWL1-15 | 2026-09-05 12:25:53 | 55.87209 | 5.23251 | 51° | 22km/h | 20504m | 4.3m/s | -51.2°C | 0.4% | 53.3hPa | 2.7V | 18:12:15 | 01:29:49 | 00:00:00 | |
| DJ2DS-15 | 2026-09-05 12:25:52 | 55.87219 | 5.23270 | 43° | 18km/h | 20519m | 5.0m/s | -51.2°C | 1.0% | 53.1hPa | 2.6V | 00:00:00 | 00:00:00 | 00:00:00 | |
| BIOWL9-15 | 2026-09-05 12:25:49 | 55.87206 | 5.23244 | 51° | 18km/h | 20500m | 3.8m/s | -51.2°C | 1.0% | 53.3hPa | 2.6V | 00:00:00 | 00:00:00 | 00:00:00 | |
| DM0DOS-11 | 2026-09-05 12:25:48 | 55.87194 | 5.23214 | 52° | 16km/h | 20474m | 3.8m/s | -51.2°C | 3.7% | 53.5hPa | 2.6V | 08:30:00 | 01:29:43 | 00:00:00 | |
| DL1XH-west | 2026-09-05 12:25:47 | 55.87203 | 5.23237 | 55° | 16km/h | 20494m | 5.9m/s | -51.2°C | 0.5% | 53.4hPa | 2.6V | 18:12:15 | 01:29:47 | 00:00:00 | |
| BIOWL1-15 | 2026-09-05 12:25:43 | 55.87194 | 5.23214 | 52° | 16km/h | 20474m | 3.8m/s | -51.2°C | 0.4% | 53.5hPa | 2.6V | 18:12:15 | 01:29:43 | 00:00:00 | |
| DL1XH-west | 2026-09-05 12:25:37 | 55.87177 | 5.23194 | 23° | 13km/h | 20443m | 5.6m/s | -51°C | 0.3% | 53.8hPa | 2.6V | 18:12:15 | 01:29:37 | 00:00:00 | |
| DM0DOS-11 | 2026-09-05 12:25:35 | 55.87168 | 5.23180 | 60° | 13km/h | 20423m | 4.3m/s | -51°C | 3.7% | 54hPa | 2.6V | 08:30:00 | 01:29:33 | 00:00:00 | |
| BIOWL1-15 | 2026-09-05 12:25:35 | 55.87168 | 5.23180 | 60° | 13km/h | 20423m | 4.3m/s | -51.1°C | 0.4% | 54hPa | 2.6V | 18:12:15 | 01:29:33 | 00:00:00 | |
| DL1XH-15 | 2026-09-05 12:25:33 | 55.87166 | 5.23171 | 68° | 9km/h | 20413m | 4.5m/s | -51.1°C | 3.7% | 54hPa | 2.7V | 08:30:00 | 01:29:31 | 00:00:00 | |
| GOEST3-10 | 2026-09-05 12:25:30 | 55.87165 | 5.23168 | 59° | 9km/h | 20408m | 5.4m/s | -51.0°C | 3.8% | 54.0hPa | 2.7V | 00:00:00 | 01:29:30 | 08:30:00 | |
| DM0DOS-11 | 2026-09-05 12:25:28 | 55.87151 | 5.23155 | 29° | 11km/h | 20373m | 4.7m/s | -50.9°C | 3.7% | 54.4hPa | 2.6V | 08:30:00 | 01:29:23 | 00:00:00 | |
| DL1XH-west | 2026-09-05 12:25:27 | 55.87157 | 5.23157 | 11° | 7km/h | 20388m | 5.1m/s | -51°C | 0.4% | 54.2hPa | 2.6V | 18:12:15 | 01:29:26 | 00:00:00 | |
| BIOWL1-15 | 2026-09-05 12:25:24 | 55.87149 | 5.23152 | 48° | 11km/h | 20368m | 4.5m/s | -50.9°C | 0.4% | 54.4hPa | 2.6V | 18:12:15 | 01:29:22 | 00:00:00 | |
| DF5WG-10 | 2026-09-05 12:25:21 | 55.87147 | 5.23148 | 71° | 7km/h | 20364m | 5.6m/s | 0°C | 0% | 0hPa | 2.6V | 00:00:00 | 01:29:21 | 00:00:00 | |
| GOEST3-10 | 2026-09-05 12:25:20 | 55.87147 | 5.23144 | 99° | 11km/h | 20358m | 4.5m/s | -50.8°C | 3.7% | 54.5hPa | 2.6V | 00:00:00 | 01:29:20 | 00:00:00 | |
| DM0DOS-11 | 2026-09-05 12:25:18 | 55.87154 | 5.23115 | 125° | 4km/h | 20323m | 4.6m/s | -50.7°C | 3.6% | 54.8hPa | 2.6V | 08:30:00 | 01:29:13 | 00:00:00 | |
| DL1XH-west | 2026-09-05 12:25:16 | 55.87151 | 5.23124 | 111° | 13km/h | 20337m | 4.9m/s | -50.7°C | 0.4% | 54.7hPa | 2.6V | 18:12:15 | 01:29:16 | 00:00:00 | |
| BIOWL1-15 | 2026-09-05 12:25:12 | 55.87155 | 5.23113 | 85° | 4km/h | 20317m | 5.6m/s | -50.7°C | 0.3% | 54.8hPa | 2.7V | 18:12:15 | 01:29:12 | 00:00:00 | |
| GOEST3-10 | 2026-09-05 12:25:10 | 55.87153 | 5.23108 | 61° | 7km/h | 20308m | 4.8m/s | -50.5°C | 3.6% | 54.8hPa | 2.7V | 00:00:00 | 01:29:10 | 00:00:00 | |
| DF5WG-10 | 2026-09-05 12:25:09 | 55.87153 | 5.23106 | 83° | 15km/h | 20303m | 5.8m/s | 0°C | 0% | 0hPa | 2.7V | 00:00:00 | 01:29:09 | 00:00:00 | |
| DL1XH-15 | 2026-09-05 12:25:06 | 55.87168 | 5.23068 | 141° | 15km/h | 20262m | 4.2m/s | -50.4°C | 3.6% | 55.3hPa | 2.7V | 08:30:00 | 01:29:01 | 00:00:00 | |
| DL1XH-west | 2026-09-05 12:25:05 | 55.87158 | 5.23090 | 116° | 16km/h | 20283m | 4.9m/s | -50.4°C | 0.3% | 55.1hPa | 2.7V | 18:12:15 | 01:29:05 | 00:00:00 | |
| GOEST3-10 | 2026-09-05 12:25:05 | 55.87158 | 5.23090 | 116° | 16km/h | 20283m | 4.9m/s | -50.4°C | 3.6% | 55.1hPa | 2.5V | 00:00:00 | 00:00:00 | 00:00:00 | |
| DM0DOS-11 | 2026-09-05 12:25:04 | 55.87162 | 5.23077 | 128° | 16km/h | 20272m | 5.6m/s | -50.4°C | 3.5% | 55.2hPa | 2.5V | 08:30:00 | 01:29:03 | 00:00:00 | |
| BIOWL1-15 | 2026-09-05 12:25:01 | 55.87173 | 5.23058 | 124° | 15km/h | 20252m | 4.6m/s | -50.4°C | 0.3% | 55.4hPa | 2.6V | 18:12:15 | 01:28:59 | 00:00:00 | |
| GOEST3-10 | 2026-09-05 12:25:00 | 55.87171 | 5.23063 | 137° | 15km/h | 20257m | 5.9m/s | -50.4°C | 3.6% | 55.3hPa | 2.6V | 00:00:00 | 01:29:00 | 00:00:00 | |
| DM0DOS-11 | 2026-09-05 12:24:58 | 55.87191 | 5.23017 | 115° | 20km/h | 20218m | 5.1m/s | -50.3°C | 3.6% | 55.6hPa | 2.6V | 08:30:00 | 01:28:52 | 00:00:00 | |
| DL1XH-west | 2026-09-05 12:24:55 | 55.87183 | 5.23038 | 136° | 18km/h | 20233m | 3.7m/s | -50.4°C | 0.4% | 55.5hPa | 2.7V | 18:12:15 | 01:28:55 | 00:00:00 | |
| GOEST3-10 | 2026-09-05 12:24:55 | 55.87183 | 5.23038 | 137° | 18km/h | 20234m | 3.6m/s | -50.4°C | 3.6% | 55.5hPa | 2.6V | 00:00:00 | 00:00:00 | 00:00:00 | |
| DL1XH-15 | 2026-09-05 12:24:53 | 55.87193 | 5.23010 | 114° | 18km/h | 20213m | 5.1m/s | -50.3°C | 3.6% | 55.7hPa | 2.6V | 08:30:00 | 01:28:51 | 00:00:00 | |
| BIOWL1-15 | 2026-09-05 12:24:51 | 55.87193 | 5.23010 | 115° | 18km/h | 20213m | 5.1m/s | -50.3°C | 0.3% | 55.7hPa | 2.6V | 18:12:15 | 01:28:51 | 00:00:00 | |
| GOEST3-10 | 2026-09-05 12:24:50 | 55.87195 | 5.23003 | 114° | 16km/h | 20208m | 3.9m/s | -50.2°C | 3.5% | 55.7hPa | 2.7V | 00:00:00 | 01:28:50 | 00:00:00 | |
| DM0DOS-11 | 2026-09-05 12:24:47 | 55.87209 | 5.22949 | 115° | 22km/h | 20170m | 3.8m/s | -49.9°C | 3.5% | 56.1hPa | 2.7V | 08:30:00 | 01:28:42 | 00:00:00 | |
| BIOWL9-15 | 2026-09-05 12:24:47 | 55.87200 | 5.22976 | 117° | 13km/h | 20188m | 5.1m/s | -50.1°C | 1.0% | 55.9hPa | 2.7V | 00:00:00 | 00:00:00 | 00:00:00 | |
| DL1XH-15 | 2026-09-05 12:24:46 | 55.87211 | 5.22940 | 118° | 24km/h | 20165m | 5.1m/s | -49.9°C | 3.5% | 56.1hPa | 2.7V | 08:30:00 | 01:28:41 | 00:00:00 | |
| DL1XH-west | 2026-09-05 12:24:44 | 55.87204 | 5.22964 | 125° | 16km/h | 20179m | 4.4m/s | -50°C | 0.3% | 56hPa | 2.6V | 18:12:15 | 01:28:44 | 00:00:00 | |
| BIOWL1-15 | 2026-09-05 12:24:40 | 55.87221 | 5.22914 | 120° | 24km/h | 20150m | 4.8m/s | -49.8°C | 0.3% | 56.3hPa | 2.6V | 18:12:15 | 01:28:38 | 00:00:00 | |
| GOEST3-10 | 2026-09-05 12:24:40 | 55.87214 | 5.22931 | 123° | 24km/h | 20160m | 5.5m/s | -49.8°C | 3.5% | 56.1hPa | 2.6V | 00:00:00 | 01:28:40 | 00:00:00 | |
| DM0DOS-11 | 2026-09-05 12:24:37 | 55.87232 | 5.22859 | 105° | 18km/h | 20120m | 5.2m/s | -49.8°C | 3.4% | 56.5hPa | 2.6V | 08:30:00 | 01:28:32 | 00:00:00 | |
| DL1XH-west | 2026-09-05 12:24:33 | 55.87231 | 5.22867 | 110° | 20km/h | 20125m | 4.4m/s | -49.8°C | 0.3% | 56.5hPa | 2.6V | 18:12:15 | 01:28:33 | 00:00:00 | |
| DL1XH-15 | 2026-09-05 12:24:30 | 55.87236 | 5.22837 | 114° | 15km/h | 20105m | 4.7m/s | -50°C | 3.4% | 56.7hPa | 2.6V | 08:30:00 | 01:28:29 | 00:00:00 | |
| BIOWL1-15 | 2026-09-05 12:24:30 | 55.87237 | 5.22831 | 113° | 13km/h | 20100m | 4.8m/s | -50°C | 0.3% | 56.7hPa | 2.6V | 18:12:15 | 01:28:28 | 00:00:00 | |
| GOEST3-10 | 2026-09-05 12:24:30 | 55.87234 | 5.22843 | 108° | 15km/h | 20111m | 5.6m/s | -49.9°C | 3.5% | 56.6hPa | 2.6V | 00:00:00 | 01:28:30 | 00:00:00 | |
| DM0DOS-11 | 2026-09-05 12:24:27 | 55.87248 | 5.22786 | 112° | 24km/h | 20071m | 4.5m/s | -50°C | 3.5% | 56.9hPa | 2.6V | 08:30:00 | 01:28:22 | 00:00:00 | |
| DF5WG-10 | 2026-09-05 12:24:26 | 55.87240 | 5.22818 | 108° | 20km/h | 20090m | 3.8m/s | 0°C | 0% | 0hPa | 2.6V | 00:00:00 | 01:28:26 | 08:30:00 | |
| GOEST3-10 | 2026-09-05 12:24:25 | 55.87241 | 5.22811 | 111° | 22km/h | 20086m | 5.3m/s | -49.9°C | 3.5% | 56.8hPa | 2.6V | 00:00:00 | 00:00:00 | 00:00:00 | |
| DL1XH-15 | 2026-09-05 12:24:24 | 55.87254 | 5.22752 | 104° | 27km/h | 20057m | 4.8m/s | -50°C | 3.5% | 57.1hPa | 2.6V | 08:30:00 | 01:28:19 | 00:00:00 | |
| DL1XH-west | 2026-09-05 12:24:23 | 55.87248 | 5.22786 | 112° | 24km/h | 20071m | 4.5m/s | -50°C | 0.3% | 57hPa | 2.6V | 18:12:15 | 01:28:22 | 00:00:00 | |
| BIOWL1-15 | 2026-09-05 12:24:18 | 55.87256 | 5.22740 | 106° | 26km/h | 20052m | 5.2m/s | -50°C | 0.3% | 57.1hPa | 2.6V | 18:12:15 | 01:28:18 | 00:00:00 | |
| DM0DOS-11 | 2026-09-05 12:24:17 | 55.87265 | 5.22677 | 104° | 24km/h | 20023m | 4.2m/s | -49.9°C | 3.5% | 57.4hPa | 2.7V | 08:30:00 | 01:28:12 | 00:00:00 | |
| DL1XH-west | 2026-09-05 12:24:12 | 55.87265 | 5.22677 | 104° | 24km/h | 20023m | 4.3m/s | -49.9°C | 0.3% | 57.4hPa | 2.7V | 18:12:15 | 01:28:12 | 00:00:00 | |
| GOEST3-10 | 2026-09-05 12:24:10 | 55.87268 | 5.22656 | 98° | 26km/h | 20013m | 4.9m/s | -49.9°C | 3.6% | 57.4hPa | 2.7V | 00:00:00 | 01:28:10 | 00:00:00 | |
| DL1XH-15 | 2026-09-05 12:24:09 | 55.87272 | 5.22598 | 96° | 27km/h | 19989m | 5.2m/s | -50°C | 3.6% | 57.7hPa | 2.7V | 08:30:00 | 01:28:05 | 00:00:00 | |
| BIOWL1-15 | 2026-09-05 12:24:07 | 55.87270 | 5.22621 | 99° | 26km/h | 19999m | 4.5m/s | -50°C | 0.3% | 57.6hPa | 2.6V | 18:12:15 | 01:28:07 | 00:00:00 | |
| DM0DOS-11 | 2026-09-05 12:24:07 | 55.87275 | 5.22562 | 104° | 26km/h | 19974m | 4.2m/s | -49.9°C | 3.5% | 57.8hPa | 2.5V | 08:30:00 | 01:28:02 | 00:00:00 | |
| DL1XH-west | 2026-09-05 12:24:02 | 55.87275 | 5.22562 | 105° | 26km/h | 19974m | 4.2m/s | -49.9°C | 0.3% | 57.8hPa | 2.5V | 18:12:15 | 01:28:02 | 00:00:00 | |
| GOEST3-10 | 2026-09-05 12:24:00 | 55.87278 | 5.22538 | 104° | 27km/h | 19965m | 5.6m/s | -50.0°C | 3.6% | 57.8hPa | 2.7V | 00:00:00 | 01:28:00 | 08:30:00 | |
| DL1XH-15 | 2026-09-05 12:23:59 | 55.87281 | 5.22477 | 85° | 29km/h | 19940m | 5.9m/s | -50°C | 3.6% | 58.1hPa | 2.6V | 08:30:00 | 01:27:55 | 00:00:00 | |
| BIOWL1-15 | 2026-09-05 12:23:57 | 55.87281 | 5.22501 | 93° | 26km/h | 19950m | 4.9m/s | -50.1°C | 0.4% | 58hPa | 2.7V | 18:12:15 | 01:27:57 | 00:00:00 | |
| DM0DOS-11 | 2026-09-05 12:23:57 | 55.87280 | 5.22436 | 93° | 29km/h | 19927m | 4.7m/s | -49.9°C | 3.5% | 58.2hPa | 2.6V | 08:30:00 | 01:27:52 | 00:00:00 | |
| DL1XH-west | 2026-09-05 12:23:51 | 55.87281 | 5.22409 | 95° | 31km/h | 19917m | 6m/s | -49.8°C | 0.3% | 58.3hPa | 2.7V | 18:12:15 | 01:27:50 | 00:00:00 | |
| GOEST3-10 | 2026-09-05 12:23:50 | 55.87281 | 5.22409 | 95° | 29km/h | 19917m | 5.9m/s | -49.8°C | 3.5% | 58.3hPa | 2.7V | 00:00:00 | 01:27:50 | 00:00:00 | |
| DL1XH-15 | 2026-09-05 12:23:49 | 55.87284 | 5.22342 | 95° | 29km/h | 19892m | 5m/s | -49.6°C | 3.5% | 58.5hPa | 2.7V | 08:30:00 | 01:27:45 | 00:00:00 | |
| DM0DOS-11 | 2026-09-05 12:23:47 | 55.87283 | 5.22299 | 85° | 33km/h | 19878m | 5.3m/s | -49.6°C | 3.5% | 58.7hPa | 2.7V | 08:30:00 | 01:27:42 | 00:00:00 | |
| BIOWL1-15 | 2026-09-05 12:23:46 | 55.87285 | 5.22329 | 88° | 33km/h | 19888m | 4.9m/s | -49.6°C | 0.3% | 58.6hPa | 2.6V | 18:12:15 | 01:27:44 | 00:00:00 | |
| BIOWL9-15 | 2026-09-05 12:23:44 | 55.87285 | 5.22329 | 87° | 31km/h | 19888m | 4.9m/s | -49.6°C | 0.9% | 58.6hPa | 2.7V | 00:00:00 | 00:00:00 | 00:00:00 | |
| DL1XH-west | 2026-09-05 12:23:41 | 55.87282 | 5.22285 | 80° | 31km/h | 19873m | 4.9m/s | -49.6°C | 0.3% | 58.7hPa | 2.7V | 18:12:15 | 01:27:41 | 00:00:00 | |
| GOEST3-10 | 2026-09-05 12:23:40 | 55.87281 | 5.22272 | 76° | 29km/h | 19868m | 4.7m/s | -49.5°C | 3.5% | 58.7hPa | 2.7V | 00:00:00 | 01:27:40 | 00:00:00 | |
| DL1XH-15 | 2026-09-05 12:23:39 | 55.87270 | 5.22210 | 81° | 27km/h | 19842m | 4.5m/s | -49.5°C | 3.5% | 59hPa | 2.7V | 08:30:00 | 01:27:35 | 00:00:00 | |
| DM0DOS-11 | 2026-09-05 12:23:36 | 55.87267 | 5.22171 | 85° | 29km/h | 19826m | 5m/s | -49.4°C | 3.5% | 59.1hPa | 2.6V | 08:30:00 | 01:27:32 | 00:00:00 | |
| BIOWL1-15 | 2026-09-05 12:23:33 | 55.87268 | 5.22184 | 85° | 29km/h | 19832m | 5.5m/s | -49.4°C | 0.3% | 59.1hPa | 2.5V | 18:12:15 | 01:27:33 | 00:00:00 | |
| DL1XH-west | 2026-09-05 12:23:31 | 55.87267 | 5.22158 | 87° | 27km/h | 19821m | 5.4m/s | -49.3°C | 0.3% | 59.2hPa | 2.7V | 18:12:15 | 01:27:31 | 00:00:00 | |
| GOEST3-10 | 2026-09-05 12:23:30 | 55.87266 | 5.22146 | 85° | 31km/h | 19816m | 3.9m/s | -49.2°C | 3.5% | 59.2hPa | 2.6V | 00:00:00 | 01:27:30 | 00:00:00 | |
| DL1XH-15 | 2026-09-05 12:23:29 | 55.87255 | 5.22076 | 69° | 33km/h | 19792m | 5.6m/s | -49.1°C | 3.5% | 59.5hPa | 2.6V | 08:30:00 | 01:27:25 | 00:00:00 | |
| BIOWL1-15 | 2026-09-05 12:23:22 | 55.87247 | 5.22038 | 67° | 31km/h | 19776m | 5.7m/s | -49°C | 0.3% | 59.6hPa | 2.6V | 18:12:15 | 01:27:22 | 00:00:00 | |
| DL1XH-west | 2026-09-05 12:23:21 | 55.87244 | 5.22025 | 67° | 31km/h | 19771m | 5.2m/s | -48.9°C | 0.2% | 59.6hPa | 2.7V | 18:12:15 | 01:27:21 | 00:00:00 | |
| GOEST3-10 | 2026-09-05 12:23:20 | 55.87241 | 5.22013 | 68° | 33km/h | 19766m | 5.9m/s | -48.8°C | 3.4% | 59.6hPa | 2.6V | 00:00:00 | 01:27:20 | 00:00:00 | |
| DL1XH-15 | 2026-09-05 12:23:19 | 55.87226 | 5.21945 | 70° | 33km/h | 19739m | 5.5m/s | -48.7°C | 3.4% | 59.9hPa | 2.6V | 08:30:00 | 01:27:15 | 00:00:00 | |
| GOEST3-10 | 2026-09-05 12:23:15 | 55.87226 | 5.21945 | 71° | 35km/h | 19740m | 5.5m/s | -48.7°C | 3.4% | 59.9hPa | 2.6V | 00:00:00 | 00:00:00 | 08:30:00 | |
| DM0DOS-11 | 2026-09-05 12:23:13 | 55.87216 | 5.21886 | 74° | 37km/h | 19720m | 4.2m/s | -48.6°C | 3.4% | 60.1hPa | 2.7V | 08:30:00 | 01:27:11 | 00:00:00 | |
| DL1XH-west | 2026-09-05 12:23:11 | 55.87216 | 5.21886 | 74° | 37km/h | 19720m | 4.2m/s | -48.6°C | 0.3% | 60.1hPa | 2.7V | 18:12:15 | 01:27:11 | 00:00:00 | |
| GOEST3-10 | 2026-09-05 12:23:10 | 55.87213 | 5.21871 | 75° | 31km/h | 19715m | 6.0m/s | -48.6°C | 3.4% | 60.1hPa | 2.7V | 00:00:00 | 01:27:10 | 00:00:00 | |
| GOEST3-10 | 2026-09-05 12:23:05 | 55.87201 | 5.21804 | 69° | 31km/h | 19689m | 5.7m/s | -48.4°C | 3.4% | 60.3hPa | 2.7V | 00:00:00 | 00:00:00 | 00:00:00 | |
| DM0DOS-11 | 2026-09-05 12:23:04 | 55.87190 | 5.21753 | 69° | 37km/h | 19669m | 4.9m/s | -48.3°C | 3.4% | 60.6hPa | 2.7V | 08:30:00 | 01:27:01 | 00:00:00 | |
| DL1XH-west | 2026-09-05 12:23:00 | 55.87187 | 5.21737 | 70° | 40km/h | 19664m | 4.7m/s | -48.3°C | 0.2% | 60.6hPa | 2.6V | 18:12:15 | 01:27:00 | 00:00:00 | |
| GOEST3-10 | 2026-09-05 12:23:00 | 55.87187 | 5.21736 | 70° | 40km/h | 19664m | 4.7m/s | -48.2°C | 3.3% | 60.6hPa | 2.6V | 00:00:00 | 01:27:00 | 00:00:00 | |
| GOEST3-10 | 2026-09-05 12:22:55 | 55.87168 | 5.21654 | 65° | 33km/h | 19639m | 3.8m/s | -48.0°C | 3.3% | 60.8hPa | 2.7V | 00:00:00 | 00:00:00 | 00:00:00 | |
| DM0DOS-11 | 2026-09-05 12:22:52 | 55.87155 | 5.21599 | 65° | 27km/h | 19620m | 4.9m/s | -47.9°C | 3.2% | 61hPa | 2.7V | 08:30:00 | 01:26:51 | 00:00:00 | |
| BIOWL1-15 | 2026-09-05 12:22:50 | 55.87152 | 5.21588 | 63° | 29km/h | 19614m | 5.4m/s | -47.8°C | 0.1% | 61.1hPa | 2.7V | 18:12:15 | 01:26:50 | 00:00:00 | |
| DL1XH-west | 2026-09-05 12:22:49 | 55.87148 | 5.21576 | 63° | 31km/h | 19610m | 4.3m/s | -47.7°C | 0.1% | 61.1hPa | 2.7V | 18:12:15 | 01:26:49 | 00:00:00 | |
| DL1XH-15 | 2026-09-05 12:22:47 | 55.87135 | 5.21519 | 67° | 38km/h | 19591m | 5.5m/s | -47.6°C | 3.1% | 61.3hPa | 2.7V | 08:30:00 | 01:26:45 | 00:00:00 | |
| GOEST3-10 | 2026-09-05 12:22:45 | 55.87134 | 5.21519 | 68° | 38km/h | 19591m | 5.4m/s | -47.5°C | 3.1% | 61.3hPa | 2.7V | 00:00:00 | 00:00:00 | 00:00:00 | |
| DM0DOS-11 | 2026-09-05 12:22:44 | 55.87122 | 5.21453 | 75° | 37km/h | 19571m | 4.6m/s | -47.4°C | 3.2% | 61.5hPa | 2.5V | 08:30:00 | 01:26:41 | 00:00:00 | |
| BIOWL1-15 | 2026-09-05 12:22:39 | 55.87116 | 5.21422 | 71° | 37km/h | 19561m | 4.2m/s | -47.4°C | 0% | 61.6hPa | 2.6V | 18:12:15 | 01:26:39 | 00:00:00 | |
| DL1XH-15 | 2026-09-05 12:22:39 | 55.87106 | 5.21343 | 75° | 38km/h | 19536m | 5.4m/s | -47.3°C | 3% | 61.8hPa | 2.6V | 08:30:00 | 01:26:34 | 00:00:00 | |
| DL1XH-west | 2026-09-05 12:22:38 | 55.87113 | 5.21406 | 73° | 37km/h | 19556m | 4.7m/s | -47.4°C | 0% | 61.6hPa | 2.7V | 18:12:15 | 01:26:38 | 00:00:00 | |
| BIOWL1-15 | 2026-09-05 12:22:28 | 55.87073 | 5.21206 | 88° | 33km/h | 19487m | 4.3m/s | -47.6°C | 0.1% | 62.3hPa | 2.6V | 18:12:15 | 01:26:24 | 00:00:00 | |
| DL1XH-15 | 2026-09-05 12:22:28 | 55.87074 | 5.21206 | 87° | 33km/h | 19487m | 4.3m/s | -47.6°C | 3.1% | 62.3hPa | 2.6V | 08:30:00 | 01:26:24 | 00:00:00 | |
| DL1XH-west | 2026-09-05 12:22:27 | 55.87081 | 5.21244 | 57° | 31km/h | 19502m | 4.4m/s | -47.6°C | 0% | 0hPa | 2.7V | 18:12:15 | 01:26:27 | 00:00:00 | |
| DL1XH-west | 2026-09-05 12:22:16 | 55.87068 | 5.21051 | 76° | 35km/h | 19445m | 3m/s | -48.6°C | 0% | 0hPa | 2.6V | 18:12:15 | 01:26:15 | 00:00:00 | |
| DL1XH-15 | 2026-09-05 12:22:16 | 55.87066 | 5.21036 | 78° | 33km/h | 19441m | 5.1m/s | -48.6°C | 3.1% | 62.7hPa | 2.5V | 08:30:00 | 01:26:14 | 00:00:00 | |
| GOEST3-10 | 2026-09-05 12:22:16 | 55.87068 | 5.21051 | 77° | 35km/h | 19445m | 2.9m/s | -48.5°C | 3.0% | 62.7hPa | 2.6V | 00:00:00 | 00:00:00 | 00:00:00 | |
| DM0DOS-11 | 2026-09-05 12:22:14 | 55.87069 | 5.20992 | 106° | 37km/h | 19426m | 4.9m/s | -48.8°C | 3.1% | 62.9hPa | 2.7V | 08:30:00 | 01:26:11 | 00:00:00 | |
| BIOWL1-15 | 2026-09-05 12:22:13 | 55.87066 | 5.21022 | 90° | 31km/h | 19436m | 4.8m/s | -48.7°C | 0% | 62.8hPa | 2.6V | 18:12:15 | 01:26:13 | 00:00:00 | |
| BIOWL9-15 | 2026-09-05 12:22:11 | 55.87069 | 5.20992 | 106° | 35km/h | 19427m | 4.9m/s | -48.9°C | 0.9% | 62.9hPa | 2.7V | 00:00:00 | 00:00:00 | 00:00:00 | |
| GOEST3-10 | 2026-09-05 12:22:10 | 55.87071 | 5.20976 | 108° | 38km/h | 19421m | 4.9m/s | -48.9°C | 3.1% | 62.9hPa | 2.7V | 00:00:00 | 01:26:10 | 00:00:00 | |
| DL1XH-15 | 2026-09-05 12:22:09 | 55.87090 | 5.20880 | 96° | 35km/h | 19393m | 4.3m/s | -49.1°C | 3.1% | 63.2hPa | 2.7V | 08:30:00 | 01:26:04 | 00:00:00 | |
| DL1XH-west | 2026-09-05 12:22:06 | 55.87088 | 5.20896 | 102° | 37km/h | 19397m | 4.8m/s | -49.1°C | 0.1% | 0hPa | 2.6V | 18:12:15 | 01:26:05 | 00:00:00 | |
| BIOWL1-15 | 2026-09-05 12:22:02 | 55.87093 | 5.20824 | 98° | 33km/h | 19373m | 4.5m/s | -49.5°C | 0.1% | 63.4hPa | 2.6V | 18:12:15 | 01:26:00 | 00:00:00 | |
| DJ2DS-15 | 2026-09-05 12:22:02 | 55.87091 | 5.20851 | 95° | 38km/h | 19383m | 4.4m/s | -49.3°C | 3.2% | 63.2hPa | 2.7V | 00:00:00 | 01:26:02 | 00:00:00 | |
| GOEST3-10 | 2026-09-05 12:22:00 | 55.87093 | 5.20824 | 98° | 35km/h | 19373m | 4.4m/s | -49.5°C | 3.1% | 63.3hPa | 2.6V | 00:00:00 | 01:26:00 | 00:00:00 | |
| DL1XH-15 | 2026-09-05 12:21:55 | 55.87113 | 5.20733 | 112° | 40km/h | 19345m | 3.6m/s | -51°C | 3.5% | 63.6hPa | 2.6V | 08:30:00 | 01:25:54 | 00:00:00 | |
| DL1XH-west | 2026-09-05 12:21:54 | 55.87113 | 5.20733 | 113° | 40km/h | 19345m | 3.6m/s | 0°C | 0% | 0hPa | 2.6V | 18:12:15 | 01:25:54 | 00:00:00 | |
| BIOWL1-15 | 2026-09-05 12:21:51 | 55.87124 | 5.20686 | 111° | 35km/h | 19332m | 3.5m/s | -51.5°C | 0.5% | 63.8hPa | 2.6V | 18:12:15 | 01:25:51 | 00:00:00 | |
| DM0DOS-11 | 2026-09-05 12:21:48 | 55.87132 | 5.20607 | 96° | 42km/h | 19309m | 3.2m/s | -51.7°C | 3.8% | 64hPa | 2.5V | 08:30:00 | 01:25:46 | 00:00:00 | |
| BIOWL1-15 | 2026-09-05 12:21:40 | 55.87149 | 5.20413 | 101° | 44km/h | 19265m | 4.1m/s | -51.8°C | 0.5% | 64.5hPa | 2.7V | 18:12:15 | 01:25:37 | 00:00:00 | |
| DL1XH-15 | 2026-09-05 12:21:40 | 55.87152 | 5.20374 | 94° | 42km/h | 19255m | 5.8m/s | -51.7°C | 3.8% | 64.5hPa | 2.7V | 08:30:00 | 01:25:35 | 00:00:00 | |
| GOEST3-10 | 2026-09-05 12:21:35 | 55.87152 | 5.20374 | 95° | 42km/h | 19255m | 5.8m/s | -51.7°C | 3.8% | 64.5hPa | 2.7V | 00:00:00 | 00:00:00 | 00:00:00 | |
| DM0DOS-11 | 2026-09-05 12:21:34 | 55.87149 | 5.20261 | 85° | 44km/h | 19226m | 3.7m/s | -51.5°C | 3.8% | 64.8hPa | 2.7V | 08:30:00 | 01:25:29 | 00:00:00 | |
| BIOWL1-15 | 2026-09-05 12:21:29 | 55.87149 | 5.20261 | 86° | 44km/h | 19226m | 3.7m/s | -51.6°C | 0.5% | 64.8hPa | 2.7V | 18:12:15 | 01:25:29 | 00:00:00 | |
| DL1XH-15 | 2026-09-05 12:21:26 | 55.87157 | 5.20107 | 95° | 44km/h | 19189m | 4.4m/s | -51.5°C | 3.8% | 65.2hPa | 2.6V | 08:30:00 | 01:25:21 | 00:00:00 | |
| BIOWL1-15 | 2026-09-05 12:21:19 | 55.87158 | 5.19968 | 90° | 42km/h | 19155m | 4.7m/s | -51.4°C | 0.5% | 65.5hPa | 2.7V | 18:12:15 | 01:25:14 | 00:00:00 | |
| GOEST3-10 | 2026-09-05 12:21:15 | 55.87158 | 5.19987 | 91° | 42km/h | 19161m | 5.2m/s | -51.4°C | 3.8% | 65.5hPa | 2.7V | 00:00:00 | 00:00:00 | 00:00:00 | |
| DL1XH-15 | 2026-09-05 12:21:12 | 55.87160 | 5.19895 | 92° | 40km/h | 19136m | 5.2m/s | -51.4°C | 3.9% | 65.7hPa | 2.5V | 08:30:00 | 01:25:10 | 00:00:00 | |
| BIOWL1-15 | 2026-09-05 12:21:08 | 55.87161 | 5.19787 | 86° | 44km/h | 19107m | 3.9m/s | -51.2°C | 0.5% | 66hPa | 2.6V | 18:12:15 | 01:25:04 | 00:00:00 | |
| DL1XH-west | 2026-09-05 12:21:08 | 55.87161 | 5.19859 | 92° | 40km/h | 19126m | 5.4m/s | -51.4°C | 0.5% | 65.8hPa | 2.6V | 18:12:15 | 01:25:08 | 00:00:00 | |
| DL1XH-15 | 2026-09-05 12:21:05 | 55.87158 | 5.19707 | 85° | 46km/h | 19088m | 5.4m/s | -51.1°C | 3.8% | 66.2hPa | 2.7V | 08:30:00 | 01:25:00 | 00:00:00 | |
| DL1XH-west | 2026-09-05 12:20:57 | 55.87155 | 5.19649 | 87° | 40km/h | 19075m | 4.9m/s | -51°C | 0.5% | 66.4hPa | 2.6V | 18:12:15 | 01:24:57 | 00:00:00 | |
| BIOWL1-15 | 2026-09-05 12:20:55 | 55.87155 | 5.19586 | 85° | 35km/h | 19057m | 4.2m/s | -50.8°C | 0.5% | 66.6hPa | 2.5V | 18:12:15 | 01:24:53 | 00:00:00 | |
| GOEST3-10 | 2026-09-05 12:20:55 | 55.87155 | 5.19616 | 92° | 35km/h | 19067m | 4.0m/s | -50.9°C | 3.7% | 66.4hPa | 2.7V | 00:00:00 | 00:00:00 | 00:00:00 | |
| DL1XH-15 | 2026-09-05 12:20:52 | 55.87152 | 5.19540 | 86° | 33km/h | 19045m | 4m/s | -50.8°C | 3.7% | 66.7hPa | 2.7V | 08:30:00 | 01:24:50 | 00:00:00 | |
| DL1XH-west | 2026-09-05 12:20:47 | 55.87149 | 5.19496 | 76° | 35km/h | 19031m | 5m/s | -50.7°C | 0.4% | 66.8hPa | 2.6V | 18:12:15 | 01:24:47 | 00:00:00 | |
| DL1XH-15 | 2026-09-05 12:20:46 | 55.87142 | 5.19373 | 93° | 38km/h | 18995m | 5.2m/s | -50.6°C | 3.7% | 67.2hPa | 2.7V | 08:30:00 | 01:24:40 | 00:00:00 | |
| GOEST3-10 | 2026-09-05 12:20:45 | 55.87145 | 5.19464 | 81° | 40km/h | 19022m | 5.4m/s | -50.7°C | 3.7% | 66.9hPa | 2.7V | 00:00:00 | 00:00:00 | 00:00:00 | |
| DM0DOS-11 | 2026-09-05 12:20:44 | 55.87143 | 5.19429 | 84° | 42km/h | 19011m | 5.7m/s | -50.6°C | 3.7% | 67hPa | 2.6V | 08:30:00 | 01:24:43 | 00:00:00 | |
| BIOWL1-15 | 2026-09-05 12:20:43 | 55.87143 | 5.19429 | 85° | 42km/h | 19011m | 5.7m/s | -50.7°C | 0.5% | 67hPa | 2.6V | 18:12:15 | 01:24:43 | 00:00:00 | |
| DJ2DS-15 | 2026-09-05 12:20:42 | 55.87142 | 5.19410 | 88° | 38km/h | 19006m | 3.9m/s | -50.6°C | 3.7% | 67.1hPa | 2.6V | 00:00:00 | 01:24:42 | 00:00:00 | |
| GOEST3-10 | 2026-09-05 12:20:40 | 55.87142 | 5.19373 | 94° | 37km/h | 18996m | 5.1m/s | -50.6°C | 3.7% | 67.2hPa | 2.6V | 00:00:00 | 01:24:40 | 00:00:00 | |
| DM0DOS-11 | 2026-09-05 12:20:38 | 55.87142 | 5.19260 | 89° | 38km/h | 18961m | 5.7m/s | -50.5°C | 3.7% | 67.5hPa | 2.6V | 08:30:00 | 01:24:33 | 00:00:00 | |
| DL1XH-west | 2026-09-05 12:20:37 | 55.87143 | 5.19323 | 87° | 37km/h | 18981m | 4.2m/s | -50.5°C | 0.4% | 67.3hPa | 2.6V | 18:12:15 | 01:24:37 | 00:00:00 | |
| GOEST3-10 | 2026-09-05 12:20:35 | 55.87142 | 5.19292 | 89° | 38km/h | 18971m | 5.0m/s | -50.5°C | 3.7% | 67.4hPa | 2.6V | 00:00:00 | 00:00:00 | 00:00:00 | |
| BIOWL1-15 | 2026-09-05 12:20:35 | 55.87142 | 5.19260 | 89° | 38km/h | 18961m | 5.7m/s | -50.5°C | 0.5% | 67.5hPa | 2.6V | 18:12:15 | 01:24:33 | 00:00:00 | |
| DL1XH-15 | 2026-09-05 12:20:32 | 55.87143 | 5.19205 | 97° | 42km/h | 18945m | 4.4m/s | -50.4°C | 3.7% | 67.7hPa | 2.6V | 08:30:00 | 01:24:30 | 00:00:00 | |
| DL1XH-west | 2026-09-05 12:20:26 | 55.87147 | 5.19131 | 97° | 40km/h | 18926m | 5.2m/s | -50.4°C | 0.5% | 67.9hPa | 2.7V | 18:12:15 | 01:24:26 | 00:00:00 | |
| DM0DOS-11 | 2026-09-05 12:20:25 | 55.87152 | 5.19080 | 96° | 38km/h | 18912m | 5m/s | -50.4°C | 3.7% | 68.1hPa | 2.6V | 08:30:00 | 01:24:23 | 00:00:00 | |
| BIOWL1-15 | 2026-09-05 12:20:22 | 55.87156 | 5.19029 | 101° | 38km/h | 18897m | 4.7m/s | -50.3°C | 0.5% | 68.2hPa | 2.6V | 18:12:15 | 01:24:20 | 00:00:00 | |
| DL1XH-west | 2026-09-05 12:20:16 | 55.87162 | 5.18938 | 97° | 44km/h | 18875m | 5.5m/s | -50.1°C | 0.4% | 68.4hPa | 2.7V | 18:12:15 | 01:24:15 | 00:00:00 | |
| DM0DOS-11 | 2026-09-05 12:20:16 | 55.87165 | 5.18899 | 99° | 44km/h | 18865m | 5m/s | -50°C | 3.6% | 68.5hPa | 2.6V | 08:30:00 | 01:24:13 | 00:00:00 | |
| GOEST3-10 | 2026-09-05 12:20:15 | 55.87162 | 5.18938 | 97° | 44km/h | 18875m | 5.5m/s | -50.1°C | 3.6% | 68.4hPa | 2.7V | 00:00:00 | 00:00:00 | 08:30:00 | |
| DL1XH-15 | 2026-09-05 12:20:12 | 55.87170 | 5.18844 | 102° | 40km/h | 18850m | 5.5m/s | -50°C | 3.5% | 68.7hPa | 2.7V | 08:30:00 | 01:24:10 | 00:00:00 | |
| BIOWL1-15 | 2026-09-05 12:20:12 | 55.87172 | 5.18827 | 106° | 40km/h | 18845m | 3.8m/s | -50°C | 0.3% | 68.7hPa | 2.6V | 18:12:15 | 01:24:09 | 00:00:00 | |
| GOEST3-10 | 2026-09-05 12:20:10 | 55.87170 | 5.18844 | 103° | 38km/h | 18851m | 5.5m/s | -49.9°C | 3.5% | 68.6hPa | 2.7V | 00:00:00 | 01:24:10 | 00:00:00 | |
| BIOWL9-15 | 2026-09-05 12:20:07 | 55.87177 | 5.18793 | 102° | 35km/h | 18836m | 4.5m/s | -50.0°C | 1.0% | 68.8hPa | 2.7V | 00:00:00 | 00:00:00 | 00:00:00 | |
| DL1XH-15 | 2026-09-05 12:20:05 | 55.87194 | 5.18672 | 102° | 44km/h | 18803m | 4.7m/s | -50.1°C | 3.6% | 69.2hPa | 2.7V | 08:30:00 | 01:24:00 | 00:00:00 | |
| DL1XH-west | 2026-09-05 12:20:04 | 55.87183 | 5.18745 | 105° | 40km/h | 18822m | 4.5m/s | -50.1°C | 0.4% | 69hPa | 2.6V | 18:12:15 | 01:24:04 | 00:00:00 | |
| DJ2DS-15 | 2026-09-05 12:20:02 | 55.87189 | 5.18709 | 104° | 46km/h | 18813m | 5.2m/s | -50.1°C | 3.6% | 69.0hPa | 2.6V | 00:00:00 | 01:24:02 | 00:00:00 | |
| BIOWL1-15 | 2026-09-05 12:20:02 | 55.87189 | 5.18709 | 104° | 42km/h | 18813m | 5.3m/s | -50.1°C | 0.4% | 69.1hPa | 2.6V | 18:12:15 | 01:24:02 | 00:00:00 | |
| DM0DOS-11 | 2026-09-05 12:20:01 | 55.87204 | 5.18596 | 101° | 42km/h | 18784m | 4.3m/s | -50°C | 3.5% | 69.4hPa | 2.6V | 08:30:00 | 01:23:56 | 00:00:00 | |
| DL1XH-west | 2026-09-05 12:19:54 | 55.87212 | 5.18539 | 107° | 46km/h | 18769m | 4.1m/s | -50°C | 0.3% | 69.6hPa | 2.7V | 18:12:15 | 01:23:53 | 00:00:00 | |
| BIOWL1-15 | 2026-09-05 12:19:52 | 55.87215 | 5.18519 | 109° | 47km/h | 18765m | 4.5m/s | -50°C | 0.3% | 69.6hPa | 2.6V | 18:12:15 | 01:23:52 | 00:00:00 | |
| DL1XH-15 | 2026-09-05 12:19:51 | 55.87223 | 5.18481 | 108° | 44km/h | 18755m | 4.1m/s | -50°C | 3.4% | 69.7hPa | 2.7V | 08:30:00 | 01:23:50 | 00:00:00 | |
| DM0DOS-11 | 2026-09-05 12:19:50 | 55.87245 | 5.18379 | 107° | 49km/h | 18730m | 4.1m/s | -49.9°C | 3.4% | 70hPa | 2.5V | 08:30:00 | 01:23:45 | 00:00:00 | |
| GOEST3-10 | 2026-09-05 12:19:50 | 55.87222 | 5.18481 | 109° | 47km/h | 18755m | 4.0m/s | -49.9°C | 3.4% | 69.7hPa | 2.6V | 00:00:00 | 01:23:50 | 00:00:00 | |
| DL1XH-15 | 2026-09-05 12:19:45 | 55.87262 | 5.18275 | 103° | 44km/h | 18706m | 4.5m/s | -50°C | 3.5% | 70.2hPa | 2.6V | 08:30:00 | 01:23:40 | 00:00:00 | |
| BIOWL1-15 | 2026-09-05 12:19:43 | 55.87259 | 5.18294 | 106° | 47km/h | 18711m | 5.2m/s | -49.9°C | 0.3% | 70.2hPa | 2.6V | 18:12:15 | 01:23:41 | 00:00:00 | |
| DL1XH-west | 2026-09-05 12:19:43 | 55.87255 | 5.18315 | 106° | 49km/h | 18716m | 4.4m/s | -49.9°C | 0.3% | 70.1hPa | 2.7V | 18:12:15 | 01:23:42 | 00:00:00 | |
| DL1XH-west | 2026-09-05 12:19:32 | 55.87289 | 5.18097 | 103° | 46km/h | 18663m | 5.2m/s | -50.6°C | 0.5% | 70.7hPa | 2.6V | 18:12:15 | 01:23:31 | 00:00:00 | |
| DL1XH-15 | 2026-09-05 12:19:31 | 55.87291 | 5.18077 | 99° | 44km/h | 18658m | 4.2m/s | -50.5°C | 3.8% | 70.8hPa | 2.6V | 08:30:00 | 01:23:30 | 00:00:00 | |
| GOEST3-10 | 2026-09-05 12:19:30 | 55.87291 | 5.18077 | 100° | 40km/h | 18658m | 4.2m/s | -50.5°C | 3.8% | 70.7hPa | 2.6V | 00:00:00 | 01:23:30 | 08:30:00 | |
| DL1XH-15 | 2026-09-05 12:19:25 | 55.87314 | 5.17900 | 105° | 47km/h | 18611m | 4.5m/s | -50.1°C | 3.7% | 71.3hPa | 2.5V | 08:30:00 | 01:23:20 | 00:00:00 | |
| DL1XH-west | 2026-09-05 12:19:20 | 55.87314 | 5.17900 | 106° | 47km/h | 18611m | 4.5m/s | -50.1°C | 0.5% | 71.3hPa | 2.5V | 18:12:15 | 01:23:20 | 00:00:00 | |
| GOEST3-10 | 2026-09-05 12:19:20 | 55.87314 | 5.17900 | 106° | 44km/h | 18612m | 4.4m/s | -50.0°C | 3.7% | 71.2hPa | 2.6V | 00:00:00 | 01:23:20 | 00:00:00 | |
| DM0DOS-11 | 2026-09-05 12:19:15 | 55.87333 | 5.17797 | 109° | 33km/h | 18582m | 5.2m/s | -49.8°C | 3.5% | 71.6hPa | 2.6V | 08:30:00 | 01:23:14 | 00:00:00 | |
| GOEST3-10 | 2026-09-05 12:19:15 | 55.87330 | 5.17811 | 113° | 35km/h | 18586m | 3.9m/s | -49.8°C | 3.6% | 71.5hPa | 2.7V | 00:00:00 | 00:00:00 | 00:00:00 | |
| DL1XH-15 | 2026-09-05 12:19:11 | 55.87344 | 5.17737 | 109° | 40km/h | 18562m | 3.8m/s | -49.6°C | 3.6% | 71.8hPa | 2.7V | 08:30:00 | 01:23:10 | 00:00:00 | |
| DL1XH-west | 2026-09-05 12:19:10 | 55.87344 | 5.17737 | 109° | 40km/h | 18562m | 3.8m/s | -49.6°C | 0.4% | 71.8hPa | 2.7V | 18:12:15 | 01:23:10 | 00:00:00 | |
| BIOWL1-15 | 2026-09-05 12:19:10 | 55.87361 | 5.17645 | 110° | 44km/h | 18537m | 4.6m/s | -49.5°C | 0.3% | 72.1hPa | 2.7V | 18:12:15 | 01:23:05 | 00:00:00 | |
| DL1XH-15 | 2026-09-05 12:19:05 | 55.87379 | 5.17554 | 111° | 44km/h | 18513m | 4.3m/s | -49.5°C | 3.4% | 72.3hPa | 2.7V | 08:30:00 | 01:23:00 | 00:00:00 | |
| DL1XH-west | 2026-09-05 12:18:59 | 55.87383 | 5.17535 | 108° | 44km/h | 18508m | 5.6m/s | -49.5°C | 0.4% | 72.4hPa | 2.7V | 18:12:15 | 01:22:59 | 00:00:00 | |
| BIOWL1-15 | 2026-09-05 12:18:58 | 55.87393 | 5.17477 | 109° | 46km/h | 18493m | 4.2m/s | -49.5°C | 0.4% | 72.6hPa | 2.6V | 18:12:15 | 01:22:56 | 00:00:00 | |
| GOEST3-10 | 2026-09-05 12:18:54 | 55.87399 | 5.17437 | 105° | 49km/h | 18484m | 5.5m/s | -49.5°C | 3.4% | 72.7hPa | 2.7V | 00:00:00 | 00:00:00 | 00:00:00 | |
| DL1XH-15 | 2026-09-05 12:18:53 | 55.87413 | 5.17350 | 110° | 53km/h | 18465m | 4m/s | -49.5°C | 3.4% | 72.9hPa | 2.7V | 08:30:00 | 01:22:50 | 00:00:00 | |
| DM0DOS-11 | 2026-09-05 12:18:49 | 55.87440 | 5.17214 | 109° | 51km/h | 18436m | 5.2m/s | -49.9°C | 3.5% | 73.2hPa | 2.7V | 08:30:00 | 01:22:44 | 00:00:00 | |
| BIOWL1-15 | 2026-09-05 12:18:48 | 55.87422 | 5.17304 | 109° | 55km/h | 18456m | 5.1m/s | -49.5°C | 0.3% | 73hPa | 2.6V | 18:12:15 | 01:22:48 | 00:00:00 | |
| DL1XH-15 | 2026-09-05 12:18:45 | 55.87456 | 5.17133 | 111° | 49km/h | 18418m | 4.7m/s | -49.9°C | 3.6% | 73.4hPa | 2.6V | 08:30:00 | 01:22:40 | 00:00:00 | |
| GOEST3-10 | 2026-09-05 12:18:44 | 55.87440 | 5.17214 | 110° | 47km/h | 18437m | 5.1m/s | -49.8°C | 3.5% | 73.1hPa | 2.7V | 00:00:00 | 00:00:00 | 08:30:00 | |
| DJ2DS-15 | 2026-09-05 12:18:42 | 55.87448 | 5.17173 | 108° | 53km/h | 18428m | 3.7m/s | -49.9°C | 3.6% | 73.2hPa | 2.7V | 00:00:00 | 01:22:42 | 00:00:00 | |
| DM0DOS-11 | 2026-09-05 12:18:39 | 55.87482 | 5.16987 | 109° | 60km/h | 18390m | 3.4m/s | -49.9°C | 3.7% | 73.7hPa | 2.7V | 08:30:00 | 01:22:34 | 00:00:00 | |
| BIOWL1-15 | 2026-09-05 12:18:38 | 55.87465 | 5.17089 | 109° | 55km/h | 18408m | 5.4m/s | -49.9°C | 0.4% | 73.5hPa | 2.7V | 18:12:15 | 01:22:38 | 00:00:00 | |
| DL1XH-west | 2026-09-05 12:18:37 | 55.87469 | 5.17065 | 106° | 58km/h | 18404m | 4m/s | -49.9°C | 0.5% | 73.6hPa | 2.7V | 18:12:15 | 01:22:37 | 00:00:00 | |
| BIOWL1-15 | 2026-09-05 12:18:30 | 55.87517 | 5.16792 | 107° | 51km/h | 18348m | 5.3m/s | -49.6°C | 0.4% | 74.2hPa | 2.5V | 18:12:15 | 01:22:25 | 00:00:00 | |
| GOEST3-10 | 2026-09-05 12:18:29 | 55.87502 | 5.16874 | 110° | 49km/h | 18367m | 4.3m/s | -49.7°C | 3.6% | 73.9hPa | 2.7V | 00:00:00 | 01:22:29 | 00:00:00 | |
| DM0DOS-11 | 2026-09-05 12:18:28 | 55.87521 | 5.16769 | 107° | 55km/h | 18343m | 4.5m/s | -49.6°C | 3.5% | 74.3hPa | 2.7V | 08:30:00 | 01:22:24 | 00:00:00 | |
| DL1XH-west | 2026-09-05 12:18:26 | 55.87513 | 5.16813 | 106° | 49km/h | 18353m | 4.2m/s | -49.7°C | 0.3% | 74.2hPa | 2.5V | 18:12:15 | 01:22:26 | 00:00:00 | |
| BIOWL7-15 | 2026-09-05 12:18:25 | 55.87513 | 5.16813 | 107° | 49km/h | 18353m | 4.2m/s | 0°C | 0% | 0hPa | 2.6V | 00:00:00 | 00:00:00 | 00:00:00 | |
| GOEST3-10 | 2026-09-05 12:18:24 | 55.87521 | 5.16769 | 108° | 57km/h | 18343m | 4.5m/s | -49.6°C | 3.5% | 74.2hPa | 2.6V | 00:00:00 | 00:00:00 | 00:00:00 | |
| DJ2DS-15 | 2026-09-05 12:18:22 | 55.87529 | 5.16721 | 104° | 51km/h | 18332m | 5.1m/s | -49.5°C | 3.6% | 74.3hPa | 2.6V | 00:00:00 | 01:22:22 | 00:00:00 | |
| GOEST3-10 | 2026-09-05 12:18:19 | 55.87539 | 5.16643 | 105° | 55km/h | 18318m | 4.5m/s | -49.4°C | 3.6% | 74.5hPa | 2.6V | 00:00:00 | 01:22:19 | 00:00:00 | |
| DM0DOS-11 | 2026-09-05 12:18:18 | 55.87555 | 5.16527 | 109° | 47km/h | 18292m | 4.1m/s | -49.2°C | 3.5% | 74.9hPa | 2.6V | 08:30:00 | 01:22:14 | 00:00:00 | |
| DL1XH-west | 2026-09-05 12:18:16 | 55.87548 | 5.16570 | 103° | 53km/h | 18303m | 4.6m/s | -49.3°C | 0.4% | 74.7hPa | 2.7V | 18:12:15 | 01:22:16 | 00:00:00 | |
| BIOWL1-15 | 2026-09-05 12:18:14 | 55.87555 | 5.16527 | 110° | 47km/h | 18292m | 4.1m/s | -49.2°C | 0.4% | 74.9hPa | 2.6V | 18:12:15 | 01:22:14 | 00:00:00 | |
| DL1XH-west | 2026-09-05 12:18:05 | 55.87582 | 5.16351 | 105° | 49km/h | 18249m | 5.8m/s | -48.9°C | 0.3% | 75.4hPa | 2.7V | 18:12:15 | 01:22:05 | 00:00:00 | |
| DL1XH-15 | 2026-09-05 12:18:05 | 55.87598 | 5.16247 | 105° | 46km/h | 18223m | 4.8m/s | -48.7°C | 3.4% | 75.7hPa | 2.6V | 08:30:00 | 01:22:00 | 00:00:00 | |
| BIOWL1-15 | 2026-09-05 12:18:04 | 55.87585 | 5.16330 | 104° | 49km/h | 18243m | 4.4m/s | -48.8°C | 0.3% | 75.4hPa | 2.6V | 18:12:15 | 01:22:04 | 00:00:00 | |
| BIOWL9-15 | 2026-09-05 12:18:03 | 55.87592 | 5.16287 | 106° | 47km/h | 18233m | 5.0m/s | -48.8°C | 1.0% | 75.5hPa | 2.6V | 00:00:00 | 00:00:00 | 00:00:00 | |
| DJ2DS-15 | 2026-09-05 12:18:02 | 55.87592 | 5.16287 | 107° | 42km/h | 18233m | 4.9m/s | -48.7°C | 3.4% | 75.5hPa | 2.6V | 00:00:00 | 01:22:02 | 08:30:00 | |
| GOEST3-10 | 2026-09-05 12:17:59 | 55.87601 | 5.16228 | 106° | 42km/h | 18219m | 3.9m/s | -48.6°C | 3.3% | 75.6hPa | 2.7V | 00:00:00 | 01:21:59 | 08:30:00 | |
| DM0DOS-11 | 2026-09-05 12:17:58 | 55.87619 | 5.16118 | 104° | 42km/h | 18191m | 4.5m/s | -48.8°C | 3.4% | 76hPa | 2.6V | 08:30:00 | 01:21:53 | 00:00:00 | |
| BIOWL1-15 | 2026-09-05 12:17:54 | 55.87617 | 5.16136 | 105° | 44km/h | 18195m | 4.5m/s | -48.8°C | 0.3% | 76hPa | 2.6V | 18:12:15 | 01:21:54 | 00:00:00 | |
| GOEST3-10 | 2026-09-05 12:17:54 | 55.87617 | 5.16136 | 105° | 42km/h | 18196m | 4.5m/s | -48.8°C | 3.3% | 75.9hPa | 2.6V | 00:00:00 | 00:00:00 | 00:00:00 | |
| DL1XH-15 | 2026-09-05 12:17:52 | 55.87626 | 5.16064 | 98° | 40km/h | 18176m | 4.6m/s | -48.9°C | 3.3% | 76.2hPa | 2.6V | 08:30:00 | 01:21:50 | 00:00:00 | |
| GOEST3-10 | 2026-09-05 12:17:49 | 55.87627 | 5.16046 | 101° | 40km/h | 18172m | 5.9m/s | -48.9°C | 3.3% | 76.2hPa | 2.6V | 00:00:00 | 01:21:49 | 00:00:00 | |
| DM0DOS-11 | 2026-09-05 12:17:48 | 55.87645 | 5.15940 | 111° | 44km/h | 18143m | 4.8m/s | -49°C | 3.3% | 76.6hPa | 2.6V | 08:30:00 | 01:21:43 | 00:00:00 | |
| DL1XH-15 | 2026-09-05 12:17:45 | 55.87656 | 5.15884 | 105° | 44km/h | 18130m | 3.7m/s | -49.2°C | 3.4% | 76.7hPa | 2.7V | 08:30:00 | 01:21:40 | 00:00:00 | |
| BIOWL1-15 | 2026-09-05 12:17:43 | 55.87645 | 5.15940 | 111° | 44km/h | 18143m | 4.8m/s | -49°C | 0.2% | 76.6hPa | 2.6V | 18:12:15 | 01:21:43 | 00:00:00 | |
| BIOWL1-15 | 2026-09-05 12:17:35 | 55.87667 | 5.15766 | 93° | 35km/h | 18097m | 4.9m/s | -49.3°C | 0.2% | 77.2hPa | 2.6V | 18:12:15 | 01:21:33 | 00:00:00 | |
| DL1XH-west | 2026-09-05 12:17:32 | 55.87667 | 5.15750 | 96° | 35km/h | 18092m | 4.1m/s | -49.3°C | 0.2% | 77.2hPa | 2.6V | 18:12:15 | 01:21:32 | 00:00:00 | |
| DL1XH-15 | 2026-09-05 12:17:32 | 55.87670 | 5.15717 | 97° | 40km/h | 18083m | 4.6m/s | -49.3°C | 3.4% | 77.3hPa | 2.7V | 08:30:00 | 01:21:30 | 00:00:00 | |
| BIOWL9-15 | 2026-09-05 12:17:32 | 55.87668 | 5.15734 | 97° | 37km/h | 18088m | 4.9m/s | -49.3°C | 1.0% | 77.2hPa | 2.7V | 00:00:00 | 00:00:00 | 00:00:00 | |
| BIOWL7-15 | 2026-09-05 12:17:30 | 55.87669 | 5.15734 | 99° | 38km/h | 18088m | 4.9m/s | 0°C | 0% | 0hPa | 2.7V | 00:00:00 | 00:00:00 | 00:00:00 | |
| GOEST3-10 | 2026-09-05 12:17:29 | 55.87671 | 5.15698 | 101° | 42km/h | 18078m | 4.8m/s | -49.2°C | 3.4% | 77.3hPa | 2.7V | 00:00:00 | 01:21:29 | 00:00:00 | |
| DL1XH-15 | 2026-09-05 12:17:25 | 55.87695 | 5.15529 | 97° | 46km/h | 18033m | 5.6m/s | -49.9°C | 3.5% | 77.9hPa | 2.6V | 08:30:00 | 01:21:20 | 00:00:00 | |
| BIOWL1-15 | 2026-09-05 12:17:22 | 55.87690 | 5.15568 | 103° | 44km/h | 18042m | 4m/s | -49.7°C | 0.3% | 77.8hPa | 2.6V | 18:12:15 | 01:21:22 | 00:00:00 | |
| DJ2DS-15 | 2026-09-05 12:17:22 | 55.87690 | 5.15568 | 104° | 55km/h | 18043m | 3.9m/s | -49.6°C | 3.4% | 77.7hPa | 2.7V | 00:00:00 | 01:21:22 | 00:00:00 | |
| GOEST3-10 | 2026-09-05 12:17:19 | 55.87696 | 5.15509 | 98° | 49km/h | 18028m | 4.6m/s | -49.8°C | 3.5% | 77.9hPa | 2.7V | 00:00:00 | 01:21:19 | 00:00:00 | |
| DM0DOS-11 | 2026-09-05 12:17:14 | 55.87719 | 5.15377 | 113° | 58km/h | 17998m | 5.4m/s | -49.8°C | 3.5% | 78.3hPa | 2.7V | 08:30:00 | 01:21:13 | 00:00:00 | |
| GOEST3-10 | 2026-09-05 12:17:14 | 55.87714 | 5.15401 | 112° | 58km/h | 18003m | 4.3m/s | -49.8°C | 3.5% | 78.2hPa | 2.7V | 00:00:00 | 00:00:00 | 08:30:00 | |
| DL1XH-15 | 2026-09-05 12:17:12 | 55.87737 | 5.15304 | 109° | 60km/h | 17982m | 4.3m/s | -49.8°C | 3.6% | 78.5hPa | 2.7V | 08:30:00 | 01:21:10 | 00:00:00 | |
| DL1XH-west | 2026-09-05 12:17:11 | 55.87731 | 5.15329 | 112° | 58km/h | 17987m | 5.3m/s | -49.8°C | 0.4% | 78.4hPa | 2.6V | 18:12:15 | 01:21:11 | 00:00:00 | |
| BIOWL7-15 | 2026-09-05 12:17:10 | 55.87731 | 5.15329 | 113° | 58km/h | 17987m | 5.3m/s | 0°C | 0% | 0hPa | 2.6V | 00:00:00 | 00:00:00 | 00:00:00 | |
| GOEST3-10 | 2026-09-05 12:17:09 | 55.87741 | 5.15279 | 108° | 58km/h | 17978m | 4.4m/s | -49.7°C | 3.6% | 78.5hPa | 2.6V | 00:00:00 | 01:21:09 | 00:00:00 | |
| DL1XH-15 | 2026-09-05 12:17:05 | 55.87775 | 5.15055 | 103° | 57km/h | 17935m | 4.5m/s | -49.8°C | 3.6% | 79hPa | 2.6V | 08:30:00 | 01:21:00 | 00:00:00 | |
| DM0DOS-11 | 2026-09-05 12:17:04 | 55.87764 | 5.15127 | 103° | 57km/h | 17950m | 5.8m/s | -49.9°C | 3.6% | 78.9hPa | 2.7V | 08:30:00 | 01:21:03 | 00:00:00 | |
| DL1XH-west | 2026-09-05 12:17:00 | 55.87775 | 5.15055 | 103° | 57km/h | 17935m | 4.5m/s | -49.8°C | 0.4% | 79.1hPa | 2.6V | 18:12:15 | 01:21:00 | 00:00:00 | |
| GOEST3-10 | 2026-09-05 12:16:59 | 55.87778 | 5.15031 | 103° | 55km/h | 17932m | 3.8m/s | -49.7°C | 3.6% | 79.0hPa | 2.6V | 00:00:00 | 01:20:59 | 00:00:00 | |
| DL1XH-15 | 2026-09-05 12:16:54 | 55.87806 | 5.14804 | 103° | 49km/h | 17884m | 3.1m/s | -49.6°C | 3.5% | 79.7hPa | 2.7V | 08:30:00 | 01:20:49 | 00:00:00 | |
| DL1XH-west | 2026-09-05 12:16:50 | 55.87803 | 5.14826 | 101° | 49km/h | 17887m | 4m/s | -49.6°C | 0.3% | 79.6hPa | 2.6V | 18:12:15 | 01:20:50 | 00:00:00 | |
| DL1XH-west | 2026-09-05 12:16:40 | 55.87832 | 5.14624 | 98° | 47km/h | 17841m | 4.7m/s | -49.4°C | 0.3% | 80.2hPa | 2.6V | 18:12:15 | 01:20:40 | 00:00:00 | |
| DL1XH-15 | 2026-09-05 12:16:40 | 55.87835 | 5.14582 | 96° | 47km/h | 17832m | 4.3m/s | -49.4°C | 3.4% | 80.3hPa | 2.6V | 08:30:00 | 01:20:38 | 00:00:00 | |
| BIOWL1-15 | 2026-09-05 12:16:40 | 55.87836 | 5.14562 | 97° | 44km/h | 17828m | 4.3m/s | -49.3°C | 0.4% | 80.4hPa | 2.7V | 18:12:15 | 01:20:37 | 00:00:00 | |
| GOEST3-10 | 2026-09-05 12:16:39 | 55.87834 | 5.14603 | 98° | 44km/h | 17837m | 4.3m/s | -49.3°C | 3.5% | 80.2hPa | 2.6V | 00:00:00 | 01:20:39 | 00:00:00 | |
| DM0DOS-11 | 2026-09-05 12:16:34 | 55.87843 | 5.14486 | 101° | 44km/h | 17811m | 4.1m/s | -49.3°C | 3.4% | 80.6hPa | 2.6V | 08:30:00 | 01:20:33 | 00:00:00 | |
| DF5WG-10 | 2026-09-05 12:16:34 | 55.87841 | 5.14505 | 100° | 42km/h | 17815m | 4.1m/s | 0°C | 0% | 0hPa | 2.7V | 00:00:00 | 01:20:34 | 00:00:00 | |
| DL1XH-15 | 2026-09-05 12:16:29 | 55.87851 | 5.14394 | 95° | 42km/h | 17787m | 3.6m/s | -49.2°C | 3.4% | 80.9hPa | 2.7V | 08:30:00 | 01:20:28 | 00:00:00 | |
| DL1XH-west | 2026-09-05 12:16:29 | 55.87850 | 5.14413 | 98° | 42km/h | 17791m | 4.3m/s | -49.2°C | 0.3% | 80.8hPa | 2.6V | 18:12:15 | 01:20:29 | 00:00:00 | |
| BIOWL1-15 | 2026-09-05 12:16:27 | 55.87852 | 5.14375 | 95° | 42km/h | 17783m | 5.4m/s | -49.2°C | 0.3% | 80.9hPa | 2.7V | 18:12:15 | 01:20:27 | 00:00:00 | |
| DM0DOS-11 | 2026-09-05 12:16:24 | 55.87855 | 5.14261 | 88° | 40km/h | 17754m | 4.4m/s | -49.2°C | 3.4% | 81.2hPa | 2.7V | 08:30:00 | 01:20:21 | 00:00:00 | |
| GOEST3-10 | 2026-09-05 12:16:24 | 55.87854 | 5.14319 | 94° | 42km/h | 17769m | 4.0m/s | -49.1°C | 3.5% | 81.1hPa | 2.6V | 00:00:00 | 00:00:00 | 00:00:00 | |
| DJ2DS-15 | 2026-09-05 12:16:22 | 55.87855 | 5.14280 | 90° | 46km/h | 17759m | 5.4m/s | -49.1°C | 3.5% | 81.2hPa | 2.6V | 00:00:00 | 01:20:22 | 00:00:00 | |
| DL1XH-15 | 2026-09-05 12:16:19 | 55.87855 | 5.14205 | 92° | 42km/h | 17741m | 4m/s | -49.2°C | 3.4% | 81.4hPa | 2.6V | 08:30:00 | 01:20:18 | 00:00:00 | |
| DL1XH-west | 2026-09-05 12:16:19 | 55.87854 | 5.14224 | 90° | 42km/h | 17745m | 5.1m/s | -49.3°C | 0.3% | 81.4hPa | 2.5V | 18:12:15 | 01:20:19 | 00:00:00 | |
| BIOWL1-15 | 2026-09-05 12:16:16 | 55.87856 | 5.14169 | 95° | 40km/h | 17731m | 3.9m/s | -49.2°C | 0.3% | 81.6hPa | 2.7V | 18:12:15 | 01:20:16 | 00:00:00 | |
| DF5WG-10 | 2026-09-05 12:16:16 | 55.87856 | 5.14169 | 96° | 47km/h | 17731m | 3.8m/s | 0°C | 0% | 0hPa | 2.7V | 00:00:00 | 01:20:16 | 00:00:00 | |
| DJ2DS-15 | 2026-09-05 12:16:15 | 55.87857 | 5.14150 | 97° | 40km/h | 17727m | 4.2m/s | -49.2°C | 1.0% | 81.6hPa | 2.7V | 00:00:00 | 00:00:00 | 00:00:00 | |
| GOEST3-10 | 2026-09-05 12:16:14 | 55.87858 | 5.14131 | 98° | 46km/h | 17723m | 4.5m/s | -49.2°C | 3.4% | 81.6hPa | 2.7V | 00:00:00 | 00:00:00 | 00:00:00 | |
| DL1XH-15 | 2026-09-05 12:16:09 | 55.87852 | 5.14005 | 72° | 53km/h | 17694m | 5.1m/s | -49.4°C | 3.5% | 82hPa | 2.6V | 08:30:00 | 01:20:08 | 00:00:00 | |
| DL1XH-west | 2026-09-05 12:16:08 | 55.87852 | 5.14005 | 73° | 53km/h | 17694m | 5.1m/s | -49.4°C | 0.3% | 82.1hPa | 2.6V | 18:12:15 | 01:20:08 | 00:00:00 | |
| BIOWL1-15 | 2026-09-05 12:16:06 | 55.87844 | 5.13962 | 74° | 49km/h | 17684m | 4m/s | -49.5°C | 0.3% | 82.2hPa | 2.7V | 18:12:15 | 01:20:06 | 00:00:00 | |
| GOEST3-10 | 2026-09-05 12:16:04 | 55.87839 | 5.13918 | 81° | 47km/h | 17675m | 4.5m/s | -49.4°C | 3.5% | 82.2hPa | 2.7V | 00:00:00 | 00:00:00 | 00:00:00 | |
| DM0DOS-11 | 2026-09-05 12:16:02 | 55.87835 | 5.13857 | 86° | 47km/h | 17661m | 5.3m/s | -49.4°C | 3.5% | 82.5hPa | 2.7V | 08:30:00 | 01:20:01 | 00:00:00 | |
| BIOWL1-15 | 2026-09-05 12:15:59 | 55.87823 | 5.13723 | 79° | 53km/h | 17634m | 4m/s | -49.3°C | 0.4% | 82.8hPa | 2.7V | 18:12:15 | 01:19:55 | 00:00:00 | |
| DL1XH-west | 2026-09-05 12:15:58 | 55.87831 | 5.13790 | 80° | 49km/h | 17647m | 4.7m/s | -49.3°C | 0.4% | 82.6hPa | 2.6V | 18:12:15 | 01:19:58 | 00:00:00 | |
| DM0DOS-11 | 2026-09-05 12:15:56 | 55.87813 | 5.13634 | 78° | 49km/h | 17617m | 4.7m/s | -49.4°C | 3.4% | 83hPa | 2.6V | 08:30:00 | 01:19:51 | 00:00:00 | |
| GOEST3-10 | 2026-09-05 12:15:54 | 55.87821 | 5.13700 | 79° | 49km/h | 17630m | 3.8m/s | -49.3°C | 3.5% | 82.8hPa | 2.6V | 00:00:00 | 00:00:00 | 00:00:00 | |
| DL1XH-15 | 2026-09-05 12:15:49 | 55.87808 | 5.13567 | 83° | 49km/h | 17603m | 4.9m/s | -49.4°C | 3.5% | 83.2hPa | 2.6V | 08:30:00 | 01:19:48 | 00:00:00 | |
| DL1XH-west | 2026-09-05 12:15:47 | 55.87806 | 5.13546 | 83° | 47km/h | 17599m | 4.1m/s | -49.4°C | 0.3% | 83.2hPa | 2.6V | 18:12:15 | 01:19:47 | 00:00:00 | |
| DM0DOS-11 | 2026-09-05 12:15:45 | 55.87798 | 5.13413 | 82° | 51km/h | 17571m | 3m/s | -49.3°C | 3.4% | 83.6hPa | 2.6V | 08:30:00 | 01:19:41 | 00:00:00 | |
| BIOWL1-15 | 2026-09-05 12:15:44 | 55.87800 | 5.13435 | 82° | 49km/h | 17574m | 3.8m/s | -49.3°C | 0.3% | 83.6hPa | 2.6V | 18:12:15 | 01:19:42 | 00:00:00 | |
| DL1XH-west | 2026-09-05 12:15:37 | 55.87795 | 5.13317 | 89° | 55km/h | 17552m | 5.2m/s | -49.4°C | 0.3% | 83.9hPa | 2.6V | 18:12:15 | 01:19:37 | 00:00:00 | |
| BIOWL1-15 | 2026-09-05 12:15:35 | 55.87798 | 5.13226 | 99° | 47km/h | 17533m | 4.3m/s | -49.4°C | 0.4% | 84.1hPa | 2.7V | 18:12:15 | 01:19:33 | 00:00:00 | |
| GOEST3-10 | 2026-09-05 12:15:34 | 55.87796 | 5.13247 | 98° | 46km/h | 17538m | 4.3m/s | -49.4°C | 3.4% | 84.0hPa | 2.7V | 00:00:00 | 00:00:00 | 00:00:00 | |
| DL1XH-15 | 2026-09-05 12:15:29 | 55.87806 | 5.13124 | 97° | 49km/h | 17510m | 3.8m/s | -49.5°C | 3.5% | 84.4hPa | 2.7V | 08:30:00 | 01:19:28 | 00:00:00 | |
| DL1XH-west | 2026-09-05 12:15:26 | 55.87808 | 5.13080 | 91° | 51km/h | 17501m | 4.2m/s | -49.7°C | 0.4% | 84.5hPa | 2.5V | 18:12:15 | 01:19:26 | 00:00:00 | |
| GOEST3-10 | 2026-09-05 12:15:24 | 55.87808 | 5.13033 | 92° | 55km/h | 17492m | 4.3m/s | -49.8°C | 3.7% | 84.6hPa | 2.7V | 00:00:00 | 00:00:00 | 00:00:00 | |
| DL1XH-15 | 2026-09-05 12:15:22 | 55.87811 | 5.12887 | 93° | 53km/h | 17464m | 5.5m/s | -49.7°C | 3.6% | 85hPa | 2.7V | 08:30:00 | 01:19:18 | 00:00:00 | |
| BIOWL1-15 | 2026-09-05 12:15:22 | 55.87809 | 5.12983 | 90° | 55km/h | 17482m | 4.6m/s | -49.8°C | 0.4% | 84.7hPa | 2.6V | 18:12:15 | 01:19:22 | 00:00:00 | |
| DJ2DS-15 | 2026-09-05 12:15:22 | 55.87809 | 5.12983 | 90° | 55km/h | 17482m | 4.6m/s | -49.8°C | 3.6% | 84.7hPa | 2.7V | 00:00:00 | 01:19:22 | 00:00:00 | |
| DM0DOS-11 | 2026-09-05 12:15:21 | 55.87810 | 5.12911 | 94° | 53km/h | 17468m | 4.3m/s | -49.8°C | 3.6% | 85hPa | 2.7V | 08:30:00 | 01:19:19 | 00:00:00 | |
| DL1XH-west | 2026-09-05 12:15:15 | 55.87813 | 5.12817 | 94° | 53km/h | 17449m | 4.4m/s | -49.6°C | 0.5% | 85.2hPa | 2.6V | 18:12:15 | 01:19:15 | 00:00:00 | |
| BIOWL1-15 | 2026-09-05 12:15:11 | 55.87815 | 5.12721 | 94° | 55km/h | 17431m | 5.2m/s | -49.5°C | 0.4% | 85.4hPa | 2.7V | 18:12:15 | 01:19:11 | 00:00:00 | |
| DL1XH-15 | 2026-09-05 12:15:09 | 55.87820 | 5.12646 | 97° | 58km/h | 17417m | 4.2m/s | -49.5°C | 3.5% | 85.6hPa | 2.7V | 08:30:00 | 01:19:08 | 00:00:00 | |
| DL1XH-west | 2026-09-05 12:15:04 | 55.87830 | 5.12548 | 100° | 53km/h | 17398m | 5.3m/s | -49.3°C | 0.5% | 85.8hPa | 2.7V | 18:12:15 | 01:19:04 | 00:00:00 | |
| GOEST3-10 | 2026-09-05 12:15:04 | 55.87830 | 5.12548 | 101° | 53km/h | 17399m | 5.2m/s | -49.3°C | 3.6% | 85.8hPa | 2.7V | 00:00:00 | 00:00:00 | 00:00:00 | |
| DL1XH-15 | 2026-09-05 12:15:03 | 55.87838 | 5.12406 | 94° | 58km/h | 17371m | 4.5m/s | -49.5°C | 3.6% | 86.2hPa | 2.7V | 08:30:00 | 01:18:58 | 00:00:00 | |
| BIOWL1-15 | 2026-09-05 12:15:00 | 55.87836 | 5.12455 | 97° | 53km/h | 17381m | 3.4m/s | -49.3°C | 0.4% | 86.1hPa | 2.6V | 18:12:15 | 01:19:00 | 00:00:00 | |
| GOEST3-10 | 2026-09-05 12:14:59 | 55.87837 | 5.12432 | 95° | 58km/h | 17376m | 5.1m/s | -49.4°C | 3.6% | 86.1hPa | 2.6V | 00:00:00 | 01:18:59 | 08:30:00 | |
| DM0DOS-11 | 2026-09-05 12:14:57 | 55.87852 | 5.12241 | 99° | 64km/h | 17342m | 5.6m/s | -49.5°C | 3.5% | 86.6hPa | 2.7V | 08:30:00 | 01:18:52 | 00:00:00 | |
| DL1XH-west | 2026-09-05 12:14:53 | 55.87849 | 5.12269 | 98° | 64km/h | 17347m | 5m/s | -49.6°C | 0.4% | 86.5hPa | 2.6V | 18:12:15 | 01:18:53 | 00:00:00 | |
| DL1XH-15 | 2026-09-05 12:14:53 | 55.87859 | 5.12135 | 95° | 57km/h | 17324m | 3.8m/s | -49.4°C | 3.5% | 86.8hPa | 2.6V | 08:30:00 | 01:18:48 | 00:00:00 | |
| BIOWL1-15 | 2026-09-05 12:14:50 | 55.87856 | 5.12187 | 98° | 60km/h | 17333m | 4.8m/s | -49.5°C | 0.4% | 86.7hPa | 2.7V | 18:12:15 | 01:18:50 | 00:00:00 | |
| DL1XH-west | 2026-09-05 12:14:43 | 55.87865 | 5.12009 | 95° | 58km/h | 17301m | 5.1m/s | -49.1°C | 0.4% | 87.1hPa | 2.7V | 18:12:15 | 01:18:43 | 00:00:00 | |
| BIOWL1-15 | 2026-09-05 12:14:39 | 55.87867 | 5.11849 | 88° | 57km/h | 17272m | 5.4m/s | -49.2°C | 0.4% | 87.5hPa | 2.7V | 18:12:15 | 01:18:37 | 00:00:00 | |
| DL1XH-west | 2026-09-05 12:14:33 | 55.87867 | 5.11749 | 97° | 55km/h | 17254m | 3.9m/s | -49.2°C | 0.3% | 87.8hPa | 2.6V | 18:12:15 | 01:18:33 | 00:00:00 | |
| BIOWL1-15 | 2026-09-05 12:14:29 | 55.87875 | 5.11648 | 98° | 57km/h | 17235m | 5.7m/s | -49.3°C | 0.4% | 88hPa | 2.7V | 18:12:15 | 01:18:29 | 00:00:00 | |
| DL1XH-west | 2026-09-05 12:14:22 | 55.87881 | 5.11472 | 90° | 53km/h | 17204m | 4.4m/s | -49.2°C | 0.5% | 88.5hPa | 2.6V | 18:12:15 | 01:18:22 | 00:00:00 | |
| BIOWL1-15 | 2026-09-05 12:14:18 | 55.87875 | 5.11324 | 82° | 58km/h | 17175m | 4m/s | -49.2°C | 0.4% | 88.8hPa | 2.7V | 18:12:15 | 01:18:16 | 00:00:00 | |
| DL1XH-west | 2026-09-05 12:14:11 | 55.87864 | 5.11200 | 83° | 55km/h | 17151m | 4.4m/s | -49.2°C | 0.4% | 89.1hPa | 2.6V | 18:12:15 | 01:18:11 | 00:00:00 | |
| BIOWL1-15 | 2026-09-05 12:14:09 | 55.87863 | 5.11103 | 92° | 55km/h | 17133m | 4.5m/s | -49.1°C | 0.4% | 89.4hPa | 2.6V | 18:12:15 | 01:18:07 | 00:00:00 | |
| DM0DOS-11 | 2026-09-05 12:14:08 | 55.87862 | 5.11010 | 84° | 49km/h | 17114m | 5.5m/s | -49°C | 3.5% | 89.7hPa | 2.7V | 08:30:00 | 01:18:03 | 00:00:00 | |
| DL1XH-west | 2026-09-05 12:14:01 | 55.87858 | 5.10965 | 82° | 49km/h | 17105m | 4.2m/s | -48.9°C | 0.4% | 89.8hPa | 2.6V | 18:12:15 | 01:18:01 | 00:00:00 | |
| BIOWL1-15 | 2026-09-05 12:13:56 | 55.87854 | 5.10765 | 88° | 47km/h | 17065m | 5.2m/s | -48.6°C | 0.3% | 90.3hPa | 2.7V | 18:12:15 | 01:17:52 | 00:00:00 | |
| DM0DOS-11 | 2026-09-05 12:13:56 | 55.87855 | 5.10787 | 87° | 47km/h | 17069m | 4.2m/s | -48.7°C | 3.4% | 90.2hPa | 2.7V | 08:30:00 | 01:17:53 | 00:00:00 | |
| DL1XH-west | 2026-09-05 12:13:51 | 55.87854 | 5.10744 | 87° | 47km/h | 17060m | 4.3m/s | -48.6°C | 0.3% | 90.4hPa | 2.6V | 18:12:15 | 01:17:51 | 00:00:00 | |
| DJ2DS-15 | 2026-09-05 12:13:51 | 55.87853 | 5.10723 | 88° | 46km/h | 17055m | 5.3m/s | -48.6°C | 1.1% | 90.5hPa | 2.7V | 00:00:00 | 00:00:00 | 00:00:00 | |
| DM0DOS-11 | 2026-09-05 12:13:48 | 55.87858 | 5.10574 | 93° | 47km/h | 17022m | 5.4m/s | -48.7°C | 3.3% | 90.9hPa | 2.7V | 08:30:00 | 01:17:43 | 00:00:00 | |
| GOEST3-10 | 2026-09-05 12:13:48 | 55.87853 | 5.10681 | 91° | 47km/h | 17045m | 5.5m/s | -48.6°C | 3.4% | 90.5hPa | 2.7V | 00:00:00 | 01:17:48 | 00:00:00 | |
| GOEST3-10 | 2026-09-05 12:13:43 | 55.87858 | 5.10574 | 94° | 47km/h | 17022m | 5.4m/s | -48.7°C | 3.3% | 90.9hPa | 2.7V | 00:00:00 | 00:00:00 | 00:00:00 | |
| DL1XH-15 | 2026-09-05 12:13:41 | 55.87862 | 5.10426 | 97° | 47km/h | 16989m | 5.2m/s | -49.1°C | 3.4% | 91.4hPa | 2.7V | 08:30:00 | 01:17:36 | 00:00:00 | |
| DL1XH-west | 2026-09-05 12:13:40 | 55.87860 | 5.10511 | 92° | 46km/h | 17007m | 4.2m/s | -49°C | 0.3% | 91.2hPa | 2.6V | 18:12:15 | 01:17:40 | 00:00:00 | |
| DM0DOS-11 | 2026-09-05 12:13:38 | 55.87870 | 5.10366 | 104° | 46km/h | 16975m | 4.7m/s | -49.1°C | 3.5% | 91.6hPa | 2.6V | 08:30:00 | 01:17:33 | 00:00:00 | |
| BIOWL1-15 | 2026-09-05 12:13:34 | 55.87872 | 5.10346 | 102° | 46km/h | 16971m | 3.3m/s | -49.1°C | 0.3% | 91.7hPa | 2.6V | 18:12:15 | 01:17:32 | 00:00:00 | |
| DL1XH-west | 2026-09-05 12:13:30 | 55.87877 | 5.10308 | 104° | 42km/h | 16962m | 4.8m/s | -49.1°C | 0.3% | 91.8hPa | 2.7V | 18:12:15 | 01:17:30 | 00:00:00 | |
| DL1XH-15 | 2026-09-05 12:13:28 | 55.87886 | 5.10226 | 100° | 49km/h | 16944m | 4.2m/s | -48.9°C | 3.4% | 92hPa | 2.7V | 08:30:00 | 01:17:26 | 00:00:00 | |
| GOEST3-10 | 2026-09-05 12:13:28 | 55.87882 | 5.10269 | 101° | 49km/h | 16953m | 5.1m/s | -48.9°C | 3.5% | 91.8hPa | 2.6V | 00:00:00 | 01:17:28 | 08:30:00 | |
| DM0DOS-11 | 2026-09-05 12:13:27 | 55.87894 | 5.10160 | 102° | 51km/h | 16930m | 5.5m/s | -48.9°C | 3.3% | 92.2hPa | 2.6V | 08:30:00 | 01:17:23 | 00:00:00 | |
| BIOWL1-15 | 2026-09-05 12:13:21 | 55.87900 | 5.10114 | 102° | 53km/h | 16919m | 5.5m/s | -48.9°C | 0.3% | 92.4hPa | 2.7V | 18:12:15 | 01:17:21 | 00:00:00 | |
| DL1XH-west | 2026-09-05 12:13:19 | 55.87905 | 5.10068 | 102° | 53km/h | 16910m | 4.4m/s | -48.9°C | 0.2% | 92.5hPa | 2.5V | 18:12:15 | 01:17:19 | 00:00:00 | |
| GOEST3-10 | 2026-09-05 12:13:18 | 55.87908 | 5.10045 | 100° | 51km/h | 16905m | 4.8m/s | -48.9°C | 3.3% | 92.5hPa | 2.6V | 00:00:00 | 01:17:18 | 00:00:00 | |
| DM0DOS-11 | 2026-09-05 12:13:16 | 55.87921 | 5.09931 | 106° | 51km/h | 16883m | 4.7m/s | -49.8°C | 3.5% | 92.9hPa | 2.6V | 08:30:00 | 01:17:13 | 00:00:00 | |
| BIOWL1-15 | 2026-09-05 12:13:13 | 55.87929 | 5.09887 | 109° | 53km/h | 16875m | 3.8m/s | -49.9°C | 0.4% | 93hPa | 2.6V | 18:12:15 | 01:17:11 | 00:00:00 | |
| DL1XH-west | 2026-09-05 12:13:09 | 55.87937 | 5.09842 | 111° | 53km/h | 16865m | 4.3m/s | -49.9°C | 0.5% | 93.1hPa | 2.7V | 18:12:15 | 01:17:09 | 00:00:00 | |
| DL1XH-15 | 2026-09-05 12:13:08 | 55.87951 | 5.09768 | 106° | 60km/h | 16852m | 4m/s | -49.9°C | 3.6% | 93.3hPa | 2.6V | 08:30:00 | 01:17:06 | 00:00:00 | |
| GOEST3-10 | 2026-09-05 12:13:08 | 55.87942 | 5.09819 | 110° | 58km/h | 16861m | 4.7m/s | -49.9°C | 3.7% | 93.1hPa | 2.6V | 00:00:00 | 01:17:08 | 00:00:00 | |
| GOEST3-10 | 2026-09-05 12:13:03 | 55.87964 | 5.09692 | 107° | 60km/h | 16838m | 5.1m/s | -49.9°C | 3.6% | 93.5hPa | 2.6V | 00:00:00 | 00:00:00 | 00:00:00 | |
| DL1XH-15 | 2026-09-05 12:13:01 | 55.87996 | 5.09510 | 107° | 60km/h | 16805m | 5.2m/s | -50.1°C | 3.7% | 94hPa | 2.6V | 08:30:00 | 01:16:56 | 00:00:00 | |
| BIOWL1-15 | 2026-09-05 12:13:00 | 55.87977 | 5.09614 | 108° | 58km/h | 16823m | 4.7m/s | -50°C | 0.5% | 93.7hPa | 2.6V | 18:12:15 | 01:17:00 | 00:00:00 | |
| DL1XH-west | 2026-09-05 12:12:58 | 55.87986 | 5.09562 | 108° | 62km/h | 16814m | 5.1m/s | -50.1°C | 0.5% | 93.9hPa | 2.7V | 18:12:15 | 01:16:58 | 00:00:00 | |
| BIOWL1-15 | 2026-09-05 12:12:49 | 55.88024 | 5.09276 | 100° | 58km/h | 16763m | 4.2m/s | -49.9°C | 0.5% | 94.6hPa | 2.6V | 18:12:15 | 01:16:47 | 00:00:00 | |
| DL1XH-15 | 2026-09-05 12:12:49 | 55.88027 | 5.09250 | 102° | 57km/h | 16759m | 4m/s | -49.9°C | 3.6% | 94.7hPa | 2.6V | 08:30:00 | 01:16:46 | 00:00:00 | |
| DL1XH-west | 2026-09-05 12:12:48 | 55.88021 | 5.09302 | 101° | 58km/h | 16768m | 5.7m/s | -50°C | 0.6% | 94.5hPa | 2.7V | 18:12:15 | 01:16:48 | 00:00:00 | |
| GOEST3-10 | 2026-09-05 12:12:47 | 55.88024 | 5.09276 | 101° | 57km/h | 16763m | 4.2m/s | -49.9°C | 3.6% | 94.6hPa | 2.7V | 00:00:00 | 01:16:47 | 00:00:00 | |
| GOEST3-10 | 2026-09-05 12:12:42 | 55.88041 | 5.09155 | 107° | 51km/h | 16740m | 3.8m/s | -49.7°C | 3.6% | 94.9hPa | 2.7V | 00:00:00 | 00:00:00 | 08:30:00 | |
| DJ2DS-15 | 2026-09-05 12:12:41 | 55.88045 | 5.09133 | 107° | 51km/h | 16735m | 5.5m/s | -49.8°C | 3.6% | 95.0hPa | 2.7V | 00:00:00 | 01:16:41 | 00:00:00 | |
| DL1XH-15 | 2026-09-05 12:12:38 | 55.88062 | 5.09025 | 103° | 51km/h | 16710m | 4.6m/s | -49.8°C | 3.5% | 95.4hPa | 2.7V | 08:30:00 | 01:16:36 | 00:00:00 | |
| DM0DOS-11 | 2026-09-05 12:12:37 | 55.88070 | 5.08955 | 101° | 55km/h | 16697m | 4.1m/s | -50°C | 3.6% | 95.6hPa | 2.6V | 08:30:00 | 01:16:33 | 00:00:00 | |
| DL1XH-west | 2026-09-05 12:12:37 | 55.88059 | 5.09047 | 104° | 49km/h | 16715m | 4.6m/s | -49.8°C | 0.4% | 95.3hPa | 2.7V | 18:12:15 | 01:16:37 | 00:00:00 | |
| GOEST3-10 | 2026-09-05 12:12:37 | 55.88059 | 5.09047 | 105° | 53km/h | 16715m | 4.5m/s | -49.8°C | 3.5% | 95.2hPa | 2.7V | 00:00:00 | 01:16:37 | 00:00:00 | |
| GOEST3-10 | 2026-09-05 12:12:32 | 55.88073 | 5.08931 | 104° | 51km/h | 16693m | 4.6m/s | -50.0°C | 3.6% | 95.6hPa | 2.7V | 00:00:00 | 00:00:00 | 00:00:00 | |
| DL1XH-15 | 2026-09-05 12:12:29 | 55.88096 | 5.08801 | 111° | 46km/h | 16666m | 4m/s | -49.9°C | 3.6% | 96hPa | 2.7V | 08:30:00 | 01:16:26 | 00:00:00 | |
| BIOWL1-15 | 2026-09-05 12:12:29 | 55.88084 | 5.08864 | 106° | 53km/h | 16679m | 3.8m/s | -50°C | 0.5% | 95.8hPa | 2.6V | 18:12:15 | 01:16:29 | 00:00:00 | |
| DM0DOS-11 | 2026-09-05 12:12:27 | 55.88108 | 5.08743 | 110° | 46km/h | 16651m | 4.9m/s | -50°C | 3.6% | 96.3hPa | 2.6V | 08:30:00 | 01:16:23 | 00:00:00 | |
| DL1XH-west | 2026-09-05 12:12:27 | 55.88092 | 5.08821 | 111° | 47km/h | 16670m | 5.1m/s | -50°C | 0.4% | 96hPa | 2.7V | 18:12:15 | 01:16:27 | 00:00:00 | |
| GOEST3-10 | 2026-09-05 12:12:22 | 55.88112 | 5.08724 | 111° | 51km/h | 16647m | 3.9m/s | -49.9°C | 3.6% | 96.3hPa | 2.7V | 00:00:00 | 00:00:00 | 00:00:00 | |
| BIOWL9-15 | 2026-09-05 12:12:21 | 55.88116 | 5.08703 | 108° | 49km/h | 16642m | 5.3m/s | -50.1°C | 1.2% | 96.4hPa | 2.7V | 00:00:00 | 00:00:00 | 00:00:00 | |
| DJ2DS-15 | 2026-09-05 12:12:20 | 55.88120 | 5.08681 | 109° | 49km/h | 16638m | 4.1m/s | -50.2°C | 3.7% | 96.4hPa | 2.7V | 00:00:00 | 01:16:20 | 00:00:00 | |
| DL1XH-15 | 2026-09-05 12:12:18 | 55.88137 | 5.08592 | 108° | 51km/h | 16619m | 5.5m/s | -50.3°C | 3.7% | 96.7hPa | 2.7V | 08:30:00 | 01:16:16 | 00:00:00 | |
| DM0DOS-11 | 2026-09-05 12:12:17 | 55.88150 | 5.08530 | 111° | 44km/h | 16605m | 4.5m/s | -50.3°C | 3.7% | 96.9hPa | 2.6V | 08:30:00 | 01:16:13 | 00:00:00 | |
| DL1XH-west | 2026-09-05 12:12:16 | 55.88137 | 5.08592 | 109° | 51km/h | 16619m | 5.5m/s | -50.3°C | 0.5% | 96.7hPa | 2.7V | 18:12:15 | 01:16:16 | 00:00:00 | |
| GOEST3-10 | 2026-09-05 12:12:12 | 55.88153 | 5.08513 | 114° | 44km/h | 16602m | 3.2m/s | -50.2°C | 3.6% | 97.0hPa | 2.6V | 00:00:00 | 00:00:00 | 00:00:00 | |
| DL1XH-15 | 2026-09-05 12:12:08 | 55.88193 | 5.08358 | 113° | 55km/h | 16567m | 3.8m/s | -50.2°C | 3.7% | 97.5hPa | 2.7V | 08:30:00 | 01:16:04 | 00:00:00 | |
| DM0DOS-11 | 2026-09-05 12:12:07 | 55.88205 | 5.08312 | 116° | 57km/h | 16559m | 4.4m/s | -50.2°C | 3.7% | 97.6hPa | 2.6V | 08:30:00 | 01:16:02 | 00:00:00 | |
| DL1XH-west | 2026-09-05 12:12:05 | 55.88188 | 5.08381 | 115° | 53km/h | 16571m | 5.1m/s | -50.2°C | 0.6% | 97.4hPa | 2.7V | 18:12:15 | 01:16:05 | 00:00:00 | |
| GOEST3-10 | 2026-09-05 12:12:02 | 55.88205 | 5.08312 | 117° | 57km/h | 16559m | 4.3m/s | -50.1°C | 3.7% | 97.6hPa | 2.7V | 00:00:00 | 00:00:00 | 00:00:00 | |
| DJ2DS-15 | 2026-09-05 12:12:00 | 55.88218 | 5.08267 | 117° | 58km/h | 16549m | 5.6m/s | -50.1°C | 3.7% | 97.7hPa | 2.7V | 00:00:00 | 01:16:00 | 08:30:00 | |
| DM0DOS-11 | 2026-09-05 12:11:57 | 55.88269 | 5.08084 | 113° | 57km/h | 16514m | 4.1m/s | -49.9°C | 3.7% | 98.3hPa | 2.6V | 08:30:00 | 01:15:52 | 00:00:00 | |
| DL1XH-west | 2026-09-05 12:11:54 | 55.88257 | 5.08131 | 115° | 58km/h | 16523m | 4.1m/s | -50°C | 0.6% | 98.2hPa | 2.7V | 18:12:15 | 01:15:54 | 00:00:00 | |
| GOEST3-10 | 2026-09-05 12:11:50 | 55.88280 | 5.08035 | 110° | 60km/h | 16506m | 4.2m/s | -49.9°C | 3.6% | 98.4hPa | 2.7V | 00:00:00 | 00:00:00 | 00:00:00 | |
| DM0DOS-11 | 2026-09-05 12:11:47 | 55.88324 | 5.07838 | 110° | 58km/h | 16470m | 5.1m/s | -50.1°C | 3.6% | 99hPa | 2.7V | 08:30:00 | 01:15:42 | 00:00:00 | |
| GOEST3-10 | 2026-09-05 12:11:45 | 55.88308 | 5.07911 | 113° | 58km/h | 16484m | 5.0m/s | -50.0°C | 3.6% | 98.7hPa | 2.6V | 00:00:00 | 01:15:45 | 00:00:00 | |
| DL1XH-15 | 2026-09-05 12:11:44 | 55.88340 | 5.07764 | 110° | 60km/h | 16457m | 4.1m/s | -50.2°C | 3.7% | 99.2hPa | 2.6V | 08:30:00 | 01:15:39 | 00:00:00 | |
| DL1XH-west | 2026-09-05 12:11:44 | 55.88314 | 5.07887 | 110° | 58km/h | 16479m | 3.9m/s | -50°C | 0.5% | 98.8hPa | 2.6V | 18:12:15 | 01:15:44 | 00:00:00 | |
| BIOWL1-15 | 2026-09-05 12:11:44 | 55.88319 | 5.07862 | 110° | 58km/h | 16475m | 4.1m/s | -50.1°C | 0.5% | 98.9hPa | 2.7V | 18:12:15 | 01:15:43 | 00:00:00 | |
| DJ2DS-15 | 2026-09-05 12:11:40 | 55.88334 | 5.07789 | 111° | 60km/h | 16462m | 4.9m/s | -50.2°C | 3.7% | 99.0hPa | 2.7V | 00:00:00 | 01:15:40 | 00:00:00 | |
| DM0DOS-11 | 2026-09-05 12:11:37 | 55.88374 | 5.07586 | 107° | 62km/h | 16426m | 4m/s | -50.3°C | 3.7% | 99.7hPa | 2.7V | 08:30:00 | 01:15:32 | 00:00:00 | |
| BIOWL1-15 | 2026-09-05 12:11:33 | 55.88379 | 5.07559 | 106° | 62km/h | 16422m | 4.9m/s | -50.4°C | 0.5% | 99.7hPa | 2.6V | 18:12:15 | 01:15:31 | 00:00:00 | |
| DL1XH-west | 2026-09-05 12:11:33 | 55.88370 | 5.07612 | 108° | 60km/h | 16431m | 4.4m/s | -50.3°C | 0.5% | 99.6hPa | 2.7V | 18:12:15 | 01:15:33 | 00:00:00 | |
| GOEST3-10 | 2026-09-05 12:11:30 | 55.88383 | 5.07532 | 107° | 62km/h | 16418m | 3.0m/s | 0°C | 0% | 0hPa | 2.7V | 00:00:00 | 00:00:00 | 00:00:00 | |
| DL1XH-15 | 2026-09-05 12:11:28 | 55.88403 | 5.07428 | 108° | 60km/h | 16402m | 4.9m/s | -50.6°C | 3.8% | 100hPa | 2.7V | 08:30:00 | 01:15:26 | 00:00:00 | |
| DM0DOS-11 | 2026-09-05 12:11:27 | 55.88419 | 5.07325 | 104° | 57km/h | 16385m | 4m/s | -50.5°C | 3.7% | 100.3hPa | 2.7V | 08:30:00 | 01:15:22 | 00:00:00 | |
| BIOWL1-15 | 2026-09-05 12:11:23 | 55.88422 | 5.07300 | 102° | 57km/h | 16381m | 5m/s | -50.5°C | 0.6% | 100.3hPa | 2.7V | 18:12:15 | 01:15:21 | 00:00:00 | |
| DL1XH-west | 2026-09-05 12:11:22 | 55.88419 | 5.07325 | 105° | 57km/h | 16385m | 4m/s | -50.5°C | 0.6% | 100.3hPa | 2.7V | 18:12:15 | 01:15:22 | 00:00:00 | |
| GOEST3-10 | 2026-09-05 12:11:20 | 55.88425 | 5.07275 | 99° | 53km/h | 16377m | 4.4m/s | 0°C | 0% | 0hPa | 2.7V | 00:00:00 | 00:00:00 | 00:00:00 | |
| BIOWL9-15 | 2026-09-05 12:11:19 | 55.88426 | 5.07251 | 97° | 53km/h | 16372m | 4.5m/s | -50.5°C | 1.2% | 100.5hPa | 2.7V | 00:00:00 | 00:00:00 | 00:00:00 | |
| DL1XH-15 | 2026-09-05 12:11:17 | 55.88432 | 5.07182 | 96° | 51km/h | 16359m | 4.8m/s | -50.5°C | 3.6% | 100.7hPa | 2.7V | 08:30:00 | 01:15:16 | 00:00:00 | |
| GOEST3-10 | 2026-09-05 12:11:15 | 55.88433 | 5.07159 | 97° | 53km/h | 16355m | 4.0m/s | 0°C | 0% | 0hPa | 2.6V | 00:00:00 | 01:15:15 | 00:00:00 | |
| DM0DOS-11 | 2026-09-05 12:11:14 | 55.88440 | 5.07088 | 101° | 53km/h | 16342m | 3.6m/s | -50.5°C | 3.7% | 100.9hPa | 2.6V | 08:30:00 | 01:15:12 | 00:00:00 | |
| DL1XH-west | 2026-09-05 12:11:12 | 55.88440 | 5.07088 | 102° | 53km/h | 16342m | 3.6m/s | -50.5°C | 0.5% | 100.9hPa | 2.6V | 18:12:15 | 01:15:12 | 00:00:00 | |
| BIOWL1-15 | 2026-09-05 12:11:11 | 55.88448 | 5.07016 | 101° | 55km/h | 16330m | 3.7m/s | -50.7°C | 0.5% | 101.1hPa | 2.6V | 18:12:15 | 01:15:09 | 00:00:00 | |
| GOEST3-10 | 2026-09-05 12:11:10 | 55.88445 | 5.07040 | 101° | 55km/h | 16333m | 3.5m/s | 0°C | 0% | 0hPa | 2.7V | 00:00:00 | 00:00:00 | 08:30:00 | |
| DL1XH-15 | 2026-09-05 12:11:07 | 55.88460 | 5.06920 | 99° | 58km/h | 16313m | 4.3m/s | -50.8°C | 3.7% | 101.4hPa | 2.7V | 08:30:00 | 01:15:05 | 00:00:00 | |
| GOEST3-10 | 2026-09-05 12:11:05 | 55.88460 | 5.06920 | 100° | 57km/h | 16313m | 4.3m/s | 0°C | 0% | 0hPa | 2.7V | 00:00:00 | 01:15:05 | 00:00:00 | |
| DM0DOS-11 | 2026-09-05 12:11:02 | 55.88468 | 5.06817 | 98° | 57km/h | 16297m | 3.2m/s | -51.3°C | 3.8% | 101.6hPa | 2.7V | 08:30:00 | 01:15:01 | 00:00:00 | |
| DL1XH-west | 2026-09-05 12:11:01 | 55.88468 | 5.06817 | 98° | 57km/h | 16297m | 3.2m/s | -51.3°C | 0.6% | 101.6hPa | 2.7V | 18:12:15 | 01:15:01 | 00:00:00 | |
| DL1XH-15 | 2026-09-05 12:11:00 | 55.88490 | 5.06671 | 115° | 58km/h | 16269m | 4.8m/s | -51.7°C | 4% | 102.1hPa | 2.7V | 08:30:00 | 01:14:55 | 00:00:00 | |
| BIOWL1-15 | 2026-09-05 12:10:58 | 55.88504 | 5.06624 | 118° | 57km/h | 16260m | 5.9m/s | -51.7°C | 0.8% | 102.2hPa | 2.7V | 18:12:15 | 01:14:53 | 00:00:00 | |
| GOEST3-10 | 2026-09-05 12:10:53 | 55.88504 | 5.06624 | 118° | 57km/h | 16260m | 5.9m/s | 0°C | 0% | 0hPa | 2.6V | 00:00:00 | 01:14:53 | 00:00:00 | |
| DM0DOS-11 | 2026-09-05 12:10:52 | 55.88517 | 5.06579 | 117° | 57km/h | 16249m | 5m/s | -51.6°C | 4% | 102.3hPa | 2.6V | 08:30:00 | 01:14:51 | 00:00:00 | |
| DL1XH-west | 2026-09-05 12:10:51 | 55.88517 | 5.06579 | 117° | 57km/h | 16249m | 5m/s | -51.7°C | 0.7% | 102.4hPa | 2.6V | 18:12:15 | 01:14:51 | 00:00:00 | |
| BIOWL1-15 | 2026-09-05 12:10:49 | 55.88543 | 5.06489 | 116° | 53km/h | 16232m | 4.1m/s | -51.6°C | 0.7% | 102.6hPa | 2.7V | 18:12:15 | 01:14:47 | 00:00:00 | |
| BIOWL9-15 | 2026-09-05 12:10:48 | 55.88537 | 5.06511 | 116° | 53km/h | 16237m | 4.8m/s | -51.6°C | 1.3% | 102.6hPa | 2.6V | 00:00:00 | 00:00:00 | 00:00:00 | |
| GOEST3-10 | 2026-09-05 12:10:47 | 55.88542 | 5.06489 | 116° | 57km/h | 16233m | 4.0m/s | 0°C | 0% | 0hPa | 2.6V | 00:00:00 | 00:00:00 | 00:00:00 | |
| DM0DOS-11 | 2026-09-05 12:10:42 | 55.88581 | 5.06355 | 121° | 58km/h | 16206m | 4.8m/s | -51.4°C | 4% | 103.1hPa | 2.6V | 08:30:00 | 01:14:41 | 00:00:00 | |
| DL1XH-west | 2026-09-05 12:10:40 | 55.88589 | 5.06332 | 124° | 60km/h | 16201m | 4.1m/s | -51.4°C | 0.7% | 103.2hPa | 2.7V | 18:12:15 | 01:14:40 | 00:00:00 | |
| BIOWL1-15 | 2026-09-05 12:10:37 | 55.88615 | 5.06269 | 126° | 57km/h | 16188m | 4.6m/s | -51.3°C | 0.8% | 103.4hPa | 2.6V | 18:12:15 | 01:14:37 | 00:00:00 | |
| DL1XH-15 | 2026-09-05 12:10:36 | 55.88631 | 5.06227 | 123° | 57km/h | 16179m | 4.2m/s | -51.2°C | 3.9% | 103.5hPa | 2.6V | 08:30:00 | 01:14:35 | 00:00:00 | |
| GOEST3-10 | 2026-09-05 12:10:34 | 55.88639 | 5.06205 | 124° | 58km/h | 16175m | 4.4m/s | 0°C | 0% | 0hPa | 2.6V | 00:00:00 | 00:00:00 | 00:00:00 | |
| DL1XH-15 | 2026-09-05 12:10:30 | 55.88713 | 5.05999 | 127° | 60km/h | 16136m | 5m/s | -51°C | 3.9% | 104.2hPa | 2.6V | 08:30:00 | 01:14:25 | 00:00:00 | |
| DL1XH-west | 2026-09-05 12:10:29 | 55.88678 | 5.06090 | 122° | 60km/h | 16153m | 4.1m/s | -51.1°C | 0.6% | 103.9hPa | 2.6V | 18:12:15 | 01:14:29 | 00:00:00 | |
| BIOWL1-15 | 2026-09-05 12:10:26 | 55.88760 | 5.05896 | 128° | 57km/h | 16113m | 4.4m/s | -50.9°C | 0.6% | 104.5hPa | 2.7V | 18:12:15 | 01:14:20 | 00:00:00 | |
| DL1XH-west | 2026-09-05 12:10:18 | 55.88777 | 5.05854 | 126° | 60km/h | 16103m | 4.2m/s | -50.8°C | 0.6% | 104.7hPa | 2.6V | 18:12:15 | 01:14:18 | 00:00:00 | |
| DL1XH-15 | 2026-09-05 12:10:18 | 55.88803 | 5.05789 | 125° | 58km/h | 16091m | 3.7m/s | -50.8°C | 3.8% | 104.9hPa | 2.6V | 08:30:00 | 01:14:15 | 00:00:00 | |
| BIOWL1-15 | 2026-09-05 12:10:17 | 55.88803 | 5.05789 | 126° | 58km/h | 16091m | 3.7m/s | -50.8°C | 0.6% | 104.9hPa | 2.6V | 18:12:15 | 01:14:15 | 00:00:00 | |
| GOEST3-10 | 2026-09-05 12:10:14 | 55.88812 | 5.05767 | 128° | 62km/h | 16087m | 4.6m/s | 0°C | 0% | 0hPa | 2.7V | 00:00:00 | 00:00:00 | 00:00:00 | |
| DL1XH-15 | 2026-09-05 12:10:10 | 55.88904 | 5.05575 | 125° | 62km/h | 16046m | 4.5m/s | -50.9°C | 3.9% | 105.6hPa | 2.7V | 08:30:00 | 01:14:05 | 00:00:00 | |
| BIOWL1-15 | 2026-09-05 12:10:09 | 55.88904 | 5.05575 | 125° | 62km/h | 16046m | 4.5m/s | -50.9°C | 0.7% | 105.6hPa | 2.7V | 18:12:15 | 01:14:05 | 00:00:00 | |
| DL1XH-west | 2026-09-05 12:10:08 | 55.88875 | 5.05641 | 132° | 64km/h | 16060m | 3.7m/s | -50.8°C | 0.6% | 105.4hPa | 2.6V | 18:12:15 | 01:14:08 | 00:00:00 | |
| GOEST3-10 | 2026-09-05 12:10:07 | 55.88885 | 5.05619 | 130° | 62km/h | 16055m | 5.3m/s | 0°C | 0% | 0hPa | 2.7V | 00:00:00 | 01:14:07 | 00:00:00 | |
| DM0DOS-11 | 2026-09-05 12:10:05 | 55.88940 | 5.05485 | 127° | 62km/h | 16028m | 3.8m/s | -50.8°C | 3.8% | 105.9hPa | 2.7V | 08:30:00 | 01:14:01 | 00:00:00 | |
| GOEST3-10 | 2026-09-05 12:10:01 | 55.88940 | 5.05485 | 128° | 68km/h | 16028m | 3.7m/s | 0°C | 0% | 0hPa | 2.7V | 00:00:00 | 00:00:00 | 00:00:00 | |
| DL1XH-15 | 2026-09-05 12:10:00 | 55.89010 | 5.05351 | 132° | 73km/h | 16000m | 3.1m/s | -50.6°C | 3.8% | 106.4hPa | 2.7V | 08:30:00 | 01:13:55 | 00:00:00 | |
| DL1XH-west | 2026-09-05 12:09:58 | 55.88972 | 5.05420 | 135° | 68km/h | 16014m | 4.8m/s | -50.7°C | 0.7% | 106.2hPa | 2.6V | 18:12:15 | 01:13:58 | 00:00:00 | |
| BIOWL1-15 | 2026-09-05 12:09:57 | 55.89010 | 5.05351 | 133° | 73km/h | 16000m | 3.1m/s | -50.6°C | 0.7% | 106.4hPa | 2.7V | 18:12:15 | 01:13:55 | 00:00:00 | |
| GOEST3-10 | 2026-09-05 12:09:55 | 55.89010 | 5.05351 | 133° | 71km/h | 16000m | 3.0m/s | 0°C | 0% | 0hPa | 2.6V | 00:00:00 | 01:13:55 | 00:00:00 | |
| DM0DOS-11 | 2026-09-05 12:09:53 | 55.89055 | 5.05252 | 125° | 71km/h | 15981m | 4.9m/s | -50.6°C | 3.8% | 106.7hPa | 2.6V | 08:30:00 | 01:13:51 | 00:00:00 | |
| DL1XH-15 | 2026-09-05 12:09:50 | 55.89116 | 5.05094 | 126° | 71km/h | 15954m | 5m/s | -50.5°C | 3.8% | 107.2hPa | 2.7V | 08:30:00 | 01:13:45 | 00:00:00 | |
| DL1XH-west | 2026-09-05 12:09:48 | 55.89085 | 5.05173 | 124° | 69km/h | 15967m | 4.1m/s | -50.5°C | 0.6% | 106.9hPa | 2.6V | 18:12:15 | 01:13:48 | 00:00:00 | |
| BIOWL1-15 | 2026-09-05 12:09:46 | 55.89127 | 5.05068 | 128° | 71km/h | 15949m | 3.9m/s | -50.5°C | 0.7% | 107.2hPa | 2.7V | 18:12:15 | 01:13:44 | 00:00:00 | |
| GOEST3-10 | 2026-09-05 12:09:45 | 55.89116 | 5.05093 | 127° | 71km/h | 15954m | 5.0m/s | 0°C | 0% | 0hPa | 2.6V | 00:00:00 | 01:13:45 | 00:00:00 | |
| DM0DOS-11 | 2026-09-05 12:09:42 | 55.89161 | 5.04989 | 127° | 77km/h | 15937m | 4m/s | -50.5°C | 3.9% | 107.4hPa | 2.6V | 08:30:00 | 01:13:41 | 00:00:00 | |
| DJ2DS-15 | 2026-09-05 12:09:40 | 55.89173 | 5.04962 | 128° | 80km/h | 15933m | 4.9m/s | -50.4°C | 3.8% | 107.4hPa | 2.6V | 00:00:00 | 01:13:40 | 00:00:00 | |
| GOEST3-10 | 2026-09-05 12:09:39 | 55.89185 | 5.04934 | 128° | 77km/h | 15928m | 4.3m/s | 0°C | 0% | 0hPa | 2.6V | 00:00:00 | 00:00:00 | 00:00:00 | |
| DL1XH-15 | 2026-09-05 12:09:38 | 55.89231 | 5.04820 | 125° | 78km/h | 15909m | 4.5m/s | -50.3°C | 3.8% | 107.9hPa | 2.6V | 08:30:00 | 01:13:35 | 00:00:00 | |
| DL1XH-west | 2026-09-05 12:09:38 | 55.89197 | 5.04907 | 127° | 77km/h | 15923m | 4m/s | -50.4°C | 0.7% | 107.6hPa | 2.7V | 18:12:15 | 01:13:38 | 00:00:00 | |
| DM0DOS-11 | 2026-09-05 12:09:36 | 55.89279 | 5.04708 | 129° | 78km/h | 15892m | 3.9m/s | -50.2°C | 3.8% | 108.1hPa | 2.6V | 08:30:00 | 01:13:31 | 00:00:00 | |
| BIOWL1-15 | 2026-09-05 12:09:35 | 55.89255 | 5.04764 | 127° | 77km/h | 15901m | 4m/s | -50.3°C | 0.6% | 108hPa | 2.7V | 18:12:15 | 01:13:33 | 00:00:00 | |
| GOEST3-10 | 2026-09-05 12:09:31 | 55.89279 | 5.04708 | 130° | 80km/h | 15892m | 3.9m/s | 0°C | 0% | 0hPa | 2.6V | 00:00:00 | 01:13:31 | 00:00:00 | |
| DL1XH-15 | 2026-09-05 12:09:30 | 55.89354 | 5.04538 | 125° | 82km/h | 15867m | 4m/s | -50°C | 3.7% | 108.6hPa | 2.6V | 08:30:00 | 01:13:25 | 00:00:00 | |
| DL1XH-west | 2026-09-05 12:09:28 | 55.89317 | 5.04627 | 128° | 80km/h | 15880m | 4.8m/s | -50.1°C | 0.7% | 108.4hPa | 2.7V | 18:12:15 | 01:13:28 | 00:00:00 | |
| BIOWL1-15 | 2026-09-05 12:09:25 | 55.89377 | 5.04478 | 125° | 84km/h | 15858m | 5.3m/s | -50°C | 0.6% | 108.7hPa | 2.7V | 18:12:15 | 01:13:23 | 00:00:00 | |
| DM0DOS-11 | 2026-09-05 12:09:24 | 55.89401 | 5.04416 | 125° | 82km/h | 15849m | 4.7m/s | -50°C | 3.7% | 108.9hPa | 2.6V | 08:30:00 | 01:13:21 | 00:00:00 | |
| DJ2DS-15 | 2026-09-05 12:09:20 | 55.89413 | 5.04386 | 126° | 80km/h | 15845m | 3.3m/s | -50.0°C | 3.7% | 108.9hPa | 2.6V | 00:00:00 | 01:13:20 | 00:00:00 | |
| DL1XH-15 | 2026-09-05 12:09:18 | 55.89475 | 5.04241 | 127° | 82km/h | 15822m | 5.1m/s | -50°C | 3.5% | 109.3hPa | 2.6V | 08:30:00 | 01:13:15 | 00:00:00 | |
| DL1XH-west | 2026-09-05 12:09:17 | 55.89450 | 5.04298 | 128° | 80km/h | 15832m | 5.5m/s | -50°C | 0.5% | 109.2hPa | 2.7V | 18:12:15 | 01:13:17 | 00:00:00 | |
| BIOWL1-15 | 2026-09-05 12:09:13 | 55.89500 | 5.04181 | 126° | 82km/h | 15814m | 4m/s | -49.9°C | 0.4% | 109.5hPa | 2.7V | 18:12:15 | 01:13:13 | 00:00:00 | |
| DM0DOS-11 | 2026-09-05 12:09:12 | 55.89525 | 5.04121 | 125° | 84km/h | 15805m | 3.9m/s | -49.9°C | 3.5% | 109.7hPa | 2.7V | 08:30:00 | 01:13:11 | 00:00:00 | |
| DL1XH-15 | 2026-09-05 12:09:10 | 55.89596 | 5.03941 | 123° | 78km/h | 15780m | 4.9m/s | -50°C | 3.5% | 110.1hPa | 2.7V | 00:00:00 | 01:13:05 | 00:00:00 | |
| DL1XH-west | 2026-09-05 12:09:07 | 55.89573 | 5.03999 | 126° | 78km/h | 15789m | 3.5m/s | -49.9°C | 0.4% | 109.9hPa | 2.7V | 18:12:15 | 01:13:07 | 00:00:00 | |
| BIOWL1-15 | 2026-09-05 12:09:02 | 55.89626 | 5.03855 | 121° | 73km/h | 15766m | 4m/s | -50.4°C | 0.5% | 110.3hPa | 2.6V | 18:12:15 | 01:13:02 | 00:00:00 | |
| DJ2DS-15 | 2026-09-05 12:09:00 | 55.89645 | 5.03797 | 121° | 77km/h | 15757m | 3.6m/s | -50.7°C | 3.6% | 110.4hPa | 2.7V | 00:00:00 | 01:13:00 | 08:30:00 | |
| DL1XH-15 | 2026-09-05 12:08:59 | 55.89709 | 5.03619 | 122° | 80km/h | 15731m | 3.7m/s | -51.4°C | 3.8% | 110.9hPa | 2.6V | 00:00:00 | 01:12:54 | 00:00:00 | |
| DL1XH-west | 2026-09-05 12:08:56 | 55.89688 | 5.03679 | 124° | 78km/h | 15740m | 4.5m/s | -51.2°C | 0.5% | 110.7hPa | 2.7V | 18:12:15 | 01:12:56 | 00:00:00 | |
| BIOWL1-15 | 2026-09-05 12:08:53 | 55.89741 | 5.03528 | 121° | 78km/h | 15718m | 4.3m/s | -51.8°C | 0.7% | 111.1hPa | 2.7V | 18:12:15 | 01:12:51 | 00:00:00 | |
| DM0DOS-11 | 2026-09-05 12:08:51 | 55.89789 | 5.03376 | 118° | 77km/h | 15695m | 4.7m/s | -51.9°C | 4% | 111.5hPa | 2.7V | 08:30:00 | 01:12:46 | 00:00:00 | |
| DL1XH-15 | 2026-09-05 12:08:48 | 55.89808 | 5.03317 | 119° | 73km/h | 15686m | 5.2m/s | -51.8°C | 4.1% | 0hPa | 2.7V | 00:00:00 | 01:12:44 | 00:00:00 | |
| DL1XH-west | 2026-09-05 12:08:46 | 55.89789 | 5.03377 | 119° | 77km/h | 15695m | 4.7m/s | -51.9°C | 0.7% | 111.5hPa | 2.7V | 18:12:15 | 01:12:46 | 00:00:00 | |
| BIOWL9-15 | 2026-09-05 12:08:44 | 55.89808 | 5.03317 | 119° | 73km/h | 15686m | 5.2m/s | -51.8°C | 1.4% | 111.6hPa | 2.7V | 00:00:00 | 00:00:00 | 00:00:00 | |
| BIOWL1-15 | 2026-09-05 12:08:40 | 55.89842 | 5.03203 | 115° | 69km/h | 15668m | 4.7m/s | -51.8°C | 0.7% | 112hPa | 2.7V | 18:12:15 | 01:12:40 | 00:00:00 | |
| DJ2DS-15 | 2026-09-05 12:08:40 | 55.89842 | 5.03203 | 116° | 66km/h | 15668m | 4.6m/s | -51.7°C | 4.0% | 111.9hPa | 2.7V | 00:00:00 | 01:12:40 | 00:00:00 | |
| DL1XH-15 | 2026-09-05 12:08:38 | 55.89892 | 5.03009 | 114° | 69km/h | 15635m | 5.5m/s | -51.8°C | 4% | 0hPa | 2.7V | 00:00:00 | 01:12:33 | 00:00:00 | |
| DL1XH-west | 2026-09-05 12:08:35 | 55.89877 | 5.03065 | 114° | 68km/h | 15645m | 5.2m/s | -51.8°C | 0.8% | 112.4hPa | 2.6V | 18:12:15 | 01:12:35 | 00:00:00 | |
| DM0DOS-11 | 2026-09-05 12:08:34 | 55.89906 | 5.02954 | 115° | 66km/h | 15626m | 5.2m/s | -51.7°C | 4% | 112.7hPa | 2.6V | 08:30:00 | 01:12:31 | 00:00:00 | |
| BIOWL1-15 | 2026-09-05 12:08:29 | 55.89920 | 5.02900 | 113° | 66km/h | 15617m | 5.1m/s | -51.8°C | 0.8% | 112.9hPa | 2.7V | 18:12:15 | 01:12:29 | 00:00:00 | |
| DL1XH-15 | 2026-09-05 12:08:28 | 55.89951 | 5.02733 | 104° | 64km/h | 15589m | 4.9m/s | -51.7°C | 0% | 0hPa | 2.7V | 00:00:00 | 01:12:23 | 00:00:00 | |
| DM0DOS-11 | 2026-09-05 12:08:26 | 55.89959 | 5.02678 | 103° | 62km/h | 15580m | 3.4m/s | -51.6°C | 4% | 113.5hPa | 2.6V | 08:30:00 | 01:12:21 | 00:00:00 | |
| DL1XH-west | 2026-09-05 12:08:24 | 55.89947 | 5.02762 | 106° | 66km/h | 15593m | 4.7m/s | -51.7°C | 0.8% | 113.3hPa | 2.7V | 18:12:15 | 01:12:24 | 00:00:00 | |
| BIOWL1-15 | 2026-09-05 12:08:19 | 55.89966 | 5.02623 | 103° | 66km/h | 15571m | 4.2m/s | -51.7°C | 0.8% | 113.7hPa | 2.7V | 18:12:15 | 01:12:19 | 00:00:00 | |
| DL1XH-15 | 2026-09-05 12:08:18 | 55.89995 | 5.02458 | 111° | 62km/h | 15544m | 5.5m/s | -51.5°C | 0% | 0hPa | 2.7V | 00:00:00 | 01:12:13 | 00:00:00 | |
| DL1XH-west | 2026-09-05 12:08:14 | 55.89989 | 5.02485 | 111° | 66km/h | 15549m | 3.8m/s | -51.6°C | 0.8% | 114hPa | 2.6V | 18:12:15 | 01:12:14 | 00:00:00 | |
| BIOWL1-15 | 2026-09-05 12:08:08 | 55.90028 | 5.02276 | 105° | 58km/h | 15514m | 4.7m/s | -51.8°C | 0.8% | 114.6hPa | 2.7V | 18:12:15 | 01:12:06 | 00:00:00 | |
| DL1XH-15 | 2026-09-05 12:08:07 | 55.90055 | 5.02153 | 115° | 57km/h | 15493m | 3.8m/s | -51.7°C | 0% | 0hPa | 2.7V | 00:00:00 | 01:12:01 | 00:00:00 | |
| DL1XH-west | 2026-09-05 12:08:03 | 55.90043 | 5.02200 | 114° | 58km/h | 15502m | 5m/s | -51.8°C | 0.9% | 114.9hPa | 2.6V | 18:12:15 | 01:12:03 | 00:00:00 | |
| BIOWL1-15 | 2026-09-05 12:07:56 | 55.90091 | 5.02001 | 113° | 66km/h | 15467m | 5.2m/s | -51.7°C | 0.9% | 115.5hPa | 2.6V | 18:12:15 | 01:11:55 | 00:00:00 | |
| DL1XH-west | 2026-09-05 12:07:52 | 55.90111 | 5.01919 | 114° | 64km/h | 15452m | 4m/s | -51.5°C | 0.9% | 115.8hPa | 2.7V | 18:12:15 | 01:11:52 | 00:00:00 | |
| DL1XH-15 | 2026-09-05 12:07:51 | 55.90125 | 5.01867 | 117° | 66km/h | 15443m | 5.8m/s | -51.4°C | 0% | 0hPa | 2.7V | 00:00:00 | 01:11:50 | 00:00:00 | |
| BIOWL1-15 | 2026-09-05 12:07:46 | 55.90173 | 5.01707 | 119° | 71km/h | 15414m | 5m/s | -51.3°C | 0.8% | 116.5hPa | 2.7V | 18:12:15 | 01:11:44 | 00:00:00 | |
| DL1XH-15 | 2026-09-05 12:07:45 | 55.90205 | 5.01596 | 117° | 71km/h | 15395m | 5.2m/s | -51.2°C | 0% | 0hPa | 2.7V | 00:00:00 | 01:11:40 | 00:00:00 | |
| DL1XH-west | 2026-09-05 12:07:41 | 55.90197 | 5.01624 | 117° | 69km/h | 15400m | 4.7m/s | -51.2°C | 0.8% | 116.7hPa | 2.6V | 18:12:15 | 01:11:41 | 00:00:00 | |
| DJ2DS-15 | 2026-09-05 12:07:39 | 55.90213 | 5.01568 | 117° | 77km/h | 15390m | 4.2m/s | -51.1°C | 4.0% | 116.9hPa | 2.6V | 00:00:00 | 01:11:39 | 00:00:00 | |
| DM0DOS-11 | 2026-09-05 12:07:37 | 55.90259 | 5.01389 | 116° | 78km/h | 15361m | 4.9m/s | -51°C | 4% | 117.4hPa | 2.6V | 08:30:00 | 01:11:33 | 00:00:00 | |
| BIOWL1-15 | 2026-09-05 12:07:35 | 55.90286 | 5.01296 | 116° | 78km/h | 15347m | 5.6m/s | -50.9°C | 0.8% | 117.7hPa | 2.7V | 18:12:15 | 01:11:30 | 00:00:00 | |
| DL1XH-15 | 2026-09-05 12:07:32 | 55.90295 | 5.01265 | 116° | 78km/h | 15342m | 4.4m/s | 0°C | 0% | 0hPa | 2.7V | 00:00:00 | 01:11:29 | 00:00:00 | |
| DL1XH-west | 2026-09-05 12:07:31 | 55.90277 | 5.01327 | 117° | 77km/h | 15352m | 4.1m/s | -50.9°C | 0.8% | 117.6hPa | 2.7V | 18:12:15 | 01:11:31 | 00:00:00 | |
| DM0DOS-11 | 2026-09-05 12:07:26 | 55.90348 | 5.01080 | 114° | 80km/h | 15316m | 3.4m/s | -50.6°C | 4% | 118.2hPa | 2.7V | 08:30:00 | 01:11:23 | 00:00:00 | |
| BIOWL1-15 | 2026-09-05 12:07:25 | 55.90348 | 5.01080 | 115° | 80km/h | 15316m | 3.4m/s | -50.6°C | 0.8% | 118.2hPa | 2.7V | 18:12:15 | 01:11:23 | 00:00:00 | |
| DL1XH-west | 2026-09-05 12:07:21 | 55.90366 | 5.01013 | 115° | 82km/h | 15306m | 4.7m/s | -50.5°C | 0.7% | 118.4hPa | 2.6V | 18:12:15 | 01:11:21 | 00:00:00 | |
| DJ2DS-15 | 2026-09-05 12:07:19 | 55.90383 | 5.00946 | 115° | 86km/h | 15297m | 4.0m/s | -50.5°C | 3.8% | 118.6hPa | 2.7V | 00:00:00 | 01:11:19 | 00:00:00 | |
| DL1XH-15 | 2026-09-05 12:07:18 | 55.90431 | 5.00781 | 117° | 82km/h | 15272m | 5.4m/s | 0°C | 0% | 0hPa | 2.7V | 00:00:00 | 01:11:14 | 00:00:00 | |
| DM0DOS-11 | 2026-09-05 12:07:16 | 55.90441 | 5.00749 | 117° | 82km/h | 15267m | 4.6m/s | -50.6°C | 3.9% | 119.1hPa | 2.7V | 08:30:00 | 01:11:13 | 00:00:00 | |
| BIOWL1-15 | 2026-09-05 12:07:12 | 55.90450 | 5.00715 | 115° | 82km/h | 15263m | 4.9m/s | -50.6°C | 0.8% | 119.2hPa | 2.6V | 18:12:15 | 01:11:12 | 00:00:00 | |
| DL1XH-west | 2026-09-05 12:07:11 | 55.90458 | 5.00682 | 114° | 82km/h | 15257m | 5.2m/s | -50.6°C | 0.8% | 119.3hPa | 2.6V | 18:12:15 | 01:11:11 | 00:00:00 | |
| DM0DOS-11 | 2026-09-05 12:07:07 | 55.90547 | 5.00326 | 112° | 93km/h | 15206m | 5m/s | -50.6°C | 4% | 120.2hPa | 2.6V | 08:30:00 | 01:11:01 | 00:00:00 | |
| DL1XH-15 | 2026-09-05 12:07:05 | 55.90519 | 5.00436 | 114° | 88km/h | 15221m | 5.7m/s | 0°C | 0% | 0hPa | 2.7V | 00:00:00 | 01:11:04 | 00:00:00 | |
| BIOWL1-15 | 2026-09-05 12:07:01 | 55.90547 | 5.00326 | 113° | 93km/h | 15206m | 5m/s | -50.6°C | 1% | 120.2hPa | 2.6V | 18:12:15 | 01:11:01 | 00:00:00 | |
| DL1XH-west | 2026-09-05 12:07:00 | 55.90556 | 5.00287 | 112° | 97km/h | 15202m | 4.3m/s | -50.6°C | 0.9% | 120.3hPa | 2.7V | 18:12:15 | 01:11:00 | 00:00:00 | |
| DJ2DS-15 | 2026-09-05 12:06:59 | 55.90565 | 5.00246 | 112° | 97km/h | 15197m | 5.4m/s | -50.6°C | 3.9% | 120.3hPa | 2.7V | 00:00:00 | 01:10:59 | 00:00:00 | |
| DL1XH-15 | 2026-09-05 12:06:58 | 55.90618 | 5.00004 | 111° | 95km/h | 15168m | 4m/s | 0°C | 0% | 0hPa | 2.7V | 00:00:00 | 01:10:53 | 00:00:00 | |
| DM0DOS-11 | 2026-09-05 12:06:55 | 55.90635 | 4.99925 | 110° | 93km/h | 15159m | 4.5m/s | -50.8°C | 4% | 121.1hPa | 2.6V | 08:30:00 | 01:10:51 | 00:00:00 | |
| BIOWL1-15 | 2026-09-05 12:06:53 | 55.90635 | 4.99925 | 111° | 93km/h | 15159m | 4.5m/s | -50.8°C | 0.9% | 121.1hPa | 2.6V | 18:12:15 | 01:10:51 | 00:00:00 | |
| DL1XH-west | 2026-09-05 12:06:49 | 55.90652 | 4.99845 | 111° | 97km/h | 15150m | 5.4m/s | -50.7°C | 0.9% | 121.3hPa | 2.7V | 18:12:15 | 01:10:49 | 00:00:00 | |
| DL1XH-15 | 2026-09-05 12:06:46 | 55.90715 | 4.99557 | 109° | 93km/h | 15118m | 5.2m/s | 0°C | 0% | 0hPa | 2.6V | 00:00:00 | 01:10:42 | 00:00:00 | |
| BIOWL1-15 | 2026-09-05 12:06:39 | 55.90738 | 4.99442 | 111° | 89km/h | 15105m | 4.4m/s | -50.6°C | 0.9% | 122.1hPa | 2.7V | 18:12:15 | 01:10:39 | 00:00:00 | |
| DJ2DS-15 | 2026-09-05 12:06:39 | 55.90738 | 4.99442 | 111° | 93km/h | 15106m | 4.3m/s | -50.5°C | 4.0% | 122.1hPa | 2.7V | 00:00:00 | 01:10:39 | 00:00:00 | |
| DJ2DS-15 | 2026-09-05 12:06:38 | 55.90755 | 4.99365 | 111° | 93km/h | 15096m | 5.2m/s | -50.6°C | 1.4% | 122.3hPa | 2.7V | 00:00:00 | 00:00:00 | 00:00:00 | |
| DM0DOS-11 | 2026-09-05 12:06:35 | 55.90810 | 4.99129 | 109° | 89km/h | 15069m | 4.1m/s | -50.5°C | 3.9% | 122.8hPa | 2.7V | 08:30:00 | 01:10:31 | 00:00:00 | |
| DL1XH-west | 2026-09-05 12:06:28 | 55.90832 | 4.99017 | 108° | 86km/h | 15056m | 4.5m/s | -50.4°C | 0.8% | 123hPa | 2.6V | 18:12:15 | 01:10:28 | 00:00:00 | |
| BIOWL1-15 | 2026-09-05 12:06:27 | 55.90852 | 4.98902 | 108° | 91km/h | 15043m | 5.1m/s | -50.3°C | 0.9% | 123.3hPa | 2.7V | 18:12:15 | 01:10:25 | 00:00:00 | |
| DM0DOS-11 | 2026-09-05 12:06:26 | 55.90884 | 4.98736 | 108° | 102km/h | 15025m | 3.9m/s | -50.2°C | 3.9% | 123.6hPa | 2.7V | 08:30:00 | 01:10:21 | 00:00:00 | |
| DL1XH-west | 2026-09-05 12:06:18 | 55.90909 | 4.98607 | 109° | 99km/h | 15012m | 3.6m/s | -50.4°C | 0.9% | 123.8hPa | 2.7V | 18:12:15 | 01:10:18 | 00:00:00 | |
| DM0DOS-11 | 2026-09-05 12:06:15 | 55.90962 | 4.98321 | 108° | 100km/h | 14979m | 4.5m/s | -50.2°C | 3.8% | 124.5hPa | 2.7V | 08:30:00 | 01:10:11 | 00:00:00 | |
| BIOWL1-15 | 2026-09-05 12:06:14 | 55.90938 | 4.98444 | 108° | 93km/h | 14993m | 5.2m/s | -50.3°C | 0.9% | 124.2hPa | 2.6V | 18:12:15 | 01:10:14 | 00:00:00 | |
| DL1XH-15 | 2026-09-05 12:06:11 | 55.90987 | 4.98188 | 108° | 108km/h | 14966m | 3.7m/s | 0°C | 0% | 0hPa | 2.6V | 00:00:00 | 01:10:08 | 00:00:00 | |
| DL1XH-west | 2026-09-05 12:06:07 | 55.91004 | 4.98096 | 107° | 108km/h | 14958m | 3.2m/s | -50°C | 0.8% | 124.9hPa | 2.7V | 18:12:15 | 01:10:06 | 00:00:00 | |
| BIOWL1-15 | 2026-09-05 12:06:03 | 55.91040 | 4.97873 | 105° | 99km/h | 14936m | 4.9m/s | -49.9°C | 0.8% | 125.3hPa | 2.6V | 18:12:15 | 01:10:01 | 00:00:00 | |
| DL1XH-west | 2026-09-05 12:05:57 | 55.91067 | 4.97702 | 107° | 100km/h | 14918m | 4m/s | -50°C | 0.7% | 125.7hPa | 2.6V | 18:12:15 | 01:09:57 | 00:00:00 | |
| DM0DOS-11 | 2026-09-05 12:05:56 | 55.91114 | 4.97442 | 106° | 99km/h | 14892m | 4.4m/s | -50.5°C | 3.9% | 126.2hPa | 2.7V | 08:30:00 | 01:09:51 | 00:00:00 | |
| BIOWL1-15 | 2026-09-05 12:05:55 | 55.91099 | 4.97528 | 107° | 102km/h | 14900m | 3.7m/s | -50.4°C | 0.8% | 126hPa | 2.6V | 18:12:15 | 01:09:53 | 00:00:00 | |
| DL1XH-west | 2026-09-05 12:05:47 | 55.91155 | 4.97194 | 108° | 95km/h | 14864m | 4.5m/s | -50.4°C | 0.9% | 126.7hPa | 2.7V | 18:12:15 | 01:09:45 | 00:00:00 | |
| BIOWL1-15 | 2026-09-05 12:05:43 | 55.91170 | 4.97112 | 110° | 97km/h | 14855m | 4.5m/s | -50.5°C | 0.9% | 126.9hPa | 2.7V | 18:12:15 | 01:09:43 | 00:00:00 | |
| DL1XH-west | 2026-09-05 12:05:36 | 55.91228 | 4.96824 | 110° | 91km/h | 14824m | 4.4m/s | -50.4°C | 1% | 127.5hPa | 2.6V | 18:12:15 | 01:09:36 | 00:00:00 | |
| DM0DOS-11 | 2026-09-05 12:05:35 | 55.91266 | 4.96636 | 110° | 88km/h | 14801m | 4.8m/s | -50.4°C | 3.9% | 127.9hPa | 2.7V | 08:30:00 | 01:09:31 | 00:00:00 | |
| BIOWL1-15 | 2026-09-05 12:05:32 | 55.91289 | 4.96524 | 110° | 89km/h | 14788m | 5.2m/s | -50.3°C | 0.8% | 128.2hPa | 2.7V | 18:12:15 | 01:09:28 | 00:00:00 | |
| DL1XH-west | 2026-09-05 12:05:26 | 55.91313 | 4.96408 | 110° | 93km/h | 14774m | 3.9m/s | -50.3°C | 0.8% | 128.5hPa | 2.6V | 18:12:15 | 01:09:25 | 00:00:00 | |
| DM0DOS-11 | 2026-09-05 12:05:26 | 55.91345 | 4.96257 | 110° | 86km/h | 14755m | 4.1m/s | -50.7°C | 3.9% | 128.9hPa | 2.6V | 08:30:00 | 01:09:21 | 00:00:00 | |
| BIOWL1-15 | 2026-09-05 12:05:20 | 55.91371 | 4.96149 | 114° | 89km/h | 14742m | 3.9m/s | -51°C | 1% | 129.1hPa | 2.7V | 18:12:15 | 01:09:18 | 00:00:00 | |
| DJ2DS-15 | 2026-09-05 12:05:19 | 55.91362 | 4.96185 | 115° | 95km/h | 14747m | 3.9m/s | -50.8°C | 4.1% | 129.0hPa | 2.7V | 00:00:00 | 01:09:19 | 00:00:00 | |
| DM0DOS-11 | 2026-09-05 12:05:15 | 55.91437 | 4.95876 | 112° | 95km/h | 14709m | 4.2m/s | -50.9°C | 4.1% | 129.8hPa | 2.7V | 08:30:00 | 01:09:11 | 00:00:00 | |
| DL1XH-west | 2026-09-05 12:05:15 | 55.91408 | 4.95996 | 114° | 97km/h | 14723m | 4.5m/s | -50.9°C | 1% | 129.4hPa | 2.6V | 18:12:15 | 01:09:14 | 00:00:00 | |
| BIOWL1-15 | 2026-09-05 12:05:07 | 55.91536 | 4.95489 | 116° | 99km/h | 14662m | 4.5m/s | -50.6°C | 1% | 130.7hPa | 2.7V | 18:12:15 | 01:09:01 | 00:00:00 | |
| DL1XH-west | 2026-09-05 12:05:03 | 55.91514 | 4.95569 | 114° | 97km/h | 14672m | 4.1m/s | -50.7°C | 1% | 130.5hPa | 2.6V | 18:12:15 | 01:09:03 | 00:00:00 | |
| DM0DOS-11 | 2026-09-05 12:05:03 | 55.91546 | 4.95450 | 115° | 95km/h | 14658m | 4m/s | -50.5°C | 4.1% | 130.8hPa | 2.7V | 08:30:00 | 01:09:00 | 00:00:00 | |
| DJ2DS-15 | 2026-09-05 12:04:59 | 55.91556 | 4.95412 | 116° | 89km/h | 14654m | 4.8m/s | -50.4°C | 4.1% | 130.8hPa | 2.6V | 00:00:00 | 01:08:59 | 00:00:00 | |
| DM0DOS-11 | 2026-09-05 12:04:55 | 55.91646 | 4.95088 | 115° | 88km/h | 14613m | 3.7m/s | -50.2°C | 4% | 131.7hPa | 2.7V | 08:30:00 | 01:08:50 | 00:00:00 | |
| BIOWL1-15 | 2026-09-05 12:04:54 | 55.91626 | 4.95159 | 117° | 89km/h | 14622m | 4m/s | -50.2°C | 0.9% | 131.5hPa | 2.6V | 18:12:15 | 01:08:52 | 00:00:00 | |
| DL1XH-west | 2026-09-05 12:04:53 | 55.91616 | 4.95195 | 117° | 89km/h | 14626m | 4.9m/s | -50.3°C | 0.9% | 131.4hPa | 2.6V | 18:12:15 | 01:08:53 | 00:00:00 | |
| DJ2DS-15 | 2026-09-05 12:04:50 | 55.91656 | 4.95053 | 116° | 86km/h | 14608m | 5.5m/s | -50.2°C | 1.5% | 131.8hPa | 2.7V | 00:00:00 | 00:00:00 | 00:00:00 | |
| DM0DOS-11 | 2026-09-05 12:04:45 | 55.91747 | 4.94726 | 116° | 91km/h | 14568m | 4.1m/s | -50°C | 4% | 132.6hPa | 2.7V | 08:30:00 | 01:08:40 | 00:00:00 | |
| BIOWL1-15 | 2026-09-05 12:04:43 | 55.91737 | 4.94763 | 116° | 91km/h | 14572m | 4.2m/s | -50°C | 0.9% | 132.6hPa | 2.6V | 18:12:15 | 01:08:41 | 00:00:00 | |
| DL1XH-west | 2026-09-05 12:04:43 | 55.91726 | 4.94800 | 117° | 93km/h | 14577m | 4.9m/s | -50.1°C | 0.9% | 132.4hPa | 2.6V | 18:12:15 | 01:08:42 | 00:00:00 | |
| DJ2DS-15 | 2026-09-05 12:04:39 | 55.91757 | 4.94690 | 119° | 91km/h | 14563m | 5.1m/s | -49.9°C | 4.0% | 132.7hPa | 2.7V | 00:00:00 | 01:08:39 | 00:00:00 | |
| BIOWL9-15 | 2026-09-05 12:04:36 | 55.91800 | 4.94548 | 118° | 89km/h | 14546m | 4.2m/s | -49.9°C | 1.5% | 133.1hPa | 2.7V | 00:00:00 | 00:00:00 | 00:00:00 | |
| DM0DOS-11 | 2026-09-05 12:04:35 | 55.91855 | 4.94374 | 119° | 88km/h | 14521m | 5.5m/s | -49.8°C | 3.9% | 133.6hPa | 2.7V | 08:30:00 | 01:08:30 | 00:00:00 | |
| DL1XH-west | 2026-09-05 12:04:32 | 55.91834 | 4.94443 | 119° | 88km/h | 14531m | 5.4m/s | -49.8°C | 0.9% | 133.4hPa | 2.6V | 18:12:15 | 01:08:32 | 00:00:00 | |
| BIOWL1-15 | 2026-09-05 12:04:30 | 55.91855 | 4.94374 | 120° | 88km/h | 14522m | 5.5m/s | -49.8°C | 0.8% | 133.6hPa | 2.7V | 18:12:15 | 01:08:30 | 00:00:00 | |
| DM0DOS-11 | 2026-09-05 12:04:24 | 55.91971 | 4.94008 | 120° | 95km/h | 14471m | 4.4m/s | -49.3°C | 3.8% | 134.6hPa | 2.6V | 08:30:00 | 01:08:20 | 00:00:00 | |
| DL1XH-west | 2026-09-05 12:04:22 | 55.91947 | 4.94083 | 120° | 97km/h | 14481m | 5.7m/s | -49.5°C | 0.8% | 134.4hPa | 2.7V | 18:12:15 | 01:08:22 | 00:00:00 | |
| BIOWL1-15 | 2026-09-05 12:04:20 | 55.91971 | 4.94009 | 120° | 95km/h | 14471m | 4.4m/s | -49.3°C | 0.8% | 134.6hPa | 2.6V | 18:12:15 | 01:08:20 | 00:00:00 | |
| DL1XH-west | 2026-09-05 12:04:12 | 55.92067 | 4.93717 | 121° | 99km/h | 14433m | 4.3m/s | -48.9°C | 0.7% | 135.4hPa | 2.7V | 18:12:15 | 01:08:12 | 00:00:00 | |
| BIOWL1-15 | 2026-09-05 12:04:11 | 55.92106 | 4.93602 | 121° | 99km/h | 14419m | 4.3m/s | -48.9°C | 0.6% | 135.7hPa | 2.7V | 18:12:15 | 01:08:09 | 00:00:00 | |
| DL1XH-west | 2026-09-05 12:04:01 | 55.92209 | 4.93299 | 120° | 99km/h | 14381m | 3.7m/s | -48.8°C | 0.6% | 136.4hPa | 2.7V | 18:12:15 | 01:08:01 | 00:00:00 | |
| BIOWL1-15 | 2026-09-05 12:04:01 | 55.92234 | 4.93222 | 121° | 97km/h | 14373m | 4.5m/s | -48.9°C | 0.7% | 136.7hPa | 2.6V | 18:12:15 | 01:07:59 | 00:00:00 | |
| DJ2DS-15 | 2026-09-05 12:03:59 | 55.92234 | 4.93222 | 121° | 104km/h | 14373m | 4.5m/s | -48.8°C | 3.6% | 136.6hPa | 2.6V | 00:00:00 | 01:07:59 | 00:00:00 | |
| DM0DOS-11 | 2026-09-05 12:03:55 | 55.92311 | 4.92996 | 122° | 99km/h | 14344m | 5.3m/s | -49.1°C | 3.5% | 137.2hPa | 2.6V | 08:30:00 | 01:07:53 | 00:00:00 | |
| DL1XH-west | 2026-09-05 12:03:51 | 55.92337 | 4.92920 | 121° | 102km/h | 14334m | 3.8m/s | -49°C | 0.6% | 137.4hPa | 2.7V | 18:12:15 | 01:07:51 | 00:00:00 | |
| BIOWL1-15 | 2026-09-05 12:03:48 | 55.92377 | 4.92797 | 118° | 108km/h | 14319m | 4.9m/s | -49.1°C | 0.6% | 137.7hPa | 2.7V | 18:12:15 | 01:07:48 | 00:00:00 | |
| DM0DOS-11 | 2026-09-05 12:03:45 | 55.92440 | 4.92575 | 118° | 111km/h | 14297m | 3.7m/s | -49.1°C | 3.6% | 138.3hPa | 2.6V | 08:30:00 | 01:07:43 | 00:00:00 | |
| DL1XH-west | 2026-09-05 12:03:40 | 55.92480 | 4.92441 | 117° | 113km/h | 14284m | 4.2m/s | -49.3°C | 0.7% | 138.4hPa | 2.7V | 18:12:15 | 01:07:40 | 00:00:00 | |
| DJ2DS-15 | 2026-09-05 12:03:39 | 55.92493 | 4.92395 | 117° | 113km/h | 14280m | 4.3m/s | -49.3°C | 3.7% | 138.5hPa | 2.6V | 00:00:00 | 01:07:39 | 00:00:00 | |
| DM0DOS-11 | 2026-09-05 12:03:38 | 55.92569 | 4.92121 | 116° | 111km/h | 14253m | 4.4m/s | -49.8°C | 3.7% | 139.1hPa | 2.6V | 08:30:00 | 01:07:33 | 00:00:00 | |
| BIOWL1-15 | 2026-09-05 12:03:38 | 55.92506 | 4.92350 | 117° | 115km/h | 14276m | 3.9m/s | -49.4°C | 0.7% | 138.7hPa | 2.6V | 18:12:15 | 01:07:38 | 00:00:00 | |
| DL1XH-west | 2026-09-05 12:03:30 | 55.92607 | 4.91987 | 117° | 111km/h | 14241m | 4.1m/s | -49.9°C | 0.7% | 139.4hPa | 2.7V | 18:12:15 | 01:07:30 | 00:00:00 | |
| BIOWL1-15 | 2026-09-05 12:03:27 | 55.92691 | 4.91661 | 112° | 113km/h | 14210m | 4.3m/s | -50.4°C | 1% | 140.1hPa | 2.7V | 18:12:15 | 01:07:23 | 00:00:00 | |
| DM0DOS-11 | 2026-09-05 12:03:25 | 55.92691 | 4.91661 | 111° | 113km/h | 14210m | 4.3m/s | -50.4°C | 4% | 140.1hPa | 2.7V | 08:30:00 | 01:07:23 | 00:00:00 | |
| DL1XH-west | 2026-09-05 12:03:20 | 55.92722 | 4.91519 | 110° | 113km/h | 14197m | 4.2m/s | -50.2°C | 0.9% | 140.4hPa | 2.6V | 18:12:15 | 01:07:20 | 00:00:00 | |
| BIOWL1-15 | 2026-09-05 12:03:13 | 55.92788 | 4.91182 | 110° | 115km/h | 14168m | 4.4m/s | -50.2°C | 0.8% | 141hPa | 2.6V | 18:12:15 | 01:07:13 | 00:00:00 | |
| DL1XH-west | 2026-09-05 12:03:09 | 55.92838 | 4.90945 | 111° | 111km/h | 14147m | 3.4m/s | -50.2°C | 0.9% | 141.5hPa | 2.6V | 18:12:15 | 01:07:08 | 00:00:00 | |
| BIOWL9-15 | 2026-09-05 12:03:03 | 55.92897 | 4.90659 | 108° | 113km/h | 14122m | 3.3m/s | -50.5°C | 1.5% | 142.0hPa | 2.6V | 00:00:00 | 00:00:00 | 00:00:00 | |
| DJ2DS-15 | 2026-09-05 12:02:59 | 55.92925 | 4.90515 | 110° | 110km/h | 14110m | 4.8m/s | -50.9°C | 4.0% | 142.2hPa | 2.6V | 00:00:00 | 01:06:59 | 08:30:00 | |
| DM0DOS-11 | 2026-09-05 12:02:58 | 55.92983 | 4.90248 | 113° | 108km/h | 14086m | 3.4m/s | -51.1°C | 4.2% | 142.8hPa | 2.6V | 08:30:00 | 01:06:53 | 00:00:00 | |
| DL1XH-west | 2026-09-05 12:02:58 | 55.92943 | 4.90424 | 110° | 106km/h | 14102m | 3.8m/s | -51.2°C | 1.1% | 142.5hPa | 2.6V | 18:12:15 | 01:06:57 | 00:00:00 | |
| BIOWL1-15 | 2026-09-05 12:02:54 | 55.92994 | 4.90203 | 114° | 110km/h | 14082m | 4.9m/s | -51.1°C | 1.2% | 142.9hPa | 2.6V | 18:12:15 | 01:06:52 | 00:00:00 | |
| DL1XH-west | 2026-09-05 12:02:47 | 55.93053 | 4.89976 | 115° | 111km/h | 14060m | 4.2m/s | -51.1°C | 1.2% | 143.4hPa | 2.6V | 18:12:15 | 01:06:47 | 00:00:00 | |
| DM0DOS-11 | 2026-09-05 12:02:44 | 55.93099 | 4.89796 | 115° | 110km/h | 14044m | 3.8m/s | -51.2°C | 4.2% | 143.8hPa | 2.6V | 08:30:00 | 01:06:43 | 00:00:00 | |
| BIOWL1-15 | 2026-09-05 12:02:41 | 55.93123 | 4.89708 | 115° | 108km/h | 14036m | 4.5m/s | -51.2°C | 1.2% | 143.9hPa | 2.7V | 18:12:15 | 01:06:41 | 00:00:00 | |
| DM0DOS-11 | 2026-09-05 12:02:38 | 55.93219 | 4.89359 | 115° | 110km/h | 14001m | 5m/s | -51.5°C | 4.3% | 144.7hPa | 2.7V | 08:30:00 | 01:06:33 | 00:00:00 | |
| DL1XH-west | 2026-09-05 12:02:36 | 55.93182 | 4.89492 | 116° | 108km/h | 14015m | 4m/s | -51.2°C | 1.2% | 144.4hPa | 2.6V | 18:12:15 | 01:06:36 | 00:00:00 | |
| BIOWL1-15 | 2026-09-05 12:02:30 | 55.93254 | 4.89226 | 116° | 110km/h | 13988m | 3.9m/s | -51.5°C | 1.3% | 145hPa | 2.6V | 18:12:15 | 01:06:30 | 00:00:00 | |
| DL1XH-west | 2026-09-05 12:02:25 | 55.93324 | 4.88963 | 115° | 106km/h | 13962m | 4.5m/s | -51.5°C | 1.4% | 145.5hPa | 2.7V | 18:12:15 | 01:06:24 | 00:00:00 | |
| DM0DOS-11 | 2026-09-05 12:02:25 | 55.93335 | 4.88919 | 114° | 108km/h | 13958m | 4m/s | -51.4°C | 4.4% | 145.6hPa | 2.7V | 08:30:00 | 01:06:23 | 00:00:00 | |
| BIOWL1-15 | 2026-09-05 12:02:20 | 55.93371 | 4.88783 | 115° | 113km/h | 13946m | 4.2m/s | -51.3°C | 1.3% | 145.9hPa | 2.7V | 18:12:15 | 01:06:20 | 00:00:00 | |
| DL1XH-west | 2026-09-05 12:02:15 | 55.93433 | 4.88550 | 116° | 113km/h | 13926m | 3.1m/s | -51.3°C | 1.2% | 146.3hPa | 2.6V | 18:12:15 | 01:06:15 | 00:00:00 | |
| BIOWL1-15 | 2026-09-05 12:02:13 | 55.93506 | 4.88278 | 116° | 115km/h | 13901m | 3m/s | -51.1°C | 1.2% | 146.9hPa | 2.6V | 18:12:15 | 01:06:09 | 00:00:00 | |
| DL1XH-west | 2026-09-05 12:02:05 | 55.93556 | 4.88091 | 115° | 115km/h | 13885m | 5.1m/s | -51.1°C | 1.3% | 147.3hPa | 2.6V | 18:12:15 | 01:06:05 | 00:00:00 | |
| DM0DOS-11 | 2026-09-05 12:02:04 | 55.93580 | 4.87996 | 114° | 117km/h | 13876m | 5m/s | -51.2°C | 4.2% | 147.5hPa | 2.7V | 08:30:00 | 01:06:03 | 00:00:00 | |
| BIOWL1-15 | 2026-09-05 12:01:58 | 55.93650 | 4.87704 | 113° | 117km/h | 13852m | 3.9m/s | -51.5°C | 1.2% | 148.1hPa | 2.7V | 18:12:15 | 01:05:57 | 00:00:00 | |
| DM0DOS-11 | 2026-09-05 12:01:54 | 55.93698 | 4.87512 | 114° | 115km/h | 13835m | 3.6m/s | -51.6°C | 4.4% | 148.4hPa | 2.7V | 08:30:00 | 01:05:53 | 00:00:00 | |
| DL1XH-west | 2026-09-05 12:01:54 | 55.93686 | 4.87559 | 115° | 117km/h | 13839m | 4.3m/s | -51.6°C | 1.2% | 148.3hPa | 2.6V | 18:12:15 | 01:05:54 | 00:00:00 | |
| BIOWL1-15 | 2026-09-05 12:01:46 | 55.93824 | 4.86968 | 112° | 119km/h | 13789m | 4.6m/s | -51.6°C | 1.2% | 149.5hPa | 2.7V | 18:12:15 | 01:05:42 | 00:00:00 | |
| DM0DOS-11 | 2026-09-05 12:01:44 | 55.93813 | 4.87018 | 111° | 119km/h | 13793m | 2.4m/s | -51.6°C | 4.3% | 149.3hPa | 2.6V | 08:30:00 | 01:05:43 | 00:00:00 | |
| DL1XH-west | 2026-09-05 12:01:43 | 55.93813 | 4.87018 | 111° | 119km/h | 13793m | 2.4m/s | -51.6°C | 1.2% | 149.3hPa | 2.6V | 18:12:15 | 01:05:43 | 00:00:00 | |
| BIOWL1-15 | 2026-09-05 12:01:37 | 55.93906 | 4.86619 | 115° | 120km/h | 13760m | 5m/s | -51.4°C | 1.3% | 150.2hPa | 2.7V | 18:12:15 | 01:05:35 | 00:00:00 | |
| DM0DOS-11 | 2026-09-05 12:01:34 | 55.93944 | 4.86474 | 115° | 119km/h | 13746m | 4m/s | -51.3°C | 4.2% | 150.5hPa | 2.6V | 08:30:00 | 01:05:32 | 00:00:00 | |
| DL1XH-west | 2026-09-05 12:01:32 | 55.93944 | 4.86474 | 116° | 119km/h | 13746m | 4m/s | -51.3°C | 1.2% | 150.5hPa | 2.6V | 18:12:15 | 01:05:32 | 00:00:00 | |
| DM0DOS-11 | 2026-09-05 12:01:24 | 55.94084 | 4.85955 | 117° | 115km/h | 13699m | 3.8m/s | -51.4°C | 4.2% | 151.5hPa | 2.7V | 08:30:00 | 01:05:21 | 00:00:00 | |
| BIOWL1-15 | 2026-09-05 12:01:24 | 55.94044 | 4.86093 | 117° | 117km/h | 13713m | 4m/s | 0°C | 0% | 151.3hPa | 2.7V | 18:12:15 | 01:05:24 | 00:00:00 | |
| DL1XH-west | 2026-09-05 12:01:21 | 55.94084 | 4.85955 | 118° | 115km/h | 13699m | 3.8m/s | -51.4°C | 1.2% | 151.6hPa | 2.7V | 18:12:15 | 01:05:21 | 00:00:00 | |
| BIOWL1-15 | 2026-09-05 12:01:18 | 55.94173 | 4.85634 | 114° | 115km/h | 13671m | 4.3m/s | 0°C | 0% | 0hPa | 2.7V | 18:12:15 | 01:05:14 | 00:00:00 | |
| DM0DOS-11 | 2026-09-05 12:01:14 | 55.94208 | 4.85493 | 114° | 115km/h | 13659m | 4.5m/s | -51.4°C | 4.4% | 152.5hPa | 2.6V | 08:30:00 | 01:05:11 | 00:00:00 | |
| DL1XH-west | 2026-09-05 12:01:11 | 55.94208 | 4.85493 | 114° | 115km/h | 13659m | 4.5m/s | -51.4°C | 1.3% | 152.5hPa | 2.6V | 18:12:15 | 01:05:11 | 00:00:00 | |
| BIOWL1-15 | 2026-09-05 12:01:04 | 55.94299 | 4.85177 | 118° | 111km/h | 13629m | 4.9m/s | 0°C | 0% | 0hPa | 2.7V | 18:12:15 | 01:05:04 | 00:00:00 | |
| DM0DOS-11 | 2026-09-05 12:01:02 | 55.94363 | 4.84950 | 116° | 113km/h | 13607m | 4.5m/s | -51.5°C | 4.3% | 153.7hPa | 2.7V | 08:30:00 | 01:04:59 | 00:00:00 | |
| DL1XH-west | 2026-09-05 12:01:00 | 55.94351 | 4.84996 | 116° | 113km/h | 13611m | 4.3m/s | -51.6°C | 1.2% | 153.6hPa | 2.7V | 18:12:15 | 01:05:00 | 00:00:00 | |
| DJ2DS-15 | 2026-09-05 12:00:59 | 55.94363 | 4.84950 | 117° | 111km/h | 13607m | 4.5m/s | -51.4°C | 4.3% | 153.7hPa | 2.7V | 00:00:00 | 01:04:59 | 00:00:00 | |
| DM0DOS-11 | 2026-09-05 12:00:54 | 55.94499 | 4.84511 | 118° | 113km/h | 13563m | 4.1m/s | -51.2°C | 4.4% | 154.7hPa | 2.6V | 08:30:00 | 01:04:49 | 00:00:00 | |
| BIOWL1-15 | 2026-09-05 12:00:54 | 55.94458 | 4.84641 | 120° | 110km/h | 13576m | 4.9m/s | 0°C | 0% | 0hPa | 2.7V | 18:12:15 | 01:04:52 | 00:00:00 | |
| DL1XH-west | 2026-09-05 12:00:50 | 55.94485 | 4.84555 | 119° | 110km/h | 13568m | 4.2m/s | -51.2°C | 1.3% | 154.7hPa | 2.6V | 18:12:15 | 01:04:50 | 00:00:00 | |
| DM0DOS-11 | 2026-09-05 12:00:44 | 55.94639 | 4.84078 | 118° | 110km/h | 13520m | 4.7m/s | -50.9°C | 4.2% | 155.8hPa | 2.7V | 08:30:00 | 01:04:39 | 00:00:00 | |
| DL1XH-west | 2026-09-05 12:00:39 | 55.94639 | 4.84078 | 119° | 110km/h | 13520m | 4.7m/s | -50.9°C | 1.2% | 155.8hPa | 2.7V | 18:12:15 | 01:04:39 | 00:00:00 | |
| DL1XH-west | 2026-09-05 12:00:29 | 55.94771 | 4.83642 | 120° | 110km/h | 13478m | 4.1m/s | -50.7°C | 1.2% | 156.8hPa | 2.6V | 18:12:15 | 01:04:29 | 00:00:00 | |
| DL1XH-west | 2026-09-05 12:00:19 | 55.94941 | 4.83064 | 117° | 111km/h | 13424m | 3m/s | -50.7°C | 1.1% | 158.1hPa | 2.7V | 18:12:15 | 01:04:16 | 00:00:00 | |
| DJ2DS-15 | 2026-09-05 12:00:19 | 55.94902 | 4.83198 | 118° | 115km/h | 13437m | 4.5m/s | -50.6°C | 4.2% | 157.7hPa | 2.6V | 00:00:00 | 01:04:19 | 00:00:00 | |
| DM0DOS-11 | 2026-09-05 12:00:14 | 55.95005 | 4.82836 | 116° | 113km/h | 13405m | 3.2m/s | -50.6°C | 4.1% | 158.6hPa | 2.6V | 08:30:00 | 01:04:11 | 00:00:00 | |
| DL1XH-west | 2026-09-05 12:00:07 | 55.95056 | 4.82653 | 117° | 113km/h | 13389m | 3.2m/s | -50.5°C | 1.2% | 159hPa | 2.6V | 18:12:15 | 01:04:07 | 00:00:00 | |
| DM0DOS-11 | 2026-09-05 12:00:04 | 55.95156 | 4.82331 | 119° | 119km/h | 13361m | 4.2m/s | -50.3°C | 4.2% | 159.6hPa | 2.7V | 08:30:00 | 01:04:00 | 00:00:00 | |
| DL1XH-west | 2026-09-05 11:59:56 | 55.95216 | 4.82145 | 119° | 120km/h | 13344m | 3.4m/s | -50.3°C | 1.1% | 160.1hPa | 2.6V | 18:12:15 | 01:03:56 | 00:00:00 | |
| DM0DOS-11 | 2026-09-05 11:59:53 | 55.95307 | 4.81867 | 121° | 117km/h | 13319m | 4m/s | -50.1°C | 4.1% | 160.7hPa | 2.6V | 08:30:00 | 01:03:50 | 00:00:00 | |
| DL1XH-west | 2026-09-05 11:59:46 | 55.95369 | 4.81688 | 122° | 117km/h | 13302m | 4m/s | -49.9°C | 1.1% | 161.1hPa | 2.6V | 18:12:15 | 01:03:46 | 00:00:00 | |
| DM0DOS-11 | 2026-09-05 11:59:43 | 55.95459 | 4.81412 | 120° | 120km/h | 13279m | 4.4m/s | -49.8°C | 3.9% | 161.7hPa | 2.6V | 08:30:00 | 01:03:40 | 00:00:00 | |
| DL1XH-west | 2026-09-05 11:59:35 | 55.95537 | 4.81188 | 122° | 117km/h | 13258m | 4m/s | -49.7°C | 0.9% | 162.2hPa | 2.6V | 18:12:15 | 01:03:35 | 00:00:00 | |
| DM0DOS-11 | 2026-09-05 11:59:34 | 55.95613 | 4.80962 | 120° | 119km/h | 13237m | 4.2m/s | -49.7°C | 3.8% | 162.7hPa | 2.7V | 08:30:00 | 01:03:30 | 00:00:00 | |
| DL1XH-west | 2026-09-05 11:59:25 | 55.95689 | 4.80734 | 123° | 120km/h | 13216m | 4.3m/s | -49.7°C | 1% | 163.2hPa | 2.7V | 18:12:15 | 01:03:25 | 00:00:00 | |
| DL1XH-west | 2026-09-05 11:59:15 | 55.95855 | 4.80267 | 122° | 122km/h | 13175m | 4.4m/s | -49.8°C | 0.8% | 164.3hPa | 2.7V | 18:12:15 | 01:03:15 | 00:00:00 | |
| DL1XH-west | 2026-09-05 11:59:04 | 55.96040 | 4.79733 | 120° | 130km/h | 13129m | 5m/s | -50°C | 1% | 165.4hPa | 2.7V | 18:12:15 | 01:03:04 | 00:00:00 | |
| DJ2DS-15 | 2026-09-05 11:58:59 | 55.96123 | 4.79478 | 121° | 131km/h | 13109m | 3.0m/s | -50.2°C | 4.0% | 166.0hPa | 2.6V | 00:00:00 | 01:02:59 | 00:00:00 | |
| DM0DOS-11 | 2026-09-05 11:58:58 | 55.96156 | 4.79377 | 118° | 128km/h | 13101m | 3.1m/s | -50.3°C | 4% | 166.2hPa | 2.7V | 08:30:00 | 01:02:57 | 00:00:00 | |
| DL1XH-west | 2026-09-05 11:58:54 | 55.96201 | 4.79224 | 117° | 130km/h | 13090m | 3.9m/s | -50.4°C | 1.3% | 166.5hPa | 2.6V | 18:12:15 | 01:02:54 | 00:00:00 | |
| DM0DOS-11 | 2026-09-05 11:58:48 | 55.96310 | 4.78862 | 120° | 133km/h | 13060m | 3.4m/s | -50.9°C | 4.3% | 167.2hPa | 2.7V | 08:30:00 | 01:02:47 | 00:00:00 | |
| DL1XH-west | 2026-09-05 11:58:44 | 55.96379 | 4.78657 | 120° | 135km/h | 13045m | 3.4m/s | -50.9°C | 1.5% | 167.6hPa | 2.6V | 18:12:15 | 01:02:43 | 00:00:00 | |
| DJ2DS-15 | 2026-09-05 11:58:39 | 55.96445 | 4.78439 | 117° | 141km/h | 13029m | 3.5m/s | -50.9°C | 4.4% | 167.9hPa | 2.6V | 00:00:00 | 01:02:39 | 00:00:00 | |
| DM0DOS-11 | 2026-09-05 11:58:37 | 55.96541 | 4.78111 | 119° | 137km/h | 13007m | 3.7m/s | -51°C | 4.6% | 168.6hPa | 2.6V | 08:30:00 | 01:02:33 | 00:00:00 | |
| DL1XH-west | 2026-09-05 11:58:32 | 55.96558 | 4.78058 | 119° | 137km/h | 13003m | 3.6m/s | -51°C | 1.8% | 168.7hPa | 2.6V | 18:12:15 | 01:02:32 | 00:00:00 | |
| DM0DOS-11 | 2026-09-05 11:58:23 | 55.96811 | 4.77273 | 120° | 142km/h | 12948m | 3.9m/s | -50.7°C | 4.6% | 170.1hPa | 2.6V | 08:30:00 | 01:02:18 | 00:00:00 | |
| DL1XH-west | 2026-09-05 11:58:22 | 55.96739 | 4.77495 | 120° | 141km/h | 12964m | 3.4m/s | -50.8°C | 1.8% | 169.7hPa | 2.7V | 18:12:15 | 01:02:22 | 00:00:00 | |
| DL1XH-west | 2026-09-05 11:58:12 | 55.96940 | 4.76876 | 120° | 144km/h | 12920m | 4.3m/s | -50.9°C | 1.8% | 170.8hPa | 2.7V | 18:12:15 | 01:02:11 | 00:00:00 | |
| DM0DOS-11 | 2026-09-05 11:58:07 | 55.97110 | 4.76373 | 120° | 148km/h | 12883m | 4.2m/s | -50.8°C | 4.8% | 171.8hPa | 2.6V | 08:30:00 | 01:02:02 | 00:00:00 | |
| DL1XH-west | 2026-09-05 11:58:00 | 55.97148 | 4.76259 | 121° | 148km/h | 12876m | 3.4m/s | -50.8°C | 2% | 172hPa | 2.7V | 18:12:15 | 01:02:00 | 00:00:00 | |
| DL1XH-west | 2026-09-05 11:57:49 | 55.97384 | 4.75585 | 122° | 144km/h | 12828m | 2.9m/s | -50.9°C | 1.9% | 173.3hPa | 2.6V | 18:12:15 | 01:01:48 | 00:00:00 | |
| DM0DOS-11 | 2026-09-05 11:57:47 | 55.97482 | 4.75302 | 120° | 150km/h | 12809m | 3.5m/s | -51°C | 4.7% | 173.8hPa | 2.6V | 08:30:00 | 01:01:43 | 00:00:00 | |
| DL1XH-west | 2026-09-05 11:57:39 | 55.97560 | 4.75074 | 122° | 146km/h | 12792m | 3.1m/s | -51°C | 2% | 174.3hPa | 2.7V | 18:12:15 | 01:01:39 | 00:00:00 | |
| DL1XH-west | 2026-09-05 11:57:28 | 55.97768 | 4.74430 | 119° | 153km/h | 12750m | 4m/s | -51.1°C | 2.3% | 175.4hPa | 2.7V | 18:12:15 | 01:01:28 | 00:00:00 | |
| DM0DOS-11 | 2026-09-05 11:57:27 | 55.97825 | 4.74253 | 119° | 150km/h | 12739m | 3.7m/s | -51°C | 4.9% | 175.7hPa | 2.7V | 08:30:00 | 01:01:25 | 00:00:00 | |
| DL1XH-west | 2026-09-05 11:57:18 | 55.97971 | 4.73777 | 119° | 150km/h | 12707m | 3.9m/s | -51.1°C | 2.1% | 176.5hPa | 2.6V | 18:12:15 | 01:01:17 | 00:00:00 | |
| DM0DOS-11 | 2026-09-05 11:57:16 | 55.98079 | 4.73420 | 117° | 150km/h | 12684m | 4m/s | -51.2°C | 4.9% | 177.2hPa | 2.6V | 08:30:00 | 01:01:11 | 00:00:00 | |
| DL1XH-west | 2026-09-05 11:57:07 | 55.98168 | 4.73126 | 118° | 146km/h | 12663m | 4.5m/s | -51.4°C | 2% | 177.7hPa | 2.6V | 18:12:15 | 01:01:06 | 00:00:00 | |
| DL1XH-west | 2026-09-05 11:56:57 | 55.98339 | 4.72542 | 119° | 148km/h | 12623m | 3.6m/s | -51.2°C | 1.8% | 178.9hPa | 2.6V | 18:12:15 | 01:00:56 | 00:00:00 | |
| DM0DOS-11 | 2026-09-05 11:56:55 | 55.98376 | 4.72426 | 120° | 150km/h | 12614m | 4.8m/s | -51.2°C | 4.6% | 179.1hPa | 2.7V | 08:30:00 | 01:00:54 | 00:00:00 | |
| DM0DOS-11 | 2026-09-05 11:56:47 | 55.98610 | 4.71720 | 122° | 151km/h | 12563m | 4.6m/s | -50.9°C | 4.8% | 180.5hPa | 2.7V | 08:30:00 | 01:00:42 | 00:00:00 | |
| DL1XH-west | 2026-09-05 11:56:47 | 55.98548 | 4.71894 | 122° | 151km/h | 12575m | 3.9m/s | -51°C | 2.1% | 180.2hPa | 2.6V | 18:12:15 | 01:00:45 | 00:00:00 | |
| DL1XH-west | 2026-09-05 11:56:36 | 55.98756 | 4.71315 | 123° | 155km/h | 12533m | 3.8m/s | -51.1°C | 1.8% | 181.3hPa | 2.6V | 18:12:15 | 01:00:35 | 00:00:00 | |
| DL1XH-west | 2026-09-05 11:56:26 | 55.98970 | 4.70729 | 125° | 155km/h | 12491m | 4.9m/s | -50.7°C | 2% | 182.5hPa | 2.6V | 18:12:15 | 01:00:25 | 00:00:00 | |
| DL1XH-west | 2026-09-05 11:56:15 | 55.99189 | 4.70144 | 124° | 153km/h | 12450m | 4.1m/s | -50.8°C | 2.1% | 183.7hPa | 2.6V | 18:12:15 | 01:00:15 | 00:00:00 | |
| DL1XH-west | 2026-09-05 11:56:06 | 55.99403 | 4.69555 | 122° | 157km/h | 12408m | 4.1m/s | -50.9°C | 2.3% | 184.9hPa | 2.7V | 18:12:15 | 01:00:05 | 00:00:00 | |
| DM0DOS-11 | 2026-09-05 11:56:06 | 55.99509 | 4.69243 | 120° | 164km/h | 12386m | 5.1m/s | -50.8°C | 5.1% | 185.5hPa | 2.7V | 08:30:00 | 01:00:00 | 00:00:00 | |
| DL1XH-west | 2026-09-05 11:55:55 | 55.99635 | 4.68868 | 121° | 159km/h | 12359m | 5m/s | -50.7°C | 2.5% | 186.3hPa | 2.7V | 18:12:15 | 00:59:54 | 00:00:00 | |
| DL1XH-west | 2026-09-05 11:55:44 | 55.99860 | 4.68179 | 120° | 157km/h | 12312m | 3.7m/s | -50.7°C | 2.8% | 187.6hPa | 2.6V | 18:12:15 | 00:59:43 | 00:00:00 | |
| DL1XH-west | 2026-09-05 11:55:34 | 56.00052 | 4.67544 | 118° | 157km/h | 12270m | 4.5m/s | -50.5°C | 2.8% | 188.8hPa | 2.7V | 18:12:15 | 00:59:33 | 00:00:00 | |
| DL1XH-west | 2026-09-05 11:55:23 | 56.00241 | 4.66917 | 118° | 161km/h | 12227m | 3.5m/s | -50.2°C | 2.5% | 190.1hPa | 2.7V | 18:12:15 | 00:59:23 | 00:00:00 | |
| DL1XH-west | 2026-09-05 11:55:12 | 56.00450 | 4.66233 | 120° | 161km/h | 12180m | 4.2m/s | -49.9°C | 2.1% | 191.4hPa | 2.7V | 18:12:15 | 00:59:12 | 00:00:00 | |
| DL1XH-west | 2026-09-05 11:55:01 | 56.00667 | 4.65551 | 119° | 159km/h | 12131m | 4.8m/s | -49.6°C | 2.2% | 192.9hPa | 2.7V | 18:12:15 | 00:59:01 | 00:00:00 | |
| DL1XH-west | 2026-09-05 11:54:50 | 56.00892 | 4.64871 | 121° | 157km/h | 12083m | 3.7m/s | -49.6°C | 2.2% | 194.4hPa | 2.7V | 18:12:15 | 00:58:50 | 00:00:00 | |
| DM0DOS-11 | 2026-09-05 11:54:44 | 56.01035 | 4.64433 | 121° | 170km/h | 12047m | 5.6m/s | -49.7°C | 4.9% | 195.4hPa | 2.7V | 08:30:00 | 00:58:43 | 00:00:00 | |
| DL1XH-west | 2026-09-05 11:54:40 | 56.01103 | 4.64238 | 122° | 168km/h | 12033m | 4.8m/s | -49.7°C | 2.5% | 195.8hPa | 2.6V | 18:12:15 | 00:58:40 | 00:00:00 | |
| DJ2DS-15 | 2026-09-05 11:54:39 | 56.01125 | 4.64173 | 121° | 172km/h | 12028m | 4.4m/s | -49.6°C | 5.0% | 195.9hPa | 2.7V | 00:00:00 | 00:58:39 | 00:00:00 | |
| DM0DOS-11 | 2026-09-05 11:54:35 | 56.01274 | 4.63713 | 119° | 168km/h | 11996m | 3.8m/s | -49.6°C | 4.9% | 196.9hPa | 2.7V | 08:30:00 | 00:58:32 | 00:00:00 | |
| DL1XH-west | 2026-09-05 11:54:29 | 56.01337 | 4.63513 | 119° | 172km/h | 11983m | 3.7m/s | -49.5°C | 2.7% | 197.3hPa | 2.6V | 18:12:15 | 00:58:29 | 00:00:00 | |
| DM0DOS-11 | 2026-09-05 11:54:25 | 56.01486 | 4.63039 | 118° | 175km/h | 11952m | 3.9m/s | -49.6°C | 5.7% | 0hPa | 2.7V | 08:30:00 | 00:58:22 | 00:00:00 | |
| DL1XH-west | 2026-09-05 11:54:18 | 56.01570 | 4.62760 | 118° | 175km/h | 11934m | 4.1m/s | -49.7°C | 3.1% | 198.8hPa | 2.6V | 18:12:15 | 00:58:18 | 00:00:00 | |
| DM0DOS-11 | 2026-09-05 11:54:14 | 56.01694 | 4.62339 | 118° | 177km/h | 11907m | 3.7m/s | -49.6°C | 5.6% | 0hPa | 2.6V | 08:30:00 | 00:58:12 | 00:00:00 | |
| DL1XH-west | 2026-09-05 11:54:08 | 56.01779 | 4.62058 | 118° | 177km/h | 11889m | 4.6m/s | -49.6°C | 3.7% | 200.2hPa | 2.7V | 18:12:15 | 00:58:08 | 00:00:00 | |
| DM0DOS-11 | 2026-09-05 11:54:00 | 56.02018 | 4.61271 | 118° | 175km/h | 11839m | 4.5m/s | -49.7°C | 0% | 0hPa | 2.7V | 08:30:00 | 00:57:57 | 00:00:00 | |
| DL1XH-west | 2026-09-05 11:53:58 | 56.01996 | 4.61341 | 119° | 177km/h | 11843m | 3.9m/s | -49.7°C | 4.5% | 201.6hPa | 2.7V | 18:12:15 | 00:57:58 | 00:00:00 | |
| DM0DOS-11 | 2026-09-05 11:53:50 | 56.02232 | 4.60553 | 117° | 183km/h | 11795m | 4m/s | -50.6°C | 0% | 0hPa | 2.6V | 08:30:00 | 00:57:47 | 00:00:00 | |
| DL1XH-west | 2026-09-05 11:53:48 | 56.02232 | 4.60553 | 118° | 183km/h | 11795m | 4m/s | -50.6°C | 5.8% | 203.1hPa | 2.6V | 18:12:15 | 00:57:47 | 00:00:00 | |
| DJ2DS-15 | 2026-09-05 11:53:39 | 56.02394 | 4.59975 | 117° | 181km/h | 11758m | 5.3m/s | -50.6°C | 7.7% | 204.1hPa | 2.6V | 00:00:00 | 00:57:39 | 00:00:00 | |
| DM0DOS-11 | 2026-09-05 11:53:38 | 56.02436 | 4.59827 | 116° | 184km/h | 11749m | 4.7m/s | -50.7°C | 0% | 0hPa | 2.6V | 08:30:00 | 00:57:37 | 00:00:00 | |
| DL1XH-west | 2026-09-05 11:53:37 | 56.02436 | 4.59827 | 117° | 184km/h | 11749m | 4.7m/s | -50.7°C | 6% | 204.5hPa | 2.6V | 18:12:15 | 00:57:37 | 00:00:00 | |
| DM0DOS-11 | 2026-09-05 11:53:31 | 56.02658 | 4.59031 | 116° | 179km/h | 11702m | 4.3m/s | -50.5°C | 0% | 0hPa | 2.7V | 08:30:00 | 00:57:26 | 00:00:00 | |
| DL1XH-west | 2026-09-05 11:53:27 | 56.02637 | 4.59102 | 117° | 177km/h | 11706m | 4.8m/s | -50.5°C | 6.5% | 205.9hPa | 2.7V | 18:12:15 | 00:57:27 | 00:00:00 | |
| DJ2DS-15 | 2026-09-05 11:53:25 | 56.02699 | 4.58886 | 117° | 181km/h | 11693m | 5.0m/s | -50.4°C | 5.0% | 206.2hPa | 2.7V | 00:00:00 | 00:00:00 | 00:00:00 | |
| DM0DOS-11 | 2026-09-05 11:53:20 | 56.02869 | 4.58309 | 118° | 177km/h | 11658m | 5.2m/s | -50.2°C | 0% | 0hPa | 2.7V | 08:30:00 | 00:57:16 | 00:00:00 | |
| DL1XH-west | 2026-09-05 11:53:17 | 56.02869 | 4.58309 | 118° | 177km/h | 11658m | 5.2m/s | -50.2°C | 6.5% | 207.4hPa | 2.7V | 18:12:15 | 00:57:16 | 00:00:00 | |
| DM0DOS-11 | 2026-09-05 11:53:10 | 56.03081 | 4.57613 | 118° | 175km/h | 11615m | 4.5m/s | -50.3°C | 0% | 0hPa | 2.6V | 08:30:00 | 00:57:06 | 00:00:00 | |
| DL1XH-west | 2026-09-05 11:53:06 | 56.03081 | 4.57613 | 119° | 175km/h | 11615m | 4.5m/s | -50.3°C | 6.3% | 208.7hPa | 2.6V | 18:12:15 | 00:57:06 | 00:00:00 | |
| DM0DOS-11 | 2026-09-05 11:53:00 | 56.03289 | 4.56919 | 118° | 173km/h | 11572m | 5.1m/s | 0°C | 0% | 0hPa | 2.7V | 00:00:00 | 00:56:56 | 00:00:00 | |
| DL1XH-west | 2026-09-05 11:52:55 | 56.03331 | 4.56782 | 119° | 173km/h | 11564m | 4.3m/s | -50.2°C | 6.6% | 210.4hPa | 2.6V | 18:12:15 | 00:56:54 | 00:00:00 | |
| DM0DOS-11 | 2026-09-05 11:52:48 | 56.03502 | 4.56236 | 119° | 173km/h | 11530m | 4.4m/s | 0°C | 0% | 0hPa | 2.6V | 00:00:00 | 00:56:46 | 00:00:00 | |
| DL1XH-west | 2026-09-05 11:52:43 | 56.03568 | 4.56032 | 121° | 173km/h | 11517m | 3.9m/s | -50.7°C | 8% | 211.9hPa | 2.7V | 18:12:15 | 00:56:43 | 00:00:00 | |
| DM0DOS-11 | 2026-09-05 11:52:41 | 56.03723 | 4.55562 | 120° | 175km/h | 11489m | 3.5m/s | 0°C | 0% | 0hPa | 2.6V | 00:00:00 | 00:56:36 | 00:00:00 | |
| DL1XH-west | 2026-09-05 11:52:32 | 56.03842 | 4.55228 | 123° | 175km/h | 11468m | 4.6m/s | -51.2°C | 9.5% | 213.5hPa | 2.6V | 18:12:15 | 00:56:31 | 00:00:00 | |
| DM0DOS-11 | 2026-09-05 11:52:24 | 56.04095 | 4.54548 | 123° | 184km/h | 11425m | 4.1m/s | 0°C | 0% | 0hPa | 2.7V | 00:00:00 | 00:56:21 | 00:00:00 | |
| DL1XH-west | 2026-09-05 11:52:22 | 56.04095 | 4.54548 | 124° | 184km/h | 11425m | 4.1m/s | -51.3°C | 10.2% | 214.9hPa | 2.7V | 18:12:15 | 00:56:21 | 00:00:00 | |
| DL1XH-west | 2026-09-05 11:52:11 | 56.04364 | 4.53870 | 126° | 184km/h | 11384m | 4.1m/s | -51.4°C | 11.1% | 216.3hPa | 2.6V | 18:12:15 | 00:56:11 | 00:00:00 | |
| DL1XH-west | 2026-09-05 11:52:01 | 56.04643 | 4.53188 | 127° | 188km/h | 11342m | 4.7m/s | -51.3°C | 11.7% | 217.7hPa | 2.7V | 18:12:15 | 00:56:01 | 00:00:00 | |
| DL1XH-west | 2026-09-05 11:51:50 | 56.04960 | 4.52431 | 127° | 192km/h | 11294m | 4.1m/s | -51°C | 12.4% | 219.3hPa | 2.6V | 18:12:15 | 00:55:50 | 00:00:00 | |
| DL1XH-west | 2026-09-05 11:51:39 | 56.05288 | 4.51672 | 128° | 195km/h | 11249m | 3.6m/s | -50.8°C | 13.4% | 220.8hPa | 2.8V | 18:12:15 | 00:55:39 | 00:00:00 | |
| DL1XH-west | 2026-09-05 11:51:29 | 56.05597 | 4.50964 | 127° | 195km/h | 11209m | 4.8m/s | -50.9°C | 14.6% | 222.1hPa | 2.6V | 18:12:15 | 00:55:29 | 00:00:00 | |
| DL1XH-west | 2026-09-05 11:51:19 | 56.05947 | 4.50179 | 129° | 203km/h | 11165m | 4.2m/s | -50.8°C | 17.1% | 223.7hPa | 2.8V | 18:12:15 | 00:55:18 | 00:00:00 | |
| DL1XH-west | 2026-09-05 11:51:08 | 56.06303 | 4.49388 | 129° | 208km/h | 11122m | 3.4m/s | -50.9°C | 19.2% | 225.2hPa | 2.8V | 18:12:15 | 00:55:07 | 00:00:00 | |
| DL1XH-west | 2026-09-05 11:50:56 | 56.06674 | 4.48580 | 130° | 210km/h | 11078m | 3m/s | -50.7°C | 21.9% | 226.7hPa | 2.7V | 18:12:15 | 00:54:56 | 00:00:00 | |
| DL1XH-west | 2026-09-05 11:50:46 | 56.07017 | 4.47826 | 129° | 219km/h | 11038m | 4.6m/s | -51.1°C | 23.6% | 228.1hPa | 2.8V | 18:12:15 | 00:54:46 | 00:00:00 | |
| DL1XH-west | 2026-09-05 11:50:36 | 56.07402 | 4.46959 | 128° | 223km/h | 10992m | 3.7m/s | -51.2°C | 23.9% | 229.7hPa | 2.8V | 18:12:15 | 00:54:35 | 00:00:00 | |
| DL1XH-west | 2026-09-05 11:50:24 | 56.07787 | 4.46084 | 127° | 226km/h | 10946m | 4.4m/s | -50.9°C | 23.5% | 231.3hPa | 2.8V | 18:12:15 | 00:54:24 | 00:00:00 | |
| DL1XH-west | 2026-09-05 11:50:14 | 56.08149 | 4.45260 | 129° | 234km/h | 10906m | 4.1m/s | -50.8°C | 23.9% | 0hPa | 2.8V | 18:12:15 | 00:54:14 | 00:00:00 | |
| DL1XH-west | 2026-09-05 11:50:03 | 56.08551 | 4.44353 | 128° | 230km/h | 10863m | 3.6m/s | -50.7°C | 24% | 0hPa | 2.8V | 18:12:15 | 00:54:03 | 00:00:00 | |
| DL1XH-west | 2026-09-05 11:49:53 | 56.08912 | 4.43525 | 128° | 235km/h | 10824m | 3.7m/s | -50.4°C | 23.4% | 0hPa | 2.8V | 18:12:15 | 00:53:53 | 00:00:00 | |
| DJ2DS-15 | 2026-09-05 11:49:48 | 56.09092 | 4.43104 | 127° | 234km/h | 10803m | 4.8m/s | -50.2°C | 18.5% | 236.5hPa | 2.8V | 00:00:00 | 00:00:00 | 00:00:00 | |
| DL1XH-west | 2026-09-05 11:49:43 | 56.09307 | 4.42598 | 128° | 235km/h | 10779m | 4.9m/s | -50°C | 22.9% | 0hPa | 2.8V | 18:12:15 | 00:53:42 | 00:00:00 | |
| DL1XH-west | 2026-09-05 11:49:32 | 56.09669 | 4.41753 | 127° | 234km/h | 10737m | 4.8m/s | 0°C | 0% | 0hPa | 2.8V | 18:12:15 | 00:53:32 | 00:00:00 | |
| DJ2DS-15 | 2026-09-05 11:49:19 | 56.10135 | 4.40662 | 128° | 230km/h | 10684m | 4.0m/s | -49.3°C | 21.9% | 240.8hPa | 2.7V | 00:00:00 | 00:53:19 | 00:00:00 | |
| DJ2DS-15 | 2026-09-05 11:48:59 | 56.10845 | 4.39010 | 127° | 226km/h | 10602m | 3.8m/s | -48.8°C | 21.4% | 243.8hPa | 2.7V | 00:00:00 | 00:52:59 | 00:00:00 | |
| DJ2DS-15 | 2026-09-05 11:48:39 | 56.11540 | 4.37377 | 129° | 230km/h | 10513m | 4.3m/s | -48.5°C | 21.5% | 247.1hPa | 2.7V | 00:00:00 | 00:52:39 | 00:00:00 | |
| DJ2DS-15 | 2026-09-05 11:48:36 | 56.11647 | 4.37135 | 128° | 228km/h | 10500m | 3.9m/s | -48.5°C | 17.6% | 247.6hPa | 2.7V | 00:00:00 | 00:00:00 | 00:00:00 | |
| DJ2DS-15 | 2026-09-05 11:48:19 | 56.12270 | 4.35766 | 131° | 230km/h | 10431m | 3.6m/s | -48.5°C | 22.7% | 250.2hPa | 2.7V | 00:00:00 | 00:52:19 | 00:00:00 | |
| DJ2DS-15 | 2026-09-05 11:48:00 | 56.12976 | 4.34236 | 129° | 230km/h | 10352m | 4.6m/s | -48.1°C | 18.1% | 253.3hPa | 2.7V | 00:00:00 | 00:00:00 | 00:00:00 | |
| DJ2DS-15 | 2026-09-05 11:47:59 | 56.13013 | 4.34155 | 129° | 232km/h | 10349m | 3.0m/s | -48.1°C | 22.3% | 253.4hPa | 2.7V | 00:00:00 | 00:51:59 | 08:30:00 | |
| DJ2DS-15 | 2026-09-05 11:47:39 | 56.13759 | 4.32534 | 130° | 234km/h | 10269m | 4.5m/s | -47.5°C | 22.0% | 256.4hPa | 2.7V | 00:00:00 | 00:51:39 | 00:00:00 | |
| DJ2DS-15 | 2026-09-05 11:47:24 | 56.14366 | 4.31242 | 130° | 235km/h | 10203m | 4.0m/s | -47.3°C | 18.1% | 259.0hPa | 2.7V | 00:00:00 | 00:00:00 | 00:00:00 | |
| DJ2DS-15 | 2026-09-05 11:47:19 | 56.14518 | 4.30918 | 131° | 232km/h | 10186m | 4.7m/s | -47.1°C | 22.0% | 259.6hPa | 2.7V | 00:00:00 | 00:51:19 | 00:00:00 | |
| DJ2DS-15 | 2026-09-05 11:46:59 | 56.15264 | 4.29294 | 129° | 230km/h | 10107m | 3.5m/s | -46.5°C | 21.4% | 262.8hPa | 2.7V | 00:00:00 | 00:50:59 | 00:00:00 | |
| DJ2DS-15 | 2026-09-05 11:46:17 | 56.16791 | 4.25848 | 128° | 234km/h | 9938m | 3.7m/s | -45.1°C | 19.4% | 269.5hPa | 2.7V | 00:00:00 | 00:50:17 | 00:00:00 | |
| DJ2DS-15 | 2026-09-05 11:46:12 | 56.17008 | 4.25350 | 127° | 234km/h | 9915m | 3.8m/s | -45.0°C | 15.9% | 270.5hPa | 2.7V | 00:00:00 | 00:00:00 | 00:00:00 | |
| DJ2DS-15 | 2026-09-05 11:45:57 | 56.17515 | 4.24175 | 128° | 232km/h | 9861m | 3.9m/s | -44.7°C | 19.1% | 272.7hPa | 2.7V | 00:00:00 | 00:49:57 | 00:00:00 | |
| DJ2DS-15 | 2026-09-05 11:45:37 | 56.18212 | 4.22499 | 127° | 228km/h | 9781m | 4.4m/s | -44.6°C | 19.9% | 275.9hPa | 2.7V | 00:00:00 | 00:49:37 | 00:00:00 | |
| DJ2DS-15 | 2026-09-05 11:45:18 | 56.18903 | 4.20840 | 127° | 228km/h | 9702m | 4.2m/s | -44.0°C | 20.5% | 279.2hPa | 2.7V | 00:00:00 | 00:49:17 | 00:00:00 | |
| DJ2DS-15 | 2026-09-05 11:44:57 | 56.19597 | 4.19185 | 128° | 226km/h | 9621m | 3.4m/s | -43.4°C | 21.0% | 282.6hPa | 2.7V | 00:00:00 | 00:48:57 | 08:30:00 | |
| DJ2DS-15 | 2026-09-05 11:44:37 | 56.20296 | 4.17551 | 128° | 230km/h | 9542m | 3.4m/s | -42.8°C | 20.9% | 285.9hPa | 2.7V | 00:00:00 | 00:48:37 | 00:00:00 | |
| DJ2DS-15 | 2026-09-05 11:44:23 | 56.20792 | 4.16396 | 127° | 230km/h | 9486m | 3.6m/s | -42.5°C | 17.3% | 288.4hPa | 2.7V | 00:00:00 | 00:00:00 | 00:00:00 | |
| DJ2DS-15 | 2026-09-05 11:44:17 | 56.21000 | 4.15899 | 127° | 228km/h | 9463m | 4.6m/s | -42.4°C | 19.6% | 289.3hPa | 2.7V | 00:00:00 | 00:48:17 | 00:00:00 | |
| DJ2DS-15 | 2026-09-05 11:43:57 | 56.21697 | 4.14245 | 128° | 226km/h | 9385m | 3.5m/s | -41.8°C | 17.6% | 292.6hPa | 2.7V | 00:00:00 | 00:47:57 | 00:00:00 | |
| DJ2DS-15 | 2026-09-05 11:43:37 | 56.22378 | 4.12587 | 127° | 226km/h | 9307m | 3.8m/s | 0°C | 0% | 0hPa | 0V | 00:00:00 | 00:47:37 | 00:00:00 | |
| DJ2DS-15 | 2026-09-05 11:43:17 | 56.23047 | 4.10924 | 126° | 226km/h | 9229m | 3.1m/s | 0°C | 0% | 0hPa | 0V | 00:00:00 | 00:47:17 | 00:00:00 | |
| DJ2DS-15 | 2026-09-05 11:42:57 | 56.23706 | 4.09247 | 125° | 228km/h | 9153m | 3.6m/s | 0°C | 0% | 0hPa | 0V | 00:00:00 | 00:46:57 | 00:00:00 | |
| DJ2DS-15 | 2026-09-05 11:42:37 | 56.24356 | 4.07541 | 125° | 228km/h | 9077m | 2.9m/s | 0°C | 0% | 0hPa | 0V | 00:00:00 | 00:46:37 | 00:00:00 |